[[{"header":{"parameterUnit":"m.s-1","parameterCategory":1,"la1":31.0,"la2":29.5877,"lo1":-88.7671,"lo2":-86.6584,"dy":0.0162,"dx":0.0185,"nx":115,"ny":88,"refTime":"2023-07-04T06:00:00:Z","depth":0,"parameterNumber":2,"parameterNumberName":"U-component_of_WINDS"},"data":[0.0,0.0,0.0,0.0,0.0,0.0,0.0,0.0,0.0,0.0,0.0,0.0,0.0,0.0,0.0,0.0,0.0,0.0,0.0,0.0,0.0,0.0,0.0,0.0,0.0,0.0,0.0,0.0,0.0,0.0,0.0,0.0,0.0,0.0,0.0,0.0,0.0,0.0,0.0,0.0,0.0,0.0,0.0,0.0,0.0,0.0,0.0,0.0,0.0,0.0,0.0,0.0,0.0,0.0,0.0,0.0,0.0,0.0,0.0,0.0,0.0,0.0,0.0,0.0,0.0,0.0,0.0,0.0,0.0,0.0,0.0,0.0,0.0,0.0,0.0,0.0,0.0,0.0,0.0,0.0,0.0,0.0,0.0,0.0,0.0,0.0,0.0,0.0,0.0,0.0,0.0,0.0,0.0,0.0,0.0,0.0,0.0,0.0,0.0,0.0,0.0,0.0,0.0,0.0,0.0,0.0,0.0,0.0,0.0,0.0,0.0,0.0,0.0,0.0,0.0,0.0,0.0,0.0,0.0,0.0,0.0,0.0,0.0,0.0,0.0,0.0,0.0,0.0,0.0,0.0,0.0,0.0,0.0,0.0,0.0,0.0,0.0,0.0,0.0,0.0,0.0,0.0,0.0,0.0,0.0,0.0,0.0,0.0,0.0,0.0,0.0,0.0,0.0,0.0,0.0,0.0,0.0,0.0,0.0,0.0,0.0,0.0,0.0,0.0,0.0,0.0,0.0,0.0,0.0,0.0,0.0,0.0,0.0,0.0,0.0,0.0,0.0,0.0,0.0,0.0,0.0,0.0,0.0,0.0,0.0,0.0,0.0,0.0,0.0,0.0,0.0,0.0,0.0,0.0,0.0,0.0,0.0,0.0,0.0,0.0,0.0,0.0,0.0,0.0,0.0,0.0,0.0,0.0,0.0,0.0,0.0,0.0,0.0,0.0,0.0,0.0,0.0,0.0,0.0,0.0,0.0,0.0,0.0,0.0,0.0,0.0,0.0,0.0,0.0,0.0,0.0,0.0,0.0,0.0,0.0,0.0,0.0,0.0,0.0,0.0,0.0,0.0,0.0,0.0,0.0,0.0,0.0,0.0,0.0,0.0,0.0,0.0,0.0,0.0,0.0,0.0,0.0,0.0,0.0,0.0,0.0,0.0,0.0,0.0,0.0,0.0,0.0,0.0,0.0,0.0,0.0,0.0,0.0,0.0,0.0,0.0,0.0,0.0,0.0,0.0,0.0,0.0,0.0,0.0,0.0,0.0,0.0,0.0,0.0,0.0,0.0,0.0,0.0,0.0,0.0,0.0,0.0,0.0,0.0,0.0,0.0,0.0,0.0,0.0,0.0,0.0,0.0,0.0,0.0,0.0,0.0,0.0,0.0,0.0,0.0,0.0,0.0,0.0,0.0,0.0,0.0,0.0,0.0,0.0,0.0,0.0,0.0,0.0,0.0,0.0,0.0,0.0,0.0,0.0,0.0,0.0,0.0,0.0,0.0,0.0,0.0,0.0,0.0,0.0,0.0,0.0,0.0,0.0,0.0,0.0,0.0,0.0,0.0,0.0,0.0,0.0,0.0,0.0,0.0,0.0,0.0,0.0,0.0,0.0,0.0,0.0,0.0,0.0,0.0,0.0,0.0,0.0,0.0,0.0,0.0,0.0,0.0,0.0,0.0,0.0,0.0,0.0,0.0,0.0,0.0,0.0,0.0,0.0,0.0,0.0,0.0,0.0,0.0,0.0,0.0,0.0,0.0,0.0,0.0,0.0,0.0,0.0,0.0,0.0,0.0,0.0,0.0,0.0,0.0,0.0,0.0,0.0,0.0,0.0,0.0,0.0,0.0,0.0,0.0,0.0,0.0,0.0,0.0,0.0,0.0,0.0,0.0,0.0,0.0,0.0,0.0,0.0,0.0,0.0,0.0,0.0,0.0,0.0,0.0,0.0,0.0,0.0,0.0,0.0,0.0,0.0,0.0,0.0,0.0,0.0,0.0,0.0,0.0,0.0,0.0,0.0,0.0,0.0,0.0,0.0,0.0,0.0,0.0,0.0,0.0,0.0,0.0,0.0,0.0,0.0,0.0,0.0,0.0,0.0,0.0,0.0,0.0,0.0,0.0,0.0,0.0,0.0,0.0,0.0,0.0,0.0,0.0,0.0,0.0,0.0,0.0,0.0,0.0,0.0,0.0,0.0,0.0,0.0,0.0,0.0,0.0,0.0,0.0,0.0,0.0,0.0,0.0,0.0,0.0,0.0,0.0,0.0,0.0,0.0,0.0,0.0,0.0,0.0,0.0,0.0,0.0,0.0,0.0,0.0,0.0,0.0,0.0,0.0,0.0,0.0,0.0,0.0,0.0,0.0,0.0,0.0,0.0,0.0,0.0,0.0,0.0,0.0,0.0,0.0,0.0,0.0,0.0,0.0,0.0,0.0,0.0,0.0,0.0,0.0,0.0,0.0,0.0,0.0,0.0,0.0,0.0,0.0,0.0,0.0,0.0,0.0,0.0,0.0,0.0,0.0,0.0,0.0,0.0,0.0,0.0,0.0,0.0,0.0,0.0,0.0,0.0,0.0,0.0,0.0,0.0,0.0,0.0,0.0,0.0,0.0,0.0,0.0,0.0,0.0,0.0,0.0,0.0,0.0,0.0,0.0,0.0,0.0,0.0,0.0,0.0,0.0,0.0,0.0,0.0,0.0,0.0,0.0,0.0,0.0,0.0,0.0,0.0,0.0,0.0,0.0,0.0,0.0,0.0,0.0,0.0,0.0,0.0,0.0,0.0,0.0,0.0,0.0,0.0,0.0,0.0,0.0,0.0,0.0,0.0,0.0,0.0,0.0,0.0,0.0,0.0,0.0,0.0,0.0,0.0,0.0,0.0,0.0,0.0,0.0,0.0,0.0,0.0,0.0,0.0,0.0,0.0,0.0,0.0,0.0,0.0,0.0,0.0,0.0,0.0,0.0,0.0,0.0,0.0,0.0,0.0,0.0,0.0,0.0,0.0,0.0,0.0,0.0,0.0,0.0,0.0,0.0,0.0,0.0,0.0,0.0,0.0,0.0,0.0,0.0,0.0,0.0,0.0,0.0,0.0,0.0,0.0,0.0,0.0,0.0,0.0,0.0,0.0,0.0,0.0,0.0,0.0,0.0,0.0,0.0,0.0,0.0,0.0,0.0,0.0,0.0,0.0,0.0,0.0,0.0,0.0,0.0,0.0,0.0,0.0,0.0,0.0,0.0,0.0,0.0,0.0,0.0,0.0,0.0,0.0,0.0,0.0,0.0,0.0,0.0,0.0,0.0,0.0,0.0,0.0,0.0,0.0,0.0,0.0,0.0,0.0,0.0,0.0,0.0,0.0,0.0,0.0,0.0,0.0,0.0,0.0,0.0,0.0,0.0,0.0,0.0,0.0,0.0,0.0,0.0,0.0,0.0,0.0,0.0,0.0,0.0,0.0,0.0,0.0,0.0,0.0,0.0,0.0,0.0,0.0,0.0,0.0,0.0,0.0,0.0,0.0,0.0,0.0,0.0,0.0,0.0,0.0,0.0,0.0,0.0,0.0,0.0,0.0,0.0,0.0,0.0,0.0,0.0,0.0,0.0,0.0,0.0,0.0,0.0,0.0,0.0,0.0,0.0,0.0,0.0,0.0,0.0,0.0,0.0,0.0,0.0,0.0,0.0,0.0,0.0,0.0,0.0,0.0,0.0,0.0,0.0,0.0,0.0,0.0,0.0,0.0,0.0,0.0,0.0,0.0,0.0,0.0,0.0,0.0,0.0,0.0,0.0,0.0,0.0,0.0,0.0,0.0,0.0,0.0,0.0,0.0,0.0,0.0,0.0,0.0,0.0,0.0,0.0,0.0,0.0,0.0,0.0,0.0,0.0,0.0,0.0,0.0,0.0,0.0,0.0,0.0,0.0,0.0,0.0,0.0,0.0,0.0,0.0,0.0,0.0,0.0,0.0,0.0,0.0,0.0,0.0,0.0,0.0,0.0,0.0,0.0,0.0,0.0,0.0,0.0,0.0,0.0,0.0,0.0,0.0,0.0,0.0,0.0,0.0,0.0,0.0,0.0,0.0,0.0,0.0,0.0,0.0,0.0,0.0,0.0,0.0,0.0,0.0,0.0,0.0,0.0,0.0,0.0,0.0,0.0,0.0,0.0,0.0,0.0,0.0,0.0,0.0,0.0,0.0,0.0,0.0,0.0,0.0,0.0,0.0,0.0,0.0,0.0,0.0,0.0,0.0,0.0,0.0,-1.7231,0.0,0.0,0.0,-1.584,0.0,0.0,0.0,0.0,0.0,0.0,0.0,0.0,0.0,0.0,0.0,0.0,0.0,0.0,0.0,0.0,0.0,0.0,0.0,0.0,0.0,0.0,0.0,0.0,0.0,0.0,0.0,0.0,0.0,0.0,0.0,0.0,0.0,0.0,0.0,0.0,0.0,0.0,0.0,0.0,0.0,0.0,0.0,0.0,0.0,0.0,0.0,0.0,0.0,0.0,0.0,0.0,0.0,0.0,0.0,0.0,0.0,0.0,0.0,0.0,0.0,0.0,0.0,0.0,0.0,0.0,0.0,0.0,0.0,0.0,0.0,0.0,0.0,0.0,0.0,0.0,0.0,0.0,0.0,0.0,0.0,0.0,0.0,0.0,0.0,0.0,0.0,0.0,0.0,0.0,0.0,0.0,0.0,0.0,0.0,0.0,0.0,0.0,0.0,0.0,0.0,0.0,0.0,0.0,0.0,0.0,0.0,0.0,0.0,0.0,-1.9097,-1.8756,-1.9278,-1.8988,-1.7699,0.0,0.0,0.0,0.0,0.0,0.0,0.0,0.0,0.0,0.0,0.0,0.0,0.0,0.0,0.0,0.0,0.0,0.0,0.0,0.0,0.0,0.0,0.0,0.0,0.0,0.0,0.0,0.0,0.0,0.0,0.0,0.0,0.0,0.0,0.0,0.0,0.0,0.0,0.0,0.0,0.0,0.0,0.0,0.0,0.0,0.0,0.0,0.0,0.0,0.0,0.0,0.0,0.0,0.0,0.0,0.0,0.0,0.0,0.0,0.0,0.0,0.0,0.0,0.0,0.0,0.0,0.0,0.0,0.0,0.0,0.0,0.0,0.0,0.0,0.0,0.0,0.0,0.0,0.0,0.0,0.0,0.0,0.0,0.0,0.0,0.0,0.0,0.0,0.0,0.0,0.0,0.0,0.0,0.0,0.0,0.0,0.0,0.0,0.0,0.0,0.0,0.0,0.0,0.0,0.0,0.0,0.0,0.0,0.0,0.0,0.0,0.0,-2.2609,-2.2509,-2.0901,0.0,0.0,0.0,0.0,0.0,0.0,0.0,0.0,0.0,0.0,0.0,0.0,0.0,0.0,0.0,0.0,0.0,0.0,0.0,0.0,0.0,0.0,0.0,0.0,0.0,0.0,0.0,0.0,0.0,0.0,0.0,0.0,0.0,0.0,0.0,0.0,0.0,0.0,0.0,0.0,0.0,0.0,0.0,0.0,0.0,0.0,0.0,0.0,0.0,0.0,0.0,0.0,0.0,0.0,0.0,0.0,0.0,0.0,0.0,0.0,0.0,0.0,0.0,0.0,0.0,0.0,0.0,0.0,0.0,0.0,0.0,0.0,0.0,0.0,0.0,0.0,0.0,0.0,0.0,0.0,0.0,0.0,0.0,0.0,0.0,0.0,0.0,0.0,0.0,0.0,0.0,0.0,0.0,0.0,0.0,0.0,0.0,0.0,0.0,0.0,0.0,0.0,0.0,0.0,0.0,0.0,0.0,0.0,0.0,0.0,-2.2683,-2.6378,-2.6473,0.0,-2.6526,0.0,0.0,0.0,0.0,0.0,0.0,0.0,0.0,0.0,0.0,0.0,0.0,0.0,0.0,0.0,0.0,0.0,0.0,0.0,0.0,0.0,0.0,0.0,0.0,0.0,0.0,0.0,0.0,0.0,0.0,0.0,0.0,0.0,0.0,0.0,0.0,0.0,0.0,0.0,0.0,0.0,0.0,0.0,0.0,0.0,0.0,0.0,0.0,0.0,0.0,0.0,0.0,0.0,0.0,0.0,0.0,0.0,0.0,0.0,0.0,0.0,0.0,0.0,0.0,0.0,0.0,0.0,0.0,0.0,0.0,0.0,0.0,0.0,0.0,0.0,0.0,0.0,0.0,0.0,0.0,0.0,0.0,0.0,0.0,0.0,0.0,0.0,0.0,0.0,0.0,0.0,0.0,0.0,0.0,0.0,0.0,0.0,0.0,0.0,0.0,0.0,0.0,0.0,0.0,0.0,0.0,0.0,0.0,0.0,0.0,-2.6412,-2.8735,-2.8946,-2.8895,0.0,0.0,0.0,0.0,0.0,0.0,0.0,0.0,0.0,0.0,0.0,0.0,0.0,0.0,0.0,0.0,0.0,0.0,0.0,0.0,0.0,0.0,0.0,0.0,0.0,0.0,0.0,0.0,0.0,0.0,0.0,0.0,0.0,0.0,0.0,0.0,0.0,0.0,0.0,0.0,0.0,0.0,0.0,0.0,0.0,0.0,0.0,0.0,0.0,0.0,0.0,0.0,0.0,0.0,0.0,0.0,0.0,0.0,0.0,0.0,0.0,0.0,0.0,0.0,0.0,0.0,0.0,0.0,0.0,0.0,0.0,0.0,0.0,0.0,0.0,0.0,0.0,0.0,0.0,0.0,0.0,0.0,0.0,0.0,0.0,0.0,0.0,0.0,0.0,0.0,0.0,0.0,0.0,0.0,0.0,0.0,0.0,0.0,0.0,0.0,0.0,0.0,0.0,0.0,0.0,0.0,0.0,0.0,0.0,0.0,-2.8741,-3.0248,-3.1801,-3.1774,-3.1178,-3.0092,0.0,0.0,0.0,0.0,0.0,0.0,0.0,0.0,0.0,0.0,0.0,0.0,0.0,0.0,0.0,0.0,0.0,0.0,0.0,0.0,0.0,0.0,0.0,0.0,0.0,0.0,0.0,0.0,0.0,0.0,0.0,0.0,0.0,0.0,0.0,0.0,0.0,0.0,0.0,0.0,0.0,0.0,0.0,0.0,0.0,0.0,0.0,0.0,0.0,0.0,0.0,0.0,0.0,0.0,0.0,0.0,0.0,0.0,0.0,0.0,0.0,0.0,0.0,0.0,0.0,0.0,0.0,0.0,0.0,0.0,0.0,0.0,0.0,0.0,0.0,0.0,0.0,0.0,0.0,0.0,0.0,0.0,0.0,0.0,0.0,0.0,0.0,0.0,0.0,0.0,0.0,0.0,0.0,0.0,0.0,0.0,0.0,0.0,0.0,0.0,0.0,0.0,0.0,0.0,0.0,0.0,0.0,0.0,-3.3343,-3.2789,-3.3823,-3.6746,-3.5431,-3.3707,0.0,0.0,0.0,0.0,0.0,0.0,0.0,0.0,0.0,0.0,0.0,0.0,0.0,0.0,0.0,0.0,0.0,0.0,0.0,0.0,0.0,0.0,0.0,0.0,0.0,0.0,0.0,0.0,0.0,0.0,0.0,0.0,0.0,0.0,0.0,0.0,0.0,0.0,0.0,0.0,0.0,0.0,0.0,0.0,0.0,0.0,0.0,0.0,0.0,0.0,0.0,0.0,0.0,0.0,0.0,0.0,0.0,0.0,0.0,0.0,0.0,0.0,0.0,0.0,0.0,0.0,0.0,0.0,0.0,0.0,0.0,0.0,0.0,0.0,0.0,0.0,0.0,0.0,0.0,0.0,0.0,0.0,0.0,0.0,0.0,0.0,0.0,0.0,0.0,0.0,0.0,0.0,0.0,0.0,0.0,0.0,0.0,0.0,0.0,0.0,0.0,0.0,0.0,0.0,0.0,0.0,0.0,0.0,0.0,-3.2336,-3.4367,-3.6723,-3.9309,-3.6517,-3.4225,0.0,0.0,0.0,0.0,0.0,0.0,0.0,0.0,0.0,0.0,0.0,0.0,0.0,0.0,0.0,0.0,0.0,0.0,0.0,0.0,0.0,0.0,0.0,0.0,0.0,0.0,0.0,0.0,0.0,0.0,0.0,0.0,0.0,0.0,0.0,0.0,0.0,0.0,0.0,0.0,0.0,0.0,0.0,0.0,0.0,0.0,0.0,0.0,0.0,0.0,0.0,0.0,0.0,0.0,0.0,0.0,0.0,0.0,0.0,0.0,0.0,0.0,0.0,0.0,0.0,0.0,0.0,0.0,0.0,0.0,0.0,0.0,0.0,0.0,0.0,0.0,0.0,0.0,0.0,0.0,0.0,0.0,0.0,0.0,0.0,0.0,0.0,0.0,0.0,0.0,0.0,0.0,0.0,0.0,0.0,0.0,0.0,0.0,0.0,0.0,0.0,0.0,0.0,0.0,0.0,0.0,0.0,0.0,0.0,-3.3721,0.0,-3.9524,-4.0244,-3.7334,-3.4415,0.0,0.0,0.0,0.0,0.0,0.0,0.0,0.0,0.0,0.0,0.0,0.0,0.0,0.0,0.0,0.0,0.0,0.0,0.0,0.0,0.0,0.0,0.0,0.0,0.0,0.0,0.0,0.0,0.0,0.0,0.0,0.0,0.0,0.0,0.0,0.0,0.0,0.0,0.0,0.0,0.0,0.0,0.0,0.0,0.0,0.0,0.0,0.0,0.0,0.0,0.0,0.0,0.0,0.0,0.0,0.0,0.0,0.0,0.0,0.0,0.0,0.0,0.0,0.0,0.0,0.0,0.0,0.0,0.0,0.0,0.0,0.0,0.0,0.0,0.0,0.0,0.0,0.0,0.0,0.0,0.0,0.0,0.0,0.0,0.0,0.0,0.0,0.0,0.0,0.0,0.0,0.0,0.0,0.0,0.0,0.0,0.0,0.0,0.0,0.0,0.0,0.0,0.0,0.0,0.0,0.0,0.0,0.0,-3.231,-3.8185,-4.1483,-4.1956,-3.9695,-3.7951,-3.4295,0.0,0.0,0.0,0.0,0.0,0.0,0.0,0.0,0.0,0.0,0.0,0.0,0.0,0.0,0.0,0.0,0.0,0.0,0.0,0.0,0.0,0.0,0.0,0.0,0.0,0.0,0.0,0.0,0.0,0.0,0.0,0.0,0.0,0.0,0.0,0.0,0.0,0.0,0.0,0.0,0.0,0.0,0.0,0.0,0.0,0.0,0.0,0.0,0.0,0.0,0.0,0.0,0.0,0.0,0.0,0.0,0.0,0.0,0.0,0.0,0.0,0.0,0.0,0.0,0.0,0.0,0.0,0.0,0.0,0.0,0.0,0.0,0.0,0.0,0.0,0.0,0.0,0.0,0.0,0.0,0.0,0.0,0.0,0.0,0.0,0.0,0.0,0.0,0.0,0.0,0.0,0.0,0.0,0.0,0.0,0.0,0.0,0.0,0.0,0.0,0.0,0.0,0.0,0.0,0.0,0.0,0.0,0.0,0.0,-3.66,-3.9728,-4.1264,-4.0867,-3.6988,-3.3654,0.0,0.0,0.0,0.0,0.0,0.0,0.0,0.0,0.0,0.0,0.0,0.0,0.0,0.0,0.0,0.0,0.0,0.0,0.0,0.0,0.0,0.0,0.0,0.0,0.0,0.0,0.0,0.0,0.0,0.0,0.0,0.0,0.0,0.0,0.0,0.0,0.0,0.0,0.0,0.0,0.0,0.0,0.0,0.0,0.0,0.0,0.0,0.0,0.0,0.0,0.0,0.0,0.0,0.0,0.0,0.0,0.0,0.0,0.0,0.0,0.0,0.0,0.0,0.0,0.0,0.0,0.0,0.0,0.0,0.0,0.0,0.0,0.0,0.0,0.0,0.0,0.0,0.0,0.0,0.0,0.0,0.0,0.0,0.0,0.0,0.0,0.0,0.0,0.0,0.0,0.0,0.0,0.0,0.0,0.0,0.0,0.0,0.0,0.0,0.0,0.0,0.0,0.0,0.0,0.0,0.0,0.0,0.0,0.0,-3.7731,-4.0773,-4.2325,-4.2019,-3.752,-3.4138,-3.2001,0.0,0.0,0.0,0.0,0.0,0.0,0.0,0.0,0.0,0.0,0.0,0.0,0.0,0.0,0.0,0.0,0.0,0.0,0.0,0.0,0.0,0.0,0.0,0.0,0.0,0.0,0.0,0.0,0.0,0.0,0.0,0.0,0.0,0.0,0.0,0.0,0.0,0.0,0.0,0.0,0.0,0.0,0.0,0.0,0.0,0.0,0.0,0.0,0.0,0.0,0.0,0.0,0.0,0.0,0.0,0.0,0.0,0.0,0.0,0.0,0.0,0.0,0.0,0.0,0.0,0.0,0.0,0.0,0.0,0.0,0.0,0.0,0.0,0.0,0.0,0.0,0.0,0.0,0.0,0.0,0.0,0.0,0.0,0.0,0.0,0.0,0.0,0.0,0.0,0.0,0.0,0.0,0.0,0.0,0.0,0.0,0.0,0.0,0.0,0.0,0.0,0.0,0.0,0.0,0.0,0.0,0.0,0.0,-4.0779,-4.4052,-4.4798,-4.2794,-3.9194,-3.5517,0.0,0.0,0.0,0.0,0.0,0.0,0.0,0.0,0.0,0.0,0.0,0.0,0.0,0.0,0.0,0.0,0.0,0.0,0.0,0.0,0.0,0.0,0.0,0.0,0.0,0.0,0.0,0.0,0.0,0.0,0.0,0.0,0.0,0.0,0.0,0.0,0.0,0.0,0.0,0.0,0.0,0.0,0.0,0.0,0.0,0.0,0.0,0.0,0.0,0.0,0.0,0.0,0.0,0.0,0.0,0.0,0.0,0.0,0.0,0.0,0.0,0.0,0.0,0.0,0.0,0.0,0.0,0.0,0.0,0.0,0.0,0.0,0.0,0.0,0.0,0.0,0.0,0.0,0.0,0.0,0.0,0.0,0.0,0.0,0.0,0.0,0.0,0.0,0.0,0.0,0.0,0.0,0.0,0.0,0.0,0.0,0.0,0.0,0.0,0.0,0.0,0.0,0.0,0.0,0.0,0.0,0.0,0.0,0.0,-4.1732,-4.4423,-4.517,-4.3624,-3.958,-3.6334,0.0,0.0,0.0,0.0,0.0,0.0,0.0,0.0,0.0,0.0,0.0,0.0,0.0,0.0,0.0,0.0,0.0,0.0,0.0,0.0,0.0,0.0,0.0,0.0,0.0,0.0,0.0,0.0,0.0,0.0,0.0,0.0,0.0,0.0,0.0,0.0,0.0,0.0,0.0,0.0,0.0,0.0,0.0,0.0,0.0,0.0,0.0,0.0,0.0,0.0,0.0,0.0,0.0,0.0,0.0,0.0,0.0,0.0,0.0,0.0,0.0,0.0,0.0,0.0,0.0,0.0,0.0,0.0,0.0,0.0,0.0,0.0,0.0,0.0,0.0,0.0,0.0,0.0,0.0,0.0,0.0,0.0,0.0,0.0,0.0,0.0,0.0,0.0,0.0,0.0,0.0,0.0,0.0,0.0,0.0,0.0,0.0,0.0,0.0,0.0,0.0,0.0,0.0,0.0,0.0,0.0,0.0,0.0,-4.1271,-4.2495,-4.4703,-4.5498,-4.4789,-4.1123,-3.8063,0.0,0.0,0.0,0.0,0.0,0.0,0.0,0.0,0.0,0.0,0.0,0.0,0.0,0.0,0.0,0.0,0.0,0.0,0.0,0.0,0.0,0.0,0.0,0.0,0.0,0.0,0.0,0.0,0.0,0.0,0.0,0.0,0.0,0.0,0.0,0.0,0.0,0.0,0.0,0.0,0.0,0.0,0.0,0.0,0.0,0.0,0.0,0.0,0.0,0.0,0.0,0.0,0.0,0.0,0.0,0.0,0.0,0.0,0.0,0.0,0.0,0.0,0.0,0.0,0.0,0.0,0.0,0.0,0.0,0.0,0.0,0.0,0.0,0.0,0.0,0.0,0.0,0.0,0.0,0.0,0.0,0.0,0.0,0.0,0.0,0.0,0.0,0.0,0.0,0.0,0.0,0.0,0.0,0.0,0.0,0.0,0.0,0.0,0.0,0.0,0.0,0.0,0.0,0.0,0.0,0.0,0.0,0.0,-4.1218,-4.3153,-4.4812,-4.5686,-4.565,-4.3016,-4.0114,0.0,0.0,0.0,0.0,0.0,0.0,0.0,0.0,0.0,0.0,0.0,0.0,0.0,0.0,0.0,0.0,0.0,0.0,0.0,0.0,0.0,0.0,0.0,0.0,0.0,0.0,0.0,0.0,0.0,0.0,0.0,0.0,0.0,0.0,0.0,0.0,0.0,0.0,0.0,0.0,0.0,0.0,0.0,0.0,0.0,0.0,0.0,0.0,0.0,0.0,0.0,0.0,0.0,0.0,0.0,0.0,0.0,0.0,0.0,0.0,0.0,0.0,0.0,0.0,0.0,0.0,0.0,0.0,0.0,0.0,0.0,0.0,0.0,0.0,0.0,0.0,0.0,0.0,0.0,0.0,0.0,0.0,0.0,0.0,0.0,0.0,0.0,0.0,0.0,0.0,0.0,0.0,0.0,0.0,0.0,0.0,0.0,0.0,0.0,0.0,0.0,0.0,0.0,0.0,0.0,0.0,0.0,0.0,-4.0546,-4.3128,-4.4226,-4.4939,-4.5227,-4.3118,-4.0757,0.0,0.0,0.0,0.0,0.0,0.0,0.0,0.0,0.0,0.0,0.0,0.0,0.0,0.0,0.0,0.0,0.0,0.0,0.0,0.0,0.0,0.0,0.0,0.0,0.0,0.0,0.0,0.0,0.0,0.0,0.0,0.0,0.0,0.0,0.0,0.0,0.0,0.0,0.0,0.0,0.0,0.0,0.0,0.0,0.0,0.0,0.0,0.0,-3.6079,0.0,0.0,0.0,0.0,0.0,0.0,0.0,0.0,0.0,0.0,0.0,0.0,0.0,0.0,0.0,0.0,0.0,0.0,0.0,0.0,0.0,0.0,0.0,0.0,0.0,0.0,0.0,0.0,0.0,0.0,0.0,0.0,0.0,0.0,0.0,0.0,0.0,0.0,0.0,0.0,0.0,0.0,0.0,0.0,0.0,0.0,0.0,0.0,0.0,0.0,0.0,0.0,0.0,0.0,0.0,0.0,0.0,0.0,0.0,-4.02,-4.3052,-4.3824,-4.4479,-4.502,-4.3744,-4.1484,0.0,0.0,0.0,0.0,0.0,0.0,0.0,0.0,0.0,0.0,0.0,0.0,0.0,0.0,0.0,0.0,0.0,0.0,0.0,0.0,0.0,0.0,0.0,0.0,0.0,0.0,0.0,0.0,0.0,0.0,0.0,0.0,0.0,0.0,0.0,0.0,0.0,0.0,0.0,0.0,0.0,0.0,0.0,0.0,0.0,0.0,0.0,0.0,0.0,0.0,0.0,0.0,0.0,0.0,0.0,0.0,0.0,0.0,0.0,0.0,0.0,0.0,0.0,0.0,0.0,0.0,0.0,0.0,0.0,0.0,0.0,0.0,0.0,0.0,0.0,0.0,0.0,0.0,0.0,0.0,0.0,0.0,0.0,0.0,0.0,0.0,0.0,0.0,0.0,0.0,0.0,0.0,0.0,0.0,0.0,0.0,0.0,0.0,0.0,0.0,0.0,0.0,0.0,0.0,0.0,0.0,0.0,-3.7964,-3.9773,-4.2691,-4.333,-4.3986,-4.476,-4.4224,-4.2018,-3.8189,0.0,0.0,0.0,0.0,0.0,0.0,0.0,0.0,0.0,0.0,0.0,0.0,0.0,0.0,0.0,0.0,0.0,0.0,0.0,0.0,0.0,0.0,0.0,0.0,0.0,0.0,0.0,0.0,0.0,0.0,0.0,0.0,0.0,0.0,0.0,0.0,0.0,0.0,-2.9986,-3.5478,0.0,0.0,0.0,0.0,0.0,0.0,0.0,0.0,-4.0212,0.0,0.0,0.0,0.0,0.0,0.0,0.0,0.0,0.0,0.0,0.0,0.0,0.0,0.0,0.0,0.0,0.0,0.0,0.0,0.0,0.0,0.0,0.0,0.0,0.0,0.0,0.0,0.0,0.0,0.0,0.0,0.0,0.0,0.0,0.0,0.0,0.0,0.0,0.0,0.0,0.0,0.0,0.0,0.0,0.0,0.0,0.0,0.0,0.0,0.0,0.0,0.0,0.0,0.0,0.0,0.0,-3.7748,-3.7551,-3.8759,-4.1514,-4.2333,-4.3003,-4.3555,-4.3423,-4.1791,-3.8613,0.0,0.0,0.0,0.0,0.0,0.0,0.0,0.0,0.0,0.0,0.0,0.0,0.0,0.0,0.0,0.0,0.0,0.0,0.0,0.0,0.0,0.0,0.0,0.0,0.0,0.0,0.0,0.0,0.0,0.0,0.0,0.0,0.0,0.0,0.0,0.0,0.0,0.0,0.0,-3.967,-4.2921,0.0,0.0,0.0,0.0,0.0,0.0,0.0,0.0,-4.0351,0.0,0.0,0.0,0.0,0.0,0.0,0.0,0.0,0.0,0.0,0.0,0.0,0.0,0.0,0.0,0.0,0.0,0.0,0.0,0.0,0.0,0.0,0.0,0.0,0.0,0.0,0.0,0.0,0.0,0.0,0.0,0.0,0.0,0.0,0.0,0.0,0.0,0.0,0.0,0.0,0.0,0.0,0.0,0.0,0.0,0.0,0.0,0.0,0.0,0.0,0.0,0.0,0.0,0.0,0.0,-3.7631,-3.7492,-3.8895,-4.2204,-4.2529,-4.298,-4.3624,-4.3056,-4.1595,0.0,0.0,0.0,0.0,0.0,0.0,0.0,0.0,0.0,0.0,0.0,0.0,0.0,0.0,0.0,0.0,0.0,0.0,0.0,0.0,0.0,0.0,0.0,0.0,0.0,0.0,0.0,0.0,0.0,0.0,0.0,0.0,0.0,0.0,0.0,0.0,0.0,0.0,0.0,0.0,-4.0493,-4.3204,-4.4158,0.0,0.0,0.0,0.0,0.0,0.0,-4.1509,-4.1288,0.0,0.0,0.0,0.0,0.0,0.0,0.0,0.0,0.0,0.0,0.0,0.0,0.0,0.0,0.0,0.0,0.0,0.0,0.0,0.0,0.0,0.0,0.0,0.0,0.0,0.0,0.0,0.0,0.0,0.0,0.0,0.0,0.0,0.0,0.0,0.0,0.0,0.0,0.0,0.0,0.0,0.0,0.0,0.0,0.0,0.0,0.0,0.0,0.0,0.0,0.0,0.0,0.0,0.0,0.0,-3.7498,-3.7579,-3.9305,-4.2765,-4.2866,-4.3051,-4.3528,-4.2671,-4.1305,0.0,0.0,0.0,0.0,0.0,0.0,0.0,0.0,0.0,0.0,0.0,0.0,0.0,0.0,0.0,0.0,0.0,0.0,0.0,0.0,0.0,0.0,0.0,0.0,0.0,0.0,0.0,0.0,0.0,0.0,0.0,0.0,0.0,0.0,0.0,0.0,0.0,0.0,0.0,0.0,0.0,-4.3659,-4.4792,-4.5357,0.0,0.0,0.0,0.0,-4.1206,-4.2174,0.0,0.0,0.0,0.0,0.0,0.0,0.0,0.0,0.0,0.0,0.0,0.0,0.0,0.0,0.0,0.0,0.0,0.0,0.0,0.0,0.0,0.0,0.0,0.0,0.0,0.0,0.0,0.0,0.0,0.0,0.0,0.0,0.0,0.0,0.0,0.0,0.0,0.0,0.0,0.0,0.0,0.0,0.0,0.0,0.0,0.0,0.0,0.0,0.0,0.0,0.0,0.0,0.0,0.0,0.0,0.0,-3.683,-3.7833,-3.9416,-4.1698,-4.2441,-4.2582,-4.2158,-4.1965,-4.0895,0.0,0.0,0.0,0.0,0.0,0.0,0.0,0.0,0.0,0.0,0.0,0.0,0.0,0.0,0.0,0.0,0.0,0.0,0.0,0.0,0.0,0.0,0.0,0.0,0.0,0.0,0.0,0.0,0.0,0.0,0.0,0.0,0.0,0.0,0.0,0.0,0.0,0.0,0.0,0.0,0.0,-4.6585,-4.4451,-4.6072,-4.6527,0.0,0.0,-4.2382,-4.1707,-4.2509,0.0,0.0,0.0,0.0,0.0,0.0,0.0,0.0,0.0,0.0,0.0,0.0,0.0,0.0,0.0,0.0,0.0,0.0,0.0,0.0,0.0,0.0,0.0,0.0,0.0,0.0,0.0,0.0,0.0,0.0,0.0,0.0,0.0,0.0,0.0,0.0,0.0,0.0,0.0,0.0,0.0,0.0,0.0,0.0,0.0,0.0,0.0,0.0,0.0,0.0,0.0,0.0,0.0,0.0,0.0,-3.485,-3.8002,-3.8742,-4.0093,-4.215,-4.2553,-4.245,-4.1854,-4.138,-4.0373,0.0,0.0,0.0,0.0,0.0,0.0,0.0,0.0,0.0,0.0,0.0,0.0,0.0,0.0,0.0,0.0,0.0,0.0,0.0,0.0,0.0,0.0,0.0,0.0,0.0,0.0,0.0,0.0,0.0,0.0,0.0,0.0,0.0,0.0,0.0,0.0,0.0,0.0,0.0,0.0,0.0,0.0,-4.5171,-4.6736,0.0,0.0,0.0,-4.3109,-4.2065,0.0,0.0,0.0,0.0,0.0,0.0,0.0,0.0,0.0,0.0,0.0,0.0,0.0,0.0,0.0,0.0,0.0,0.0,0.0,0.0,0.0,0.0,0.0,0.0,0.0,0.0,0.0,0.0,0.0,0.0,0.0,0.0,0.0,0.0,0.0,0.0,0.0,0.0,0.0,0.0,0.0,0.0,0.0,0.0,0.0,0.0,0.0,0.0,0.0,0.0,0.0,0.0,0.0,0.0,0.0,0.0,0.0,-3.8901,-3.962,-4.0872,-4.2656,-4.2767,-4.2341,-4.1578,-4.0813,0.0,0.0,0.0,0.0,0.0,0.0,0.0,0.0,0.0,0.0,0.0,0.0,0.0,0.0,0.0,0.0,0.0,0.0,0.0,0.0,0.0,0.0,0.0,0.0,0.0,0.0,0.0,-2.143,0.0,0.0,0.0,0.0,0.0,0.0,0.0,0.0,0.0,0.0,0.0,0.0,0.0,0.0,-4.4986,-4.5333,-4.6537,-4.7052,0.0,0.0,-4.3243,-4.2267,-4.1955,-4.0788,0.0,0.0,0.0,0.0,0.0,0.0,0.0,0.0,0.0,0.0,0.0,0.0,0.0,0.0,0.0,0.0,0.0,0.0,0.0,0.0,0.0,0.0,0.0,0.0,0.0,0.0,0.0,0.0,0.0,0.0,0.0,0.0,0.0,0.0,0.0,0.0,0.0,0.0,0.0,0.0,0.0,0.0,0.0,0.0,0.0,0.0,0.0,0.0,0.0,0.0,0.0,0.0,0.0,0.0,-3.5882,-3.8643,-4.019,-4.153,-4.2837,-4.2916,-4.23,-4.1013,-4.0221,-3.9256,0.0,0.0,0.0,0.0,0.0,0.0,0.0,0.0,0.0,0.0,0.0,0.0,0.0,0.0,0.0,0.0,0.0,0.0,0.0,0.0,0.0,0.0,0.0,0.0,0.0,0.0,0.0,0.0,0.0,0.0,0.0,0.0,0.0,0.0,0.0,0.0,0.0,0.0,0.0,0.0,0.0,-4.4946,-4.4079,-4.4843,-4.5435,0.0,-4.3518,-4.2185,-4.2102,-4.1606,-4.0458,-3.8139,0.0,0.0,0.0,0.0,0.0,0.0,0.0,0.0,0.0,0.0,0.0,0.0,0.0,0.0,0.0,0.0,0.0,0.0,0.0,0.0,0.0,0.0,0.0,0.0,0.0,0.0,0.0,0.0,0.0,0.0,0.0,0.0,0.0,0.0,0.0,0.0,0.0,0.0,0.0,0.0,0.0,0.0,0.0,0.0,0.0,0.0,0.0,0.0,0.0,0.0,0.0,0.0,0.0,-3.7041,-3.9344,-4.0886,-4.1916,-4.2393,-4.2411,-4.1782,-4.0434,-3.9699,-3.8635,0.0,0.0,0.0,0.0,0.0,0.0,0.0,0.0,0.0,0.0,0.0,0.0,0.0,0.0,0.0,0.0,0.0,0.0,0.0,0.0,0.0,0.0,0.0,0.0,0.0,0.0,0.0,0.0,-2.5209,-2.6024,-2.732,0.0,0.0,0.0,0.0,0.0,0.0,0.0,0.0,0.0,0.0,-4.4254,-4.3422,-4.4152,0.0,0.0,-4.3268,-4.2211,-4.2211,-4.1239,-3.9852,-3.8215,-3.7086,0.0,0.0,0.0,0.0,0.0,0.0,0.0,0.0,0.0,0.0,0.0,0.0,0.0,0.0,0.0,0.0,0.0,0.0,0.0,0.0,0.0,0.0,0.0,0.0,0.0,0.0,0.0,0.0,0.0,0.0,0.0,0.0,0.0,0.0,0.0,0.0,0.0,0.0,0.0,0.0,0.0,0.0,0.0,0.0,0.0,0.0,0.0,0.0,0.0,0.0,0.0,0.0,-3.7921,-4.0208,-4.1235,-4.1784,-4.1835,-4.1597,-4.0778,-3.9454,-3.8485,-3.7403,0.0,0.0,0.0,0.0,0.0,0.0,0.0,0.0,0.0,0.0,0.0,0.0,0.0,0.0,0.0,0.0,0.0,0.0,0.0,0.0,0.0,0.0,0.0,0.0,0.0,0.0,0.0,0.0,-2.744,-2.8051,-2.8803,0.0,0.0,0.0,0.0,0.0,0.0,0.0,0.0,0.0,0.0,-4.3311,-4.2783,-4.3193,-4.3561,-4.3734,-4.2569,-4.1694,-4.1931,-4.0458,-3.9043,-3.8106,0.0,0.0,0.0,0.0,0.0,0.0,0.0,0.0,0.0,0.0,0.0,0.0,0.0,0.0,0.0,0.0,0.0,0.0,0.0,0.0,0.0,0.0,0.0,0.0,0.0,0.0,0.0,-3.6624,0.0,0.0,-3.3315,0.0,0.0,0.0,0.0,0.0,0.0,0.0,0.0,0.0,0.0,0.0,0.0,0.0,0.0,0.0,0.0,0.0,0.0,0.0,0.0,0.0,0.0,-3.821,-4.1085,-4.1028,-4.109,-4.118,-4.0394,-3.9301,-3.7911,-3.6517,-3.5428,-3.4727,0.0,0.0,0.0,0.0,0.0,0.0,0.0,0.0,0.0,0.0,0.0,0.0,0.0,0.0,0.0,0.0,0.0,0.0,0.0,0.0,0.0,0.0,0.0,0.0,0.0,0.0,-2.9867,-3.0275,-3.0226,0.0,0.0,0.0,0.0,0.0,0.0,0.0,0.0,0.0,-4.0493,-4.1468,-4.2168,-4.2116,-4.1663,-4.1594,-4.2255,-4.1085,-4.0392,-4.1084,-3.9319,-3.7838,0.0,0.0,0.0,0.0,0.0,0.0,0.0,0.0,0.0,0.0,0.0,0.0,0.0,0.0,0.0,0.0,0.0,0.0,0.0,0.0,0.0,0.0,0.0,0.0,0.0,0.0,0.0,-3.7985,-3.6092,0.0,0.0,0.0,0.0,0.0,0.0,0.0,0.0,0.0,0.0,0.0,-3.7044,-3.7665,0.0,0.0,0.0,0.0,0.0,0.0,0.0,0.0,0.0,0.0,0.0,0.0,-3.7684,-3.9561,-3.9658,-3.9596,-3.9671,-3.9376,-3.8809,-3.7838,-3.643,-3.4558,-3.2049,0.0,0.0,0.0,0.0,0.0,0.0,0.0,0.0,0.0,0.0,0.0,0.0,0.0,0.0,0.0,0.0,0.0,0.0,0.0,0.0,0.0,0.0,0.0,0.0,0.0,-3.111,0.0,0.0,0.0,0.0,0.0,0.0,0.0,0.0,0.0,0.0,-3.944,-4.0185,-4.0722,-4.1619,-4.1903,-4.0897,-4.0624,-4.0529,0.0,0.0,0.0,0.0,0.0,0.0,0.0,0.0,0.0,0.0,0.0,0.0,0.0,-3.9694,-4.0377,-3.9176,-3.8791,-3.9052,-4.0186,0.0,0.0,0.0,0.0,0.0,0.0,0.0,0.0,0.0,0.0,0.0,0.0,0.0,0.0,-3.8316,-3.6398,-3.6331,0.0,0.0,0.0,0.0,0.0,0.0,0.0,0.0,-3.7247,-3.7335,-3.7338,-3.772,-3.7705,-3.7397,-3.7623,-3.7633,0.0,0.0,0.0,0.0,0.0,0.0,0.0,0.0,-3.7669,-3.8821,-3.8579,-3.8486,-3.8486,-3.8182,-3.7635,-3.6635,-3.507,-3.2889,-3.0022,-2.923,-2.8388,0.0,0.0,0.0,0.0,0.0,0.0,0.0,0.0,0.0,0.0,0.0,0.0,0.0,0.0,0.0,0.0,0.0,0.0,0.0,0.0,0.0,0.0,0.0,-3.2191,0.0,0.0,0.0,0.0,0.0,0.0,0.0,0.0,0.0,-3.8875,-3.9207,-3.9625,-4.0458,-4.0863,-4.0752,-3.9796,0.0,0.0,0.0,0.0,0.0,0.0,0.0,-3.7312,-3.7342,-3.711,-3.7061,-3.7545,-3.887,-3.9488,-3.8537,0.0,0.0,-3.9383,-3.9407,-3.9642,-4.0342,-4.0683,-4.0883,-4.1087,-4.0985,-4.0663,0.0,0.0,0.0,0.0,-4.0121,0.0,0.0,0.0,-3.8865,-3.839,0.0,-3.6172,0.0,0.0,0.0,0.0,-3.5838,-3.7769,0.0,0.0,-3.8405,-3.8062,-3.6677,-3.6646,-3.6693,-3.6708,-3.7375,-3.8074,-3.8767,-3.7403,0.0,0.0,0.0,0.0,0.0,0.0,-3.8093,-3.8728,-3.7878,-3.7528,-3.7528,-3.6768,-3.5738,-3.4442,-3.2482,-3.0612,-2.8786,-2.9214,-2.8607,-2.6797,-2.8457,0.0,0.0,0.0,0.0,0.0,0.0,0.0,0.0,0.0,0.0,0.0,0.0,0.0,0.0,0.0,0.0,0.0,0.0,0.0,0.0,-3.1728,0.0,0.0,0.0,0.0,0.0,0.0,0.0,0.0,0.0,-3.6883,-3.7626,-3.778,-3.8293,-3.9663,0.0,0.0,0.0,0.0,-3.858,-3.7879,-3.7764,-3.7706,-3.7706,-3.704,-3.6569,-3.6554,0.0,0.0,-3.5579,-3.712,-3.8042,-3.6776,-3.7629,-3.8766,-3.9933,-4.0272,-4.0641,-4.0954,-4.0552,-4.0832,-4.2347,-4.1376,-4.0206,-4.4502,0.0,0.0,0.0,0.0,-3.9723,-3.9335,-3.95,-3.8435,-3.7514,-3.6819,-3.591,0.0,0.0,0.0,0.0,0.0,0.0,-3.7137,-3.6951,-3.7141,-3.6968,-3.6572,-3.701,-3.7521,-3.8072,-3.7762,-3.8072,-3.8785,-3.7367,-3.7038,-3.7798,0.0,0.0,0.0,0.0,-3.651,-3.7156,-3.5797,-3.5016,-3.5082,-3.4203,-3.3425,-3.278,-3.0904,-2.9736,-2.9325,-2.8562,-2.8113,-2.8023,-2.7615,0.0,0.0,0.0,0.0,0.0,0.0,0.0,0.0,0.0,0.0,0.0,0.0,0.0,0.0,0.0,0.0,0.0,0.0,0.0,-3.2971,-3.2974,-3.333,0.0,0.0,0.0,0.0,0.0,0.0,0.0,0.0,0.0,-3.6758,-3.7838,-3.8547,0.0,0.0,-3.8698,-3.8214,-3.76,-3.7188,-3.6964,-3.6461,0.0,-3.6133,-3.5958,-3.5831,-3.5831,-3.5994,-3.6342,-3.6791,-3.733,-3.7569,-3.718,-3.7434,-3.7689,-3.7623,-3.8601,-3.953,-4.0172,-4.0584,-4.0832,-4.09,-4.0832,-4.0713,-4.455,-4.319,-4.2068,-4.1457,-4.1084,-3.9578,-3.8958,-3.8934,-3.7716,-3.6929,-3.6432,-3.5804,-3.5205,-3.473,-3.517,0.0,0.0,0.0,-3.66,-3.6569,-3.6239,-3.6103,-3.6118,-3.6492,-3.6893,-3.7357,-3.696,-3.7188,-3.7923,-3.6786,-3.6535,-3.7263,0.0,-3.6679,-3.671,-3.5947,-3.5475,-3.5263,-3.3971,-3.313,-3.2794,-3.1997,-3.1455,-3.1239,-2.9742,-2.8797,-2.8637,-2.769,-2.721,-2.7302,-2.678,-2.6035,0.0,0.0,0.0,0.0,0.0,0.0,0.0,0.0,0.0,0.0,0.0,-2.6691,-2.6024,0.0,0.0,0.0,-3.0055,-3.1941,-3.3528,-3.3321,0.0,0.0,0.0,0.0,0.0,0.0,0.0,-3.6507,-3.5943,-3.5639,-3.6043,-3.6982,-3.762,-3.7705,-3.7859,-3.7745,-3.7022,0.0,-3.5998,-3.5447,-3.4967,-3.4801,-3.5055,-3.51,-3.519,-3.5459,-3.5818,-3.6193,-3.6567,-3.6866,-3.6941,-3.6761,-3.6866,-3.6836,-3.6207,-3.7202,-3.8257,-3.9008,-3.9984,-4.0572,-4.0138,-4.046,-4.0612,-4.3071,-4.3025,-4.2409,-4.1738,-4.0925,-3.9417,-3.839,-3.7711,-3.689,-3.6484,-3.6432,-3.5789,-3.5848,-3.6424,-3.6503,0.0,-3.6492,-3.6508,-3.6492,-3.6492,-3.5782,-3.5489,-3.5489,-3.5459,-3.5429,-3.5429,-3.537,-3.5664,-3.6261,-3.5664,-3.5664,-3.6338,-3.6338,-3.6391,-3.6499,-3.5692,-3.4622,-3.3259,-3.2431,-3.1622,-3.0784,-3.0138,-2.9835,-2.9886,-2.8685,-2.7759,-2.7221,-2.663,-2.6021,-2.5467,-2.5923,-2.5608,-2.4323,0.0,0.0,0.0,0.0,0.0,0.0,0.0,0.0,0.0,0.0,0.0,0.0,0.0,0.0,-2.9376,-3.0689,0.0,-3.2542,-3.3123,0.0,0.0,0.0,-3.4628,-3.5369,-3.5422,-3.5638,-3.643,0.0,0.0,-3.5429,-3.535,-3.5789,-3.7075,-3.6785,-3.6245,-3.5625,-3.5428,-3.4957,-3.3649,-3.333,-3.3523,-3.3962,-3.4051,-3.4228,-3.4762,-3.5145,-3.5035,-3.516,-3.5627,-3.5842,-3.5444,-3.5878,-3.6103,-3.5459,-3.6165,-3.7029,-3.7398,-3.8811,-3.9964,-3.9816,-3.9851,-3.9834,-4.3071,-4.296,-4.1197,-4.0388,-4.0011,-3.7991,-3.7306,-3.753,-3.6283,-3.6045,-3.6447,-3.5789,-3.5594,-3.5729,-3.5744,-3.5797,-3.5782,-3.5782,-3.5782,-3.5733,-3.5569,-3.5489,-3.5474,-3.4966,-3.4726,-3.4696,-3.4218,-3.4072,-3.4242,-3.4087,-3.4087,-3.4242,-3.4242,-3.4531,-3.4957,-3.3687,-3.2845,-3.2431,-3.0918,-2.9731,-2.8828,-2.8228,-2.8265,-2.8812,-2.7317,-2.6668,-2.7193,-2.6171,-2.555,-2.5412,-2.5043,-2.4443,-2.3632,-2.3522,0.0,0.0,0.0,0.0,0.0,0.0,0.0,0.0,0.0,-2.8371,-2.6612,0.0,-3.1094,0.0,-3.1146,-3.2627,-3.3536,-3.3369,0.0,0.0,-3.2931,-3.3428,-3.4303,-3.4345,-3.4728,-3.5653,-3.4957,-3.442,-3.4707,-3.4103,-3.3806,-3.4134,-3.5076,-3.5525,-3.4876,-3.4193,-3.3495,-3.2655,-3.1969,-3.165,-3.1857,-3.182,-3.1957,-3.2033,-3.2061,-3.2259,-3.289,-3.3121,-3.3387,-3.3883,-3.4502,-3.4651,-3.4143,-3.4984,-3.5539,-3.5354,-3.7148,-3.8811,-3.8487,-3.8344,-3.8351,-4.1252,-4.0847,-3.943,-3.8618,-3.8261,-3.7126,-3.7001,-3.7557,-3.6125,-3.5714,-3.6013,-3.5654,-3.5489,-3.5489,-3.5489,-3.534,-3.507,-3.537,-3.519,-3.4637,-3.4906,-3.4891,-3.4607,-3.4218,-3.3888,-3.3604,-3.3514,-3.335,-3.308,-3.335,-3.3499,-3.3484,-3.2773,-3.2679,-3.2989,-3.1951,-3.1182,-3.0661,-2.8559,-2.712,-2.6404,-2.5913,-2.6092,-2.7105,-2.5615,-2.5154,-2.6118,-2.4991,-2.4381,-2.4381,-2.3989,-2.3612,-2.3302,-2.2959,-2.2611,0.0,0.0,0.0,0.0,0.0,0.0,0.0,0.0,0.0,0.0,0.0,-3.0573,-3.0077,-3.0821,-3.184,-3.321,-3.3083,-3.282,-3.2636,-3.2593,-3.2806,-3.331,-3.338,-3.3602,-3.4124,-3.3511,-3.3129,-3.3266,-3.2663,-3.2146,-3.2146,-3.2924,-3.3369,-3.2876,-3.2233,-3.1559,-3.0899,-3.0387,-3.0238,-3.0474,-3.0832,-3.1013,-3.1013,-3.1013,-3.118,-3.1639,-3.2032,-3.2387,-3.2972,-3.3589,-3.3933,-3.3604,-3.4057,-3.4363,-3.4,-3.4526,-3.5729,-3.6727,-3.7176,-3.7433,-3.902,-3.8332,-3.7689,-3.7113,-3.6601,-3.6427,-3.6781,-3.7413,-3.6085,-3.5489,-3.5489,-3.5415,-3.5385,-3.537,-3.537,-3.4996,-3.4412,-3.4981,-3.4622,-3.3544,-3.4083,-3.4053,-3.3499,-3.332,-3.2946,-3.2437,-3.2796,-3.2736,-3.2273,-3.2706,-3.3034,-3.3002,-3.166,-3.0845,-3.0754,-3.0107,-2.9281,-2.8245,-2.5987,-2.4557,-2.4153,-2.375,-2.4169,-2.5356,-2.4058,-2.3767,-2.473,-2.3803,-2.3178,-2.319,-2.3253,-2.3253,-2.3251,-2.2786,-2.2711,0.0,-2.3125,0.0,0.0,0.0,0.0,0.0,0.0,0.0,0.0,-2.9008,-2.9582,-3.0715,-3.0397,-3.0636,-3.2217,-3.2352,-3.2393,-3.2249,-3.2249,-3.2294,-3.2297,-3.2341,-3.2327,-3.2386,-3.1903,-3.1488,-3.1556,-3.1059,-3.0673,-3.066,-3.0547,-3.0439,-3.0254,-3.0019,-2.9711,-2.8958,-2.8748,-2.879,-2.9302,-2.9857,-3.009,-3.0184,-2.9953,-3.0345,-3.0506,-3.1051,-3.1652,-3.2154,-3.2751,-3.3155,-3.314,-3.3276,-3.3306,-3.2616,-3.2138,-3.2626,-3.4739,-3.5828,-3.6519,-3.9005,-3.8332,-3.7689,-3.7404,-3.7244,-3.5639,-3.5284,-3.591,-3.5619,-3.5489,-3.5459,-3.4921,-3.4681,-3.4666,-3.4666,-3.4307,-3.3694,-3.3799,-3.3739,-3.3499,-3.3619,-3.3619,-3.3425,-3.2407,-3.1839,-3.1659,-3.0761,-3.0522,-3.0881,-3.0353,-3.0364,-3.0872,-2.9916,-2.9091,-2.8302,0.0,0.0,0.0,-2.4443,-2.3717,-2.3649,-2.357,-2.4009,-2.5052,-2.3961,0.0,-2.473,-2.418,-2.3841,-2.3841,-2.4255,0.0,0.0,0.0,0.0,0.0,0.0,0.0,0.0,0.0,0.0,0.0,-2.6658,-2.7027,-2.7881,-2.9056,-3.0155,-3.0876,-3.1265,-3.1226,-3.0828,-3.1196,-3.1193,-3.0432,-3.0355,-3.0465,-3.0804,-3.0796,-3.0966,-3.1266,-3.05,-3.005,-3.0196,-2.9591,-2.8985,-2.8878,-2.8252,-2.7604,-2.7365,-2.8249,-2.8679,-2.8053,-2.7419,-2.7053,-2.7114,-2.6966,-2.6984,-2.6578,-2.6244,-2.6566,-2.7768,-2.8144,-2.8978,-3.0478,-3.1435,-3.1719,-3.1225,-3.2367,-3.2819,-3.1297,-3.1237,-3.1879,-3.316,-3.3779,-3.4051,-3.8047,-3.7122,-3.6258,-3.5897,0.0,-3.4366,-3.4268,-3.4981,-3.4651,-3.4517,-3.4472,-3.3672,-3.3368,-3.3368,-3.3368,-3.3015,-3.2411,-3.3136,-3.314,-3.2527,-3.2527,-3.2332,-3.1988,-3.0628,-2.9837,-2.9471,-2.8824,-2.8481,-2.8468,-2.8651,-2.8941,-2.9252,-2.8661,-2.788,-2.6992,-2.4626,-2.3338,-2.3145,-2.2878,-2.2671,-2.2373,-2.2174,-2.2906,-2.4453,-2.3582,0.0,0.0,0.0,0.0,0.0,0.0,0.0,0.0,-2.3728,0.0,-2.3552,-2.3565,-2.369,-2.3991,-2.4506,-2.4946,-2.5222,-2.5498,-2.6063,-2.7056,-2.8199,-2.8932,-2.9169,-2.9432,-2.9526,-2.9267,-2.9551,-2.9497,-2.9026,-2.8963,-2.9049,-2.9224,-2.9305,-2.932,-2.9434,-2.8864,-2.8417,-2.8318,-2.7902,-2.7237,-2.6773,-2.6451,-2.6101,-2.5782,-2.6251,-2.662,-2.6348,-2.6489,-2.6319,-2.5774,-2.5699,-2.5473,-2.5259,-2.4996,-2.5318,-2.6499,-2.7,-2.775,-2.9296,-3.0118,-3.0432,-3.0208,-3.091,-3.1263,-3.0393,-3.0318,-3.0694,-3.1222,-3.1919,-3.2616,-3.6806,-3.5741,-3.4682,-3.4054,-3.3811,-3.3221,-3.3302,-3.3918,-3.3514,0.0,0.0,-3.2373,-3.1968,-3.184,-3.184,-3.1559,-3.1094,-3.2237,-3.2258,-3.1302,-3.124,-3.0824,-3.0075,-2.8822,-2.7921,-2.7295,-2.7073,-2.6771,-2.6465,-2.7258,-2.7721,-2.7797,-2.7482,-2.678,-2.5689,-2.2827,-2.124,-2.1112,-2.1466,-2.1476,-2.1084,-2.0762,-2.1635,-2.3742,-2.2889,-2.3259,-2.5227,-2.43,-2.3916,-2.413,-2.3678,-2.3602,-2.3954,-2.354,-2.3452,-2.3816,-2.3841,-2.3678,-2.3265,-2.4155,-2.4519,-2.4167,-2.4416,-2.5103,-2.6226,-2.694,-2.7307,-2.7163,-2.7231,-2.7398,-2.7678,-2.7827,-2.7865,-2.7865,-2.7717,-2.7619,-2.7898,-2.7728,-2.7738,-2.7723,-2.7452,-2.6917,-2.6526,-2.6438,-2.5963,-2.5134,-2.5161,-2.5121,-2.4695,-2.4834,-2.5036,-2.5061,-2.564,-2.5799,-2.5159,-2.5021,-2.5134,-2.4745,-2.4569,-2.482,-2.5679,-2.6311,-2.7087,-2.8263,-2.891,-2.9247,-2.9415,-2.9559,-2.9415,-2.9415,-2.943,-2.9475,-2.9648,-3.0365,-3.1176,-3.5826,-3.5022,-3.4153,-3.3522,-3.3206,-3.2493,-3.2134,-3.1945,-3.2452,-3.2566,-3.2318,-3.1662,-3.0976,-3.0285,-3.0285,-3.0348,-3.0369,-3.0042,-3.0162,-3.0612,-3.0103,-2.943,-2.8666,-2.7961,-2.7242,-2.6553,-2.5966,-2.5938,-2.6282,-2.5832,-2.5807,-2.6264,-2.6078,-2.522,-2.3826,-2.1908,-2.0813,-2.0671,-2.0384,-2.0367,-2.0644,-2.0596,-2.1108,-2.2166,-2.1396,-2.2011,-2.4253,-2.3418,-2.3405,-2.4605,-2.4632,-2.4406,-2.4029,-2.3891,-2.3703,-2.3301,-2.3263,-2.3427,-2.3841,-2.4029,-2.4293,-2.4605,-2.4083,-2.4244,-2.5582,-2.5832,-2.6085,-2.6527,-2.6884,-2.6924,-2.6263,-2.6538,-2.6767,-2.6728,-2.6071,-2.6083,-2.7157,-2.6626,-2.6311,-2.6677,-2.664,-2.6364,-2.5837,-2.5724,-2.5485,-2.4895,-2.4456,-2.4054,-2.3766,-2.4217,-2.4757,-2.4833,-2.4933,-2.4983,-2.4732,-2.4443,-2.4293,-2.413,-2.374,-2.3755,-2.4562,-2.4874,-2.5611,-2.7305,-2.7668,-2.7973,-2.8515,-2.8884,-2.8816,-2.8666,-2.8704,-2.8891,-2.922,-2.9275,-2.9124,-3.45,-3.3413,-3.2431,-3.2117,-3.2269,-3.2324,-3.1557,-3.0441,-3.1057,-3.1241,-3.1013,-2.982,-2.908,-2.8781,-2.8768,-2.8814,-2.8911,-2.875,-2.889,-2.9173,-2.831,-2.7696,-2.7187,-2.5911,-2.5135,-2.4703,-2.3774,-2.3576,-2.4129,-2.4059,-2.4343,-2.4858,-2.4329,-2.3676,-2.2972,-2.1009,-2.0096,-2.0185,-2.0019,-2.0127,-2.0557,-2.0576,-2.0968,-2.167,-2.124,-2.1653,-2.3018,-2.2393,-2.2497,-2.3615,-2.3359,-2.333,-2.3478,-2.3251,-2.31,-2.3053,-2.279,-2.2937,-2.3489,-2.3084,-2.2933,-2.3164,-2.2462,-2.2337,-2.325,-2.3601,-2.3994,-2.4505,-2.4802,-2.4826,-2.4553,-2.4796,-2.4934,-2.4934,-2.4498,-2.4557,-2.5022,-2.4891,-2.487,-2.5523,-2.5395,-2.5222,-2.5181,-2.5184,-2.482,-2.4079,-2.3653,-2.3414,-2.3175,-2.3491,-2.3854,-2.3891,-2.4406,-2.4481,-2.3992,-2.4004,-2.3853,-2.3602,-2.3314,-2.3437,-2.4118,-2.4279,-2.4902,-2.6008,-2.6383,-2.6493,-2.6888,-2.7155,-2.7345,-2.7451,-2.6959,-2.7063,-2.7631,-2.7694,-2.7664,-3.3009,-3.1879,-3.0866,-3.0771,-3.1378,-3.1827,-3.1028,-2.9464,-2.9545,-2.9547,-2.9369,-2.8244,-2.7538,-2.7235,-2.7352,-2.7472,-2.7551,-2.7751,-2.7899,-2.7848,-2.6851,-2.624,-2.5764,-2.4139,-2.3326,-2.305,-2.2013,-2.1707,-2.2146,-2.2686,-2.3314,-2.3804,-2.2794,-2.238,-2.2622,-2.0206,-1.9297,-1.9863,-1.9727,-1.9844,-2.033,-2.0273,-2.0476,-2.0885,-2.0814,-2.1129,-2.1771,-2.1274,-2.1404,-2.228,-2.1981,-2.2006,-2.254,-2.2293,-2.2322,-2.2673,-2.2359,-2.2243,-2.2503,-2.1884,-2.1498,-2.1616,-2.0782,-2.0499,-2.0864,-2.1094,-2.1716,-2.2517,-2.2852,-2.2913,-2.3039,-2.3077,-2.3066,-2.3066,-2.2845,-2.2864,-2.3139,-2.3045,-2.3406,-2.4319,-2.4303,-2.4213,-2.4524,-2.4644,-2.4255,-2.3427,-2.3125,-2.3125,-2.3078,-2.3017,-2.2786,-2.2909,-2.3679,-2.3929,-2.3106,-2.3367,-2.3503,-2.3175,-2.3138,-2.3365,-2.3826,-2.4002,-2.4231,-2.4829,-2.512,-2.5232,-2.5246,-2.5535,-2.5849,-2.5987,-2.5379,-2.5034,-2.6002,-2.6355,-2.6617,-3.1461,-3.1198,-3.0318,-3.0199,-3.0756,-3.0732,-3.0201,-2.9276,-2.8071,-2.7373,-2.7277,-2.7564,-2.6998,-2.5975,-2.643,-2.6771,-2.6933,-2.6865,-2.6974,-2.7129,-2.6555,-2.5619,-2.4532,-2.3742,-2.3072,-2.2394,-2.1801,-2.1531,-2.1644,-2.2171,-2.2949,-2.3617,-2.1836,-2.1453,-2.2203,-1.9702,-1.874,-1.9863,-1.915,-1.8965,-1.9375,-1.9404,-1.9458,-1.9482,-1.9108,-1.9545,-2.0801,-2.0037,-2.0149,-2.1327,-2.123,-2.1092,-2.1212,-2.1432,-2.1594,-2.1644,-2.1606,-2.1497,-2.12,-2.0523,-2.0296,-2.0598,-1.9868,-1.9441,-1.9428,-1.8832,-1.9541,-2.1457,-2.2183,-2.1978,-2.1647,-2.1565,-2.1565,-2.1565,-2.0913,-2.0759,-2.1859,-2.1566,-2.1717,-2.3443,-2.3522,-2.3724,-2.4053,-2.4104,-2.3828,-2.3238,-2.3125,-2.3065,-2.2944,-2.2506,-2.1858,-2.1753,-2.2396,-2.2813,-2.2298,-2.2714,-2.3067,-2.3113,-2.3113,-2.316,-2.3267,-2.3314,-2.3344,-2.3695,-2.4089,-2.438,-2.4395,-2.4637,-2.4611,-2.466,-2.4319,-2.4061,-2.4716,-2.5328,-2.5881,-3.0908,-3.0432,-3.0558,-3.094,-3.1358,-3.0778,-2.9606,-2.8119,-2.7857,-2.6956,-2.5884,-2.6575,-2.6642,-2.6194,-2.6364,-2.6409,-2.6101,-2.5781,-2.551,-2.5249,-2.4661,-2.4092,-2.3551,-2.3013,-2.242,-2.1889,-2.1594,-2.1481,-2.1631,-2.2372,-2.2784,-2.2674,-2.1766,-2.1426,-2.1381,-1.9899,-1.9287,-1.9502,-1.8945,-1.8613,-1.8594,-1.9033,-1.917,-1.8916,-1.873,-1.8714,-1.9042,-1.87,-1.888,-1.9673,-1.9676,-1.9754,-2.012,-2.0302,-2.0594,-2.0961,-2.0902,-2.0577,-2.0014,-1.9426,-1.9122,-1.9057,-1.8744,-1.8439,-1.8187,-1.8063,-1.8574,-1.9472,-1.99,-2.0031,-2.0173,-2.0182,-2.0192,-2.0109,-1.9752,-1.9819,-2.0359,-2.0186,-2.0603,-2.2241,-2.2329,-2.2639,-2.3603,-2.369,-2.3414,-2.3103,-2.3065,-2.2944,-2.2519,-2.2075,-2.1409,-2.0493,-2.0986,-2.1564,-2.1521,-2.2161,-2.2668,-2.2927,-2.2849,-2.2698,-2.2952,-2.2799,-2.2652,-2.2744,-2.3212,-2.3289,-2.2695,-2.3031,-2.3204,-2.3272,-2.3741,-2.3678,-2.3558,-2.432,-2.5029,-3.0419,-2.9947,-3.0716,-3.1196,-3.1335,-3.0732,-2.9189,-2.7377,-2.753,-2.6691,-2.5199,-2.5875,-2.6382,-2.6508,-2.6521,-2.6151,-2.5586,-2.5209,-2.4732,-2.4205,-2.3627,-2.3301,-2.3027,-2.241,-2.1882,-2.1518,-2.133,-2.1405,-2.1688,-2.2154,-2.2287,-2.1922,-2.1575,-2.1086,-2.0613,-1.9922,-1.9482,-1.9268,-1.876,-1.8311,-1.8144,-1.8613,-1.8789,-1.8496,-1.8397,-1.832,-1.8027,-1.8008,-1.8061,-1.8263,-1.8311,-1.8542,-1.8908,-1.9004,-1.9309,-1.9715,-1.9542,-1.9136,-1.8733,-1.8224,-1.7843,-1.7647,-1.7641,-1.7588,-1.748,-1.7676,-1.7881,-1.8105,-1.8291,-1.8713,-1.9023,-1.9111,-1.9111,-1.9111,-1.9102,-1.9082,-1.9017,-1.8936,-1.9656,-2.1204,-2.1351,-2.1575,-2.2919,-2.3034,-2.2726,-2.2702,-2.2763,-2.2628,-2.1939,-2.1491,-2.061,-1.9392,-1.9673,-2.0247,-2.0953,-2.1693,-2.2332,-2.2765,-2.2723,-2.2498,-2.2739,-2.241,-2.192,-2.1932,-2.2392,-2.2392,-2.1784,-2.1805,-2.185,-2.1982,-2.2506,-2.2975,-2.2601,-2.3536,-2.4253,-2.9869,-2.9923,-3.0418,-3.0213,-2.9555,-3.0066,-2.9021,-2.695,-2.698,-2.6401,-2.5589,-2.5649,-2.5963,-2.6521,-2.6427,-2.6138,-2.5624,-2.5511,-2.5159,-2.4619,-2.413,-2.3653,-2.3015,-2.2046,-2.1556,-2.1543,-2.1217,-2.1418,-2.2131,-2.1522,-2.1366,-2.1765,-2.0665,-2.0243,-2.0255,-1.9363,-1.8916,-1.9131,-1.8506,-1.8057,-1.8018,-1.8066,-1.8105,-1.8037,-1.8047,-1.8047,-1.8008,-1.8008,-1.787,-1.7458,-1.7716,-1.7674,-1.7419,-1.761,-1.781,-1.7755,-1.7177,-1.6948,-1.7141,-1.6698,-1.6422,-1.6684,-1.685,-1.6973,-1.7227,-1.7353,-1.7568,-1.7959,-1.7998,-1.8213,-1.8594,-1.8672,-1.8592,-1.8662,-1.8672,-1.8496,-1.8154,-1.8203,-1.8869,-2.027,-2.066,-2.1088,-2.1886,-2.1951,-2.1939,-2.1939,-2.1939,-2.1815,-2.1502,-2.0462,-1.9468,-1.8868,-1.8763,-1.9052,-2.037,-2.1272,-2.2104,-2.2541,-2.2483,-2.2297,-2.2121,-2.1895,-2.1393,-2.1129,-2.1556,-2.1518,-2.1008,-2.0693,-2.0592,-2.0824,-2.1511,-2.1799,-2.2021,-2.2905,-2.3659,-3.0139,-3.0667,-3.0082,-2.9981,-3.0161,-2.9289,-2.8112,-2.6929,-2.6788,-2.6349,-2.5794,-2.5988,-2.6264,-2.6521,-2.6063,-2.5611,-2.5134,-2.5109,-2.4619,-2.3803,-2.3527,-2.3339,-2.3053,-2.2698,-2.2347,-2.2071,-2.2159,-2.2129,-2.1922,-2.1308,-2.0719,-2.0268,-2.0009,-1.973,-1.9344,-1.9128,-1.9014,-1.8848,-1.8535,-1.8291,-1.8027,-1.8008,-1.7891,-1.7637,-1.7871,-1.8008,-1.8008,-1.8008,-1.7695,-1.7002,-1.704,-1.6992,-1.6827,-1.73,-1.7357,-1.6922,-1.6652,-1.6394,-1.6115,-1.6088,-1.5996,-1.5928,-1.6373,-1.6641,-1.6611,-1.6807,-1.7148,-1.749,-1.7607,-1.7793,-1.8125,-1.8232,-1.8242,-1.8242,-1.8242,-1.8203,-1.8057,-1.8008,-1.8462,-1.9562,-2.0204,-2.0719,-2.0876,-2.1037,-2.1049,-2.1037,-2.1101,-2.0835,-2.0333,-1.9628,-1.9027,-1.8405,-1.8231,-1.8537,-1.9553,-2.0643,-2.1499,-2.1898,-2.2063,-2.2118,-2.2008,-2.1368,-2.0828,-2.079,-2.1041,-2.0953,-2.0514,-2.0225,-2.0012,-2.0168,-2.0792,-2.1554,-2.1697,-2.2741,-2.3466,-3.0139,-3.0615,-2.9935,-2.9764,-2.9764,-2.8712,-2.7624,-2.6791,-2.67,-2.6383,-2.6017,-2.6289,-2.6521,-2.6402,-2.6038,-2.5473,-2.4845,-2.4644,-2.413,-2.3439,-2.3226,-2.3125,-2.304,-2.2902,-2.2686,-2.2339,-2.2365,-2.2189,-2.183,-2.0943,-2.0076,-1.9386,-1.9421,-1.9243,-1.8762,-1.8936,-1.8916,-1.8662,-1.8506,-1.8281,-1.8037,-1.8008,-1.7803,-1.749,-1.7666,-1.7812,-1.7803,-1.7676,-1.7353,-1.6807,-1.6592,-1.6416,-1.6253,-1.6641,-1.6698,-1.6208,-1.614,-1.5931,-1.5546,-1.5693,-1.5723,-1.5469,-1.5928,-1.6191,-1.6145,-1.6348,-1.6709,-1.7061,-1.7334,-1.7529,-1.7754,-1.793,-1.8008,-1.8008,-1.8008,-1.8008,-1.8008,-1.8008,-1.8395,-1.9145,-1.9652,-1.9909,-1.9962,-1.9962,-1.9951,-1.9973,-1.9973,-1.9673,-1.9388,-1.8977,-1.8721,-1.8144,-1.8046,-1.823,-1.8977,-2.0006,-2.114,-2.1691,-2.1947,-2.1963,-2.1631,-2.0941,-2.0514,-2.0501,-2.0451,-2.0376,-2.0188,-1.9886,-1.985,-1.9901,-2.0706,-2.1649,-2.2132,-2.2756,-2.3363,-2.9792,-2.9756,-2.9999,-2.9186,-2.8205,-2.8161,-2.7588,-2.6483,-2.642,-2.6319,-2.6138,-2.642,-2.6264,-2.6352,-2.6176,-2.5749,-2.4808,-2.428,-2.3991,-2.3791,-2.3351,-2.3138,-2.304,-2.2698,-2.2485,-2.2339,-2.1475,-2.1378,-2.1667,-2.0233,-1.927,-1.9173,-1.8784,-1.8615,-1.8533,-1.8613,-1.8633,-1.8506,-1.8203,-1.8008,-1.7998,-1.7939,-1.7705,-1.7373,-1.7334,-1.7314,-1.7268,-1.6957,-1.6772,-1.668,-1.6348,-1.5889,-1.5566,-1.5584,-1.5468,-1.5526,-1.5468,-1.54,-1.541,-1.5449,-1.542,-1.5303,-1.54,-1.5624,-1.5807,-1.6035,-1.626,-1.6758,-1.7109,-1.7383,-1.75,-1.7726,-1.793,-1.8008,-1.8008,-1.8008,-1.7891,-1.7901,-1.823,-1.868,-1.8633,-1.8553,-1.8532,-1.8458,-1.8478,-1.8615,-1.8562,-1.8578,-1.8742,-1.8307,-1.8008,-1.793,-1.793,-1.8134,-1.8721,-1.942,-2.0546,-2.1513,-2.1777,-2.1837,-2.131,-2.0665,-2.02,-2.01,-2.0112,-2.0037,-2.0049,-1.9798,-1.9798,-1.9991,-2.0939,-2.1649,-2.2086,-2.2606,-2.3275,-2.8597,-2.8445,-2.7489,-2.6792,-2.6403,-2.648,-2.6043,-2.5405,-2.5685,-2.5674,-2.5372,-2.5335,-2.5335,-2.5347,-2.5322,-2.4958,-2.4268,-2.4054,-2.3791,-2.3439,-2.3165,-2.3125,-2.304,-2.2949,-2.2815,-2.2693,-2.18,-2.1158,-2.0773,-1.9501,-1.8647,-1.8375,-1.8272,-1.8203,-1.8232,-1.8203,-1.8213,-1.8164,-1.7783,-1.7715,-1.791,-1.7441,-1.707,-1.6924,-1.6641,-1.6278,-1.5785,-1.6658,-1.6865,-1.6328,-1.6426,-1.6191,-1.5586,-1.542,-1.542,-1.542,-1.542,-1.542,-1.541,-1.5352,-1.5118,-1.4815,-1.505,-1.5107,-1.4915,-1.5358,-1.5977,-1.6592,-1.6875,-1.7119,-1.7619,-1.7269,-1.7285,-1.794,-1.8008,-1.7532,-1.6861,-1.6486,-1.6103,-1.5935,-1.6216,-1.6408,-1.6462,-1.6526,-1.6834,-1.7496,-1.72,-1.6949,-1.7252,-1.7316,-1.707,-1.707,-1.7432,-1.7988,-1.8442,-1.8979,-1.9902,-2.0796,-2.1229,-2.1516,-2.102,-2.0476,-2.0012,-1.9798,-1.9798,-1.9798,-1.9798,-1.9798,-1.9798,-2.0131,-2.0953,-2.1424,-2.1744,-2.2455,-2.326,-2.8084,-2.7968,-2.653,-2.5786,-2.5643,-2.5867,-2.5619,-2.5206,-2.5425,-2.541,-2.5134,-2.4908,-2.4833,-2.487,-2.5021,-2.4808,-2.4343,-2.4305,-2.4004,-2.3477,-2.314,-2.3138,-2.3125,-2.3125,-2.3125,-2.2834,-2.1703,-2.0961,-2.0568,-1.9101,-1.8201,-1.8037,-1.8008,-1.8018,-1.8008,-1.8008,-1.8008,-1.7969,-1.7764,-1.7744,-1.7852,-1.748,-1.6986,-1.6694,-1.6186,-1.5458,-1.4814,-1.5876,-1.6252,-1.5804,-1.6007,-1.5887,-1.5459,-1.542,-1.542,-1.5352,-1.5118,-1.4932,-1.4932,-1.4638,-1.4405,-1.4134,-1.4731,-1.499,-1.4717,-1.5273,-1.6111,-1.6387,-1.6395,-1.6627,-1.6947,-1.6582,-1.6419,-1.6872,-1.6872,-1.6615,-1.5804,-1.5164,-1.4876,-1.4684,-1.472,-1.4959,-1.5169,-1.4914,-1.5259,-1.6048,-1.5749,-1.5355,-1.5824,-1.6399,-1.6444,-1.6711,-1.7233,-1.7687,-1.8007,-1.8637,-1.9339,-1.9973,-2.0521,-2.0872,-2.0815,-2.0288,-1.9798,-1.9798,-1.9798,-1.9798,-1.9798,-1.9798,-1.985,-2.0421,-2.1002,-2.1568,-2.2132,-2.2846,-2.3551,-2.8004,-2.7855,-2.6707,-2.5782,-2.5433,-2.5888,-2.5739,-2.5318,-2.5424,-2.5286,-2.5165,-2.4705,-2.4619,-2.4782,-2.5021,-2.4958,-2.477,-2.4745,-2.4368,-2.3841,-2.3452,-2.3226,-2.315,-2.3125,-2.3005,-2.2677,-2.1295,-2.0546,-2.0268,-1.887,-1.8008,-1.8008,-1.8008,-1.8008,-1.8008,-1.8008,-1.8008,-1.7998,-1.7949,-1.791,-1.7978,-1.7852,-1.75,-1.6704,-1.5944,-1.507,-1.4326,-1.4576,-1.496,-1.5001,-1.5415,-1.5518,-1.542,-1.542,-1.541,-1.5235,-1.4569,-1.4309,-1.4052,-1.3701,-1.3293,-1.3465,-1.4202,-1.4782,-1.4747,-1.5403,-1.6056,-1.6086,-1.59,-1.5829,-1.5845,-1.5453,-1.5138,-1.5013,-1.5097,-1.5134,-1.5023,-1.4173,-1.377,-1.3981,-1.3876,-1.3756,-1.4391,-1.3882,-1.4042,-1.4558,-1.4418,-1.4255,-1.4738,-1.5437,-1.6269,-1.6665,-1.6992,-1.7552,-1.7937,-1.8847,-1.9393,-1.9326,-1.9932,-2.0477,-2.0602,-2.01,-1.9798,-1.9798,-1.9798,-1.9798,-1.9798,-1.9798,-2.0055,-2.0597,-2.121,-2.1927,-2.2529,-2.3187,-2.3551,-2.6953,-2.6719,-2.4798,-2.3892,-2.3815,-2.4395,-2.4194,-2.3515,-2.4154,-2.4177,-2.3518,-2.348,-2.3603,-2.3665,-2.418,-2.4117,-2.3954,-2.4481,-2.4255,-2.3466,-2.369,-2.3489,-2.3201,-2.3078,-2.2763,-2.2101,-2.0722,-1.9868,-1.9552,-1.8519,-1.8008,-1.8008,-1.8008,-1.8008,-1.8008,-1.8008,-1.8008,-1.7959,-1.7686,-1.7734,-1.7881,-1.7412,-1.6982,-1.666,-1.5863,-1.4755,-1.3518,-1.3458,-1.4337,-1.5632,-1.5526,-1.542,-1.542,-1.5352,-1.5108,-1.4628,-1.4291,-1.3986,-1.3642,-1.3334,-1.3132,-1.2991,-1.3688,-1.4202,-1.4267,-1.449,-1.5085,-1.5519,-1.5355,-1.5009,-1.5166,-1.4601,-1.3882,-1.3273,-1.3551,-1.3839,-1.3723,-1.3086,-1.247,-1.2058,-1.2168,-1.2469,-1.2671,-1.2624,-1.2758,-1.3526,-1.334,-1.2968,-1.3731,-1.4618,-1.5471,-1.6113,-1.6606,-1.7225,-1.7965,-1.8956,-1.9326,-1.8928,-1.9427,-2.0283,-2.0263,-1.9924,-1.9798,-1.9798,-1.9798,-1.9798,-1.9798,-1.9798,-2.0245,-2.0646,-2.1293,-2.1899,-2.2529,-2.3143,-2.3421,-2.6483,-2.6318,-2.4059,-2.3144,-2.3173,-2.376,-2.3564,-2.3097,-2.3891,-2.381,-2.3084,-2.3281,-2.3303,-2.314,-2.3728,-2.3841,-2.3653,-2.4418,-2.4431,-2.4004,-2.3954,-2.3665,-2.313,-2.2811,-2.2322,-2.1791,-2.0287,-1.9532,-1.9222,-1.8395,-1.8076,-1.8008,-1.8008,-1.8008,-1.8008,-1.8008,-1.8008,-1.7969,-1.7764,-1.7783,-1.793,-1.7539,-1.7207,-1.6857,-1.6086,-1.5003,-1.396,-1.364,-1.427,-1.5377,-1.5547,-1.542,-1.5352,-1.505,-1.4697,-1.4213,-1.3674,-1.3198,-1.2933,-1.2703,-1.2506,-1.2567,-1.3172,-1.3494,-1.3672,-1.3985,-1.4891,-1.4889,-1.4514,-1.4371,-1.4324,-1.3673,-1.2952,-1.2558,-1.2541,-1.2763,-1.287,-1.2233,-1.1633,-1.1293,-1.1268,-1.1655,-1.2081,-1.1779,-1.2119,-1.2719,-1.2375,-1.2364,-1.2788,-1.3787,-1.4732,-1.553,-1.6156,-1.6768,-1.7145,-1.7925,-1.866,-1.8382,-1.892,-1.9805,-2.0049,-1.9798,-1.9798,-1.9798,-1.9798,-1.9798,-1.9798,-1.9901,-2.0194,-2.062,-2.128,-2.1744,-2.2331,-2.3009,-2.3334,-2.6483,-2.6307,-2.4059,-2.3144,-2.3163,-2.3652,-2.3567,-2.337,-2.4018,-2.3909,-2.3329,-2.3646,-2.343,-2.3115,-2.359,-2.3904,-2.3979,-2.4418,-2.4607,-2.4368,-2.4092,-2.3503,-2.2812,-2.2322,-2.1815,-2.1227,-1.9944,-1.9354,-1.8911,-1.8269,-1.8008,-1.8008,-1.8008,-1.8008,-1.8008,-1.8008,-1.8008,-1.8008,-1.7969,-1.7949,-1.8008,-1.7881,-1.7666,-1.7183,-1.6337,-1.5568,-1.4863,-1.4529,-1.4671,-1.5362,-1.542,-1.542,-1.5294,-1.4697,-1.4204,-1.3916,-1.3157,-1.2493,-1.2109,-1.185,-1.1736,-1.2127,-1.2749,-1.3137,-1.3164,-1.3871,-1.4282,-1.4226,-1.3746,-1.3531,-1.3448,-1.2813,-1.2405,-1.2198,-1.2063,-1.2083,-1.1991,-1.149,-1.1102,-1.1397,-1.1039,-1.1423,-1.2027,-1.1911,-1.131,-1.2808,-1.2405,-1.2462,-1.2944,-1.3843,-1.4672,-1.5296,-1.5827,-1.6321,-1.6566,-1.6758,-1.7387,-1.7728,-1.8444,-1.9218,-1.9833,-1.9798,-1.9798,-1.9798,-1.9798,-1.9798,-1.9798,-1.9952,-2.0144,-2.0534,-2.1113,-2.1472,-2.1838,-2.2711,-2.3246,-2.6483,-2.6318,-2.4059,-2.3144,-2.3125,-2.3201,-2.3087,-2.2685,-2.2914,-2.3106,-2.2795,-2.2803,-2.2982,-2.3103,-2.3339,-2.3552,-2.3916,-2.413,-2.4167,-2.4079,-2.3577,-2.2862,-2.2261,-2.1815,-2.1112,-2.0204,-1.9552,-1.8977,-1.8395,-1.8202,-1.8008,-1.8008,-1.8008,-1.8008,-1.8008,-1.8008,-1.8008,-1.8008,-1.8008,-1.8008,-1.8008,-1.7998,-1.7822,-1.729,-1.6272,-1.5559,-1.525,-1.489,-1.4972,-1.5273,-1.5371,-1.5342,-1.5362,-1.5167,-1.4451,-1.3571,-1.323,-1.2645,-1.185,-1.1729,-1.1891,-1.2204,-1.2456,-1.2825,-1.3408,-1.2899,-1.3184,-1.3338,-1.2892,-1.2539,-1.2631,-1.2445,-1.2218,-1.2071,-1.1917,-1.179,-1.161,-1.1263,-1.1423,-1.1871,-1.1379,-1.1233,-1.2704,-1.2143,-1.2089,-1.2773,-1.2862,-1.2813,-1.3342,-1.403,-1.4593,-1.5242,-1.5717,-1.6143,-1.6117,-1.6316,-1.6684,-1.7234,-1.7922,-1.8501,-1.915,-1.9798,-1.9798,-1.9798,-1.9798,-1.9798,-1.9798,-1.985,-2.0003,-2.0497,-2.0881,-2.1099,-2.152,-2.2392,-2.277,-2.6483,-2.6235,-2.4059,-2.3144,-2.3144,-2.3135,-2.29,-2.2676,-2.3311,-2.3286,-2.3055,-2.3325,-2.3526,-2.3466,-2.3276,-2.3339,-2.3602,-2.3891,-2.3741,-2.3415,-2.2995,-2.2115,-2.0858,-2.0655,-2.0074,-1.9233,-1.8844,-1.8395,-1.8066,-1.8008,-1.8008,-1.8008,-1.8008,-1.8008,-1.8008,-1.8018,-1.8008,-1.8008,-1.8008,-1.8008,-1.8008,-1.7998,-1.7658,-1.7072,-1.6166,-1.5656,-1.5555,-1.4763,-1.4961,-1.54,-1.5346,-1.5191,-1.5264,-1.505,-1.4213,-1.3319,-1.3028,-1.26,-1.1806,-1.1817,-1.2131,-1.2285,-1.2305,-1.2328,-1.2634,-1.2237,-1.2257,-1.2458,-1.2349,-1.2151,-1.2285,-1.2305,-1.2198,-1.2071,-1.1817,-1.1657,-1.1557,-1.1263,-1.1359,-1.1956,-1.1339,-1.1917,-1.2443,-1.2443,-1.274,-1.3425,-1.313,-1.3071,-1.3544,-1.4258,-1.4678,-1.5224,-1.5674,-1.5928,-1.5841,-1.5959,-1.6171,-1.6665,-1.7301,-1.7841,-1.834,-1.9097,-1.9798,-1.9798,-1.9798,-1.9798,-1.9798,-1.9862,-1.9862,-2.0144,-2.0434,-2.067,-2.1051,-2.1615,-2.1771,-2.6483,-2.6307,-2.4059,-2.3144,-2.3144,-2.3135,-2.2949,-2.2834,-2.3956,-2.3821,-2.3509,-2.4237,-2.4025,-2.3754,-2.3339,-2.309,-2.3301,-2.3641,-2.3629,-2.3018,-2.2666,-2.1516,-2.0194,-1.9694,-1.9365,-1.9044,-1.8462,-1.7998,-1.8008,-1.8008,-1.8008,-1.8008,-1.8008,-1.8076,-1.8096,-1.8115,-1.8223,-1.832,-1.8232,-1.8164,-1.8115,-1.8086,-1.7628,-1.7095,-1.6397,-1.6133,-1.6033,-1.5432,-1.5112,-1.6079,-1.5405,-1.528,-1.5276,-1.4656,-1.3899,-1.3161,-1.2944,-1.2304,-1.1716,-1.1917,-1.2285,-1.2305,-1.2305,-1.2058,-1.1861,-1.1955,-1.1942,-1.1881,-1.1837,-1.2191,-1.2291,-1.2305,-1.2245,-1.2071,-1.1677,-1.1557,-1.1516,-1.1216,-1.1362,-1.1912,-1.1716,-1.2058,-1.287,-1.3235,-1.3597,-1.3837,-1.3545,-1.3485,-1.4025,-1.446,-1.4928,-1.5153,-1.5565,-1.5673,-1.5674,-1.5752,-1.5944,-1.6637,-1.7135,-1.7677,-1.8124,-1.8992,-1.9798,-1.9798,-1.9798,-1.9823,-1.9823,-1.9798,-1.985,-1.9888,-2.0042,-2.0283,-2.057,-2.089,-2.0966,-2.6483,-2.6307,-2.4049,-2.3144,-2.3144,-2.3144,-2.3096,-2.3063,-2.3443,-2.3412,-2.3227,-2.3442,-2.357,-2.3318,-2.3226,-2.3125,-2.3263,-2.3578,-2.3517,-2.2763,-2.2267,-2.1181,-2.0118,-1.9375,-1.8911,-1.8327,-1.8066,-1.8134,-1.8066,-1.8008,-1.8349,-1.8095,-1.8281,-1.8409,-1.8596,-1.8545,-1.8762,-1.8828,-1.8672,-1.8535,-1.8418,-1.8184,-1.791,-1.7461,-1.6762,-1.6637,-1.6978,-1.6835,-1.6802,-1.6617,-1.6432,-1.6374,-1.61,-1.5107,-1.4162,-1.3668,-1.3165,-1.257,-1.1895,-1.1971,-1.2258,-1.2305,-1.2278,-1.2158,-1.1904,-1.187,-1.181,-1.169,-1.175,-1.2037,-1.2285,-1.2291,-1.2051,-1.175,-1.1523,-1.1303,-1.0982,-1.0853,-1.1141,-1.1939,-1.1881,-1.2081,-1.3053,-1.3846,-1.4145,-1.4442,-1.4569,-1.4451,-1.4746,-1.4991,-1.5205,-1.5342,-1.54,-1.5469,-1.5449,-1.5624,-1.5884,-1.6888,-1.7523,-1.8221,-1.8715,-1.9371,-1.9811,-1.9962,-1.9962,-1.9936,-1.9899,-1.9899,-1.9823,-1.9888,-1.9914,-1.994,-2.0181,-2.0471,-2.0683,-2.7046,-2.6307,-2.4628,-2.3627,-2.3135,-2.3144,-2.3144,-2.3172,-2.3822,-2.3874,-2.3756,-2.3893,-2.3897,-2.3542,-2.3165,-2.3078,-2.3238,-2.3315,-2.2874,-2.1939,-2.1353,-2.0462,-1.9497,-1.8854,-1.8472,-1.8202,-1.8395,-1.8664,-1.8684,-1.8975,-1.9219,-1.9796,-2.0001,-2.0069,-1.9807,-1.9808,-1.9513,-1.9436,-1.9082,-1.8848,-1.8553,-1.8232,-1.7909,-1.7451,-1.7024,-1.6752,-1.6779,-1.6442,-1.6529,-1.6823,-1.6579,-1.6653,-1.6481,-1.5841,-1.4782,-1.4568,-1.3949,-1.3286,-1.2457,-1.2425,-1.2291,-1.2278,-1.2191,-1.2031,-1.1917,-1.185,-1.177,-1.1737,-1.1724,-1.1917,-1.2064,-1.2198,-1.2144,-1.1917,-1.1617,-1.1289,-1.1015,-1.0735,-1.1206,-1.1828,-1.1877,-1.2381,-1.3666,-1.4273,-1.4628,-1.4991,-1.5352,-1.542,-1.542,-1.542,-1.542,-1.542,-1.542,-1.542,-1.5526,-1.5748,-1.6026,-1.6922,-1.7875,-1.8525,-1.9189,-1.975,-2.011,-2.0326,-2.0263,-2.0338,-2.0263,-2.0338,-2.0112,-1.9874,-1.9888,-1.9901,-1.9901,-2.0042,-2.0308,-2.7602,-2.6719,-2.563,-2.4638,-2.3887,-2.381,-2.3724,-2.3705,-2.469,-2.4623,-2.394,-2.4398,-2.438,-2.3828,-2.3389,-2.3125,-2.3125,-2.309,-2.2457,-2.1565,-2.0846,-1.9824,-1.8921,-1.8144,-1.8144,-1.8529,-1.8844,-1.9351,-1.9509,-1.9825,-2.0608,-2.1028,-2.1755,-2.1585,-2.0899,-2.0473,-2.0133,-1.9796,-1.9414,-1.917,-1.8601,-1.8132,-1.7719,-1.7312,-1.6878,-1.6697,-1.6954,-1.6531,-1.6688,-1.7035,-1.7007,-1.673,-1.7167,-1.6553,-1.6039,-1.5871,-1.5119,-1.4251,-1.3669,-1.2978,-1.2739,-1.2725,-1.2243,-1.2042,-1.1804,-1.1744,-1.1683,-1.1888,-1.1697,-1.175,-1.1877,-1.2004,-1.2064,-1.1964,-1.1597,-1.1269,-1.1056,-1.0945,-1.1024,-1.1512,-1.1772,-1.2687,-1.3965,-1.4628,-1.4991,-1.5108,-1.542,-1.542,-1.542,-1.542,-1.542,-1.542,-1.542,-1.542,-1.5642,-1.6036,-1.6425,-1.7034,-1.7995,-1.8786,-1.9454,-2.006,-2.0445,-2.0878,-2.1091,-2.1154,-2.0991,-2.069,-2.0323,-2.002,-1.9872,-1.9811,-1.985,-1.985,-2.0003,-2.8016,-2.7763,-2.6719,-2.6224,-2.5975,-2.5986,-2.5473,-2.4756,-2.5746,-2.5073,-2.335,-2.4285,-2.4243,-2.3452,-2.3153,-2.3125,-2.3065,-2.2944,-2.2689,-2.199,-2.1037,-2.0268,-1.989,-1.8586,-1.8529,-1.8921,-1.9233,-1.9551,-2.0178,-2.0577,-2.114,-2.1801,-2.1336,-2.0534,-2.1313,-2.078,-2.02,-2.034,-2.0019,-1.9473,-1.8705,-1.7896,-1.7689,-1.766,-1.7204,-1.7001,-1.7579,-1.7373,-1.7677,-1.7755,-1.7842,-1.7775,-1.7852,-1.7833,-1.7716,-1.7118,-1.5993,-1.4627,-1.4502,-1.3772,-1.3382,-1.3164,-1.2635,-1.2249,-1.1864,-1.149,-1.1416,-1.1824,-1.1456,-1.1363,-1.163,-1.165,-1.1583,-1.149,-1.1336,-1.1002,-1.0846,-1.1168,-1.1324,-1.1958,-1.2443,-1.3235,-1.4204,-1.4805,-1.5294,-1.5352,-1.542,-1.542,-1.542,-1.542,-1.542,-1.542,-1.5468,-1.5468,-1.5921,-1.6312,-1.6912,-1.7357,-1.836,-1.9262,-1.9846,-2.054,-2.1156,-2.1568,-2.1794,-2.1882,-2.1681,-2.1237,-2.0565,-2.0179,-2.002,-1.9885,-1.9798,-1.9798,-1.9798,-2.8688,-2.8096,-2.7602,-2.7035,-2.6554,-2.6483,-2.588,-2.5174,-2.5982,-2.52,-2.3654,-2.4292,-2.4192,-2.3301,-2.3125,-2.3125,-2.3005,-2.2628,-2.2125,-2.1667,-2.0526,-1.9628,-1.8977,-1.8462,-1.8462,-1.9309,-1.9933,-2.0794,-2.128,-2.1732,-2.2213,-2.2624,-2.2423,-2.2094,-2.1787,-2.1285,-2.0897,-2.0611,-2.0146,-1.9883,-1.9422,-1.8692,-1.8228,-1.8601,-1.7817,-1.7686,-1.7862,-1.8008,-1.8154,-1.8232,-1.8184,-1.8144,-1.8223,-1.8154,-1.7998,-1.7901,-1.7203,-1.6401,-1.5713,-1.4514,-1.3932,-1.3469,-1.2811,-1.2056,-1.1797,-1.153,-1.1303,-1.157,-1.1243,-1.1182,-1.1376,-1.1403,-1.1436,-1.1343,-1.1182,-1.11,-1.1006,-1.1297,-1.1655,-1.2389,-1.3174,-1.4007,-1.4805,-1.5342,-1.5634,-1.541,-1.542,-1.542,-1.542,-1.542,-1.542,-1.542,-1.5468,-1.5584,-1.6197,-1.6754,-1.7468,-1.8127,-1.9251,-2.0056,-2.0515,-2.1104,-2.1744,-2.2178,-2.241,-2.2422,-2.2309,-2.185,-2.1256,-2.0665,-2.0089,-1.9967,-1.9897,-1.9798,-1.9798,-2.9275,-2.8518,-2.8518,-2.8028,-2.7383,-2.7313,-2.6707,-2.5832,-2.6527,-2.5659,-2.4091,-2.4117,-2.3866,-2.324,-2.3125,-2.3065,-2.3017,-2.2261,-2.1628,-2.0782,-1.9814,-1.9054,-1.8787,-1.8462,-1.8854,-1.9628,-2.059,-2.1487,-2.2282,-2.2623,-2.2616,-2.3431,-2.2855,-2.2761,-2.2179,-2.1552,-2.1068,-2.0595,-2.0273,-2.0176,-2.0068,-1.9316,-1.8961,-1.8809,-1.8467,-1.8008,-1.8008,-1.8008,-1.8203,-1.8281,-1.8174,-1.8144,-1.8291,-1.8144,-1.8018,-1.7998,-1.7658,-1.7298,-1.6296,-1.5138,-1.4314,-1.367,-1.2869,-1.2051,-1.1977,-1.171,-1.1329,-1.1179,-1.0792,-1.067,-1.0756,-1.0805,-1.0955,-1.1056,-1.1279,-1.1204,-1.136,-1.1907,-1.261,-1.3614,-1.4337,-1.4993,-1.5633,-1.61,-1.6042,-1.5556,-1.542,-1.543,-1.542,-1.5478,-1.542,-1.542,-1.5468,-1.5642,-1.6368,-1.709,-1.7852,-1.8756,-1.9892,-2.0784,-2.1199,-2.1754,-2.239,-2.2719,-2.2951,-2.2946,-2.2841,-2.2372,-2.1893,-2.1263,-2.066,-2.0163,-1.9942,-1.9872,-1.9798,-2.9792,-2.9702,-2.9611,-2.9546,-2.9468,-2.9534,-2.8858,-2.7589,-2.7863,-2.6602,-2.4566,-2.3793,-2.3401,-2.3103,-2.3125,-2.3125,-2.3065,-2.2261,-2.1753,-2.1112,-2.0204,-1.9177,-1.8911,-1.9044,-1.9562,-2.0409,-2.1175,-2.2087,-2.2641,-2.2293,-2.2918,-2.3765,-2.2444,-2.1933,-2.158,-2.1181,-2.0934,-2.0566,-2.0449,-2.0234,-2.001,-1.9463,-1.9082,-1.8672,-1.8291,-1.8008,-1.8008,-1.8008,-1.8096,-1.8203,-1.8086,-1.8096,-1.8223,-1.8096,-1.8018,-1.8008,-1.7794,-1.7354,-1.6498,-1.5649,-1.5084,-1.4514,-1.3476,-1.2191,-1.2098,-1.1957,-1.1488,-1.0833,-1.056,-1.0251,-1.0068,-0.9801,-1.043,-1.0999,-1.1532,-1.1862,-1.2165,-1.2792,-1.3622,-1.4721,-1.5505,-1.613,-1.6649,-1.7152,-1.699,-1.6502,-1.5986,-1.5986,-1.5614,-1.5584,-1.5478,-1.542,-1.542,-1.5748,-1.6482,-1.7191,-1.7961,-1.8893,-1.9967,-2.1013,-2.1862,-2.2424,-2.2708,-2.2902,-2.2994,-2.317,-2.3217,-2.2652,-2.2063,-2.1699,-2.1182,-2.0648,-2.0082,-1.982,-1.9784,-2.9779,-2.9779,-2.9779,-2.9779,-2.9779,-2.9779,-2.9197,-2.8246,-2.8101,-2.6843,-2.4798,-2.4016,-2.3464,-2.3226,-2.3125,-2.3125,-2.2884,-2.1616,-2.1302,-2.0526,-1.9497,-1.8654,-1.8654,-1.9177,-1.9748,-2.0655,-2.1491,-2.231,-2.2921,-2.2202,-2.2157,-2.2226,-2.1325,-2.0938,-2.0642,-2.0584,-2.0469,-2.0489,-2.0527,-2.0342,-1.9922,-1.9512,-1.9082,-1.8652,-1.8232,-1.8027,-1.8008,-1.8008,-1.8154,-1.8173,-1.8047,-1.8086,-1.8085,-1.7968,-1.7813,-1.7706,-1.7413,-1.6904,-1.6428,-1.5579,-1.4736,-1.3448,-1.2718,-1.2238,-1.2124,-1.1937,-1.1616,-1.1114,-1.0659,-1.0558,-1.0511,-1.0354,-1.0558,-1.1284,-1.1869,-1.2443,-1.3072,-1.3853,-1.4721,-1.5924,-1.6585,-1.7199,-1.7721,-1.8215,-1.7942,-1.7543,-1.7017,-1.6478,-1.6103,-1.5692,-1.5537,-1.543,-1.542,-1.6083,-1.681,-1.7468,-1.8015,-1.9076,-2.0103,-2.1056,-2.1944,-2.2271,-2.257,-2.2782,-2.2711,-2.2382,-2.2272,-2.2463,-2.2254,-2.1793,-2.1405,-2.1046,-2.0496,-1.9885,-1.9797,-2.9691,-2.9566,-2.9716,-2.9779,-2.9779,-2.9779,-2.9365,-2.8687,-2.845,-2.7231,-2.5259,-2.4456,-2.3803,-2.3439,-2.3128,-2.3138,-2.275,-2.1803,-2.1037,-2.0333,-1.9552,-1.8529,-1.8586,-1.9309,-2.0462,-2.091,-2.1741,-2.2628,-2.2604,-2.1962,-2.1564,-2.1101,-2.039,-1.9791,-1.9717,-1.9568,-1.9678,-1.9678,-1.9963,-1.986,-1.9383,-1.9354,-1.9082,-1.8652,-1.8232,-1.8027,-1.8008,-1.8018,-1.8125,-1.8065,-1.7908,-1.7741,-1.765,-1.7562,-1.7254,-1.6904,-1.6555,-1.6017,-1.5553,-1.5084,-1.4027,-1.2806,-1.2445,-1.2191,-1.2058,-1.1991,-1.1807,-1.1204,-1.1175,-1.1256,-1.1189,-1.0999,-1.1374,-1.2149,-1.3147,-1.3775,-1.4468,-1.5177,-1.6151,-1.7125,-1.7756,-1.8428,-1.9209,-1.9696,-1.9287,-1.8672,-1.7739,-1.7204,-1.6736,-1.6204,-1.5655,-1.5518,-1.542,-1.6301,-1.7302,-1.7622,-1.8112,-1.9319,-2.0284,-2.1042,-2.1797,-2.2102,-2.2538,-2.2991,-2.2583,-2.1549,-2.1112,-2.1178,-2.1522,-2.1818,-2.1305,-2.0614,-2.0382,-1.9797,-1.9836,-2.9478,-2.9038,-2.9553,-2.9754,-2.9651,-2.9792,-2.9702,-2.9447,-2.8963,-2.7821,-2.6163,-2.4795,-2.4042,-2.3841,-2.3439,-2.3251,-2.2884,-2.2187,-2.1365,-2.059,-2.0193,-1.9365,-1.9441,-2.0085,-2.1175,-2.1112,-2.1877,-2.2384,-2.2013,-2.1382,-2.0782,-2.011,-1.9482,-1.8902,-1.8894,-1.7963,-1.7496,-1.7658,-1.8789,-1.8879,-1.8917,-1.9123,-1.9,-1.8652,-1.8232,-1.8018,-1.7891,-1.7668,-1.7619,-1.7475,-1.6927,-1.6651,-1.6591,-1.6035,-1.5658,-1.5508,-1.5152,-1.4533,-1.3852,-1.3738,-1.3011,-1.2144,-1.17,-1.1937,-1.2104,-1.2178,-1.2098,-1.1651,-1.1733,-1.1722,-1.1696,-1.1861,-1.2505,-1.3317,-1.4327,-1.5158,-1.5861,-1.649,-1.7412,-1.8328,-1.9061,-1.9805,-2.0668,-2.1126,-2.072,-1.9957,-1.8698,-1.7853,-1.7322,-1.6573,-1.5871,-1.5654,-1.5584,-1.6415,-1.7246,-1.7567,-1.8167,-1.9411,-2.0348,-2.0949,-2.1488,-2.1867,-2.2396,-2.2956,-2.2048,-2.0605,-2.0121,-1.9788,-2.0032,-2.0229,-2.036,-2.001,-1.9828,-1.9798,-1.9798,-2.9453,-2.895,-2.9139,-2.8808,-2.8281,-2.8542,-2.9028,-2.9551,-2.8775,-2.7657,-2.649,-2.5398,-2.4594,-2.4117,-2.3816,-2.354,-2.3032,-2.2261,-2.1428,-2.073,-2.0719,-1.9879,-1.9824,-2.059,-2.1616,-2.1678,-2.2137,-2.2199,-2.1877,-2.0941,-2.0572,-2.0002,-1.9335,-1.8934,-1.8921,-1.855,-1.8709,-1.9274,-1.9404,-1.9081,-1.9307,-1.928,-1.9082,-1.8643,-1.8223,-1.791,-1.7628,-1.7331,-1.6853,-1.6589,-1.5845,-1.5403,-1.5394,-1.4928,-1.5092,-1.495,-1.456,-1.3353,-1.2398,-1.1746,-1.131,-1.0875,-1.1013,-1.1316,-1.1174,-1.1924,-1.2164,-1.2497,-1.2806,-1.3023,-1.3491,-1.3537,-1.4025,-1.4857,-1.5782,-1.6571,-1.7244,-1.782,-1.856,-1.948,-2.0358,-2.0909,-2.1594,-2.1963,-2.1712,-2.12,-2.0045,-1.8501,-1.7648,-1.6736,-1.5939,-1.5821,-1.5874,-1.6641,-1.7246,-1.7731,-1.8382,-1.9527,-2.0156,-2.0588,-2.1083,-2.1529,-2.1281,-2.1419,-2.0587,-1.9702,-1.8975,-1.8396,-1.8284,-1.8362,-1.9171,-1.9773,-1.9805,-1.9798,-1.9798,-2.8669,-2.81,-2.7773,-2.7215,-2.6734,-2.7439,-2.8319,-2.8704,-2.8163,-2.7394,-2.6691,-2.595,-2.5259,-2.4669,-2.433,-2.4155,-2.3579,-2.2985,-2.2151,-2.1458,-2.1474,-2.0537,-2.0268,-2.091,-2.1164,-2.1365,-2.129,-2.129,-2.0869,-2.0277,-1.9807,-1.9639,-1.9611,-1.934,-1.9036,-1.8709,-1.847,-1.8868,-1.8841,-1.9003,-1.9146,-1.9197,-1.9072,-1.8643,-1.8242,-1.7891,-1.7427,-1.6741,-1.6051,-1.5619,-1.4934,-1.4348,-1.4337,-1.4285,-1.4307,-1.3947,-1.3535,-1.2216,-1.0906,-1.0366,-0.9927,-0.911,-1.0095,-1.1003,-1.1458,-1.2497,-1.3266,-1.3742,-1.4112,-1.4555,-1.4917,-1.4904,-1.5643,-1.6473,-1.6988,-1.7787,-1.8515,-1.9076,-1.965,-2.0605,-2.1314,-2.1864,-2.2309,-2.2518,-2.2625,-2.2068,-2.1422,-1.9791,-1.8202,-1.7172,-1.6347,-1.6058,-1.6202,-1.6832,-1.7534,-1.8112,-1.8821,-1.9631,-2.0093,-2.0446,-2.0623,-2.1067,-2.0448,-1.9876,-1.9547,-1.8917,-1.7634,-1.7022,-1.7233,-1.8011,-1.9143,-1.9611,-1.9759,-1.9798,-1.9798,-2.7067,-2.6451,-2.5524,-2.5149,-2.5205,-2.6306,-2.7018,-2.7216,-2.7237,-2.7197,-2.7143,-2.6063,-2.5498,-2.5398,-2.5008,-2.4707,-2.4481,-2.4017,-2.3215,-2.2769,-2.2468,-2.121,-2.0643,-2.1037,-2.1037,-2.0333,-2.0074,-2.0268,-1.9483,-1.9557,-1.9219,-1.8995,-1.9688,-1.9603,-1.9073,-1.8674,-1.8327,-1.8798,-1.8859,-1.9021,-1.9191,-1.93,-1.9347,-1.9063,-1.8694,-1.8365,-1.7829,-1.7007,-1.6462,-1.5692,-1.4551,-1.3901,-1.3388,-1.2799,-1.2519,-1.2372,-1.2445,-1.1273,-0.9894,-0.9575,-0.9326,-0.8946,-1.0052,-1.17,-1.2729,-1.3281,-1.4126,-1.489,-1.5445,-1.5703,-1.6008,-1.6656,-1.7278,-1.7758,-1.8112,-1.8879,-1.9642,-2.0242,-2.0794,-2.1504,-2.2133,-2.2616,-2.282,-2.3053,-2.3173,-2.2518,-2.1933,-2.1317,-1.9723,-1.8023,-1.7174,-1.6386,-1.6607,-1.7088,-1.7733,-1.8619,-1.9032,-1.9798,-2.0105,-2.0446,-2.061,-2.056,-2.0194,-1.9709,-1.9137,-1.8309,-1.7411,-1.681,-1.6599,-1.7671,-1.9279,-1.9562,-1.9797,-1.9811,-1.9798,-2.5543,-2.4933,-2.4695,-2.4084,-2.3487,-2.384,-2.4803,-2.6006,-2.6205,-2.6392,-2.6666,-2.6377,-2.5699,-2.5084,-2.5247,-2.487,-2.4443,-2.3904,-2.3119,-2.2824,-2.2764,-2.1714,-2.1164,-2.1101,-2.0985,-2.0333,-1.9814,-1.9497,-1.9271,-1.9226,-1.8695,-1.8219,-1.9488,-1.9665,-1.9729,-1.9589,-1.9604,-1.9548,-1.9576,-1.9575,-1.9832,-2.0166,-2.0165,-2.0019,-1.9839,-1.947,-1.8633,-1.7622,-1.693,-1.5752,-1.4267,-1.3419,-1.3301,-1.2746,-1.2305,-1.2305,-1.217,-1.154,-0.9914,-0.9981,-0.991,-0.9576,-1.0819,-1.1474,-1.2576,-1.3884,-1.5023,-1.5809,-1.6408,-1.6615,-1.7083,-1.773,-1.8333,-1.8835,-1.9345,-2.0165,-2.0885,-2.1303,-2.1825,-2.2304,-2.2941,-2.3212,-2.3386,-2.3649,-2.3636,-2.2919,-2.2348,-2.1958,-2.1089,-1.9293,-1.8116,-1.7357,-1.7517,-1.8104,-1.8635,-1.939,-1.9531,-1.9786,-2.0118,-2.0284,-2.0156,-2.0093,-1.9991,-1.9554,-1.8927,-1.8244,-1.7485,-1.7127,-1.706,-1.8196,-1.9636,-1.9735,-1.9822,-1.9926,-2.0055,-2.4073,-2.3722,-2.3058,-2.2562,-2.2203,-2.2145,-2.2924,-2.4138,-2.4897,-2.5521,-2.6113,-2.5875,-2.5448,-2.4971,-2.5084,-2.4933,-2.4418,-2.4117,-2.3567,-2.3195,-2.2665,-2.1639,-2.1164,-2.0719,-2.0139,-1.9628,-1.9177,-1.8787,-1.8765,-1.8755,-1.8428,-1.8554,-1.9548,-2.0198,-2.082,-2.1332,-2.191,-2.1653,-2.1386,-2.1118,-2.1251,-2.1585,-2.1503,-2.1496,-2.1364,-2.0676,-1.9955,-1.8909,-1.7703,-1.6747,-1.5441,-1.4219,-1.3905,-1.3089,-1.2378,-1.2284,-1.1781,-1.1006,-0.9818,-0.9779,-0.998,-1.0532,-1.1757,-1.2998,-1.3894,-1.5111,-1.6014,-1.6747,-1.7036,-1.7406,-1.8012,-1.8651,-1.9195,-1.9772,-2.0644,-2.1479,-2.1874,-2.226,-2.2696,-2.3181,-2.3542,-2.3806,-2.4002,-2.4234,-2.4047,-2.3233,-2.2689,-2.236,-2.157,-2.0232,-1.9171,-1.8458,-1.8826,-1.9303,-1.9756,-2.0007,-2.0052,-2.0076,-2.0173,-2.0227,-1.9962,-1.9747,-1.9734,-1.9242,-1.8661,-1.8134,-1.7798,-1.7835,-1.7989,-1.9144,-1.997,-2.0296,-2.036,-2.0321,-2.0497,-2.2699,-2.2569,-2.1191,-2.0958,-2.1152,-2.1222,-2.1527,-2.2018,-2.3285,-2.4398,-2.5083,-2.4968,-2.487,-2.4695,-2.4833,-2.4678,-2.4304,-2.4004,-2.3679,-2.3754,-2.2788,-2.169,-2.0719,-1.9879,-1.9497,-1.8596,-1.8066,-1.8269,-1.8174,-1.8359,-1.8721,-1.934,-1.9821,-2.0873,-2.2621,-2.2755,-2.3446,-2.4437,-2.3591,-2.2951,-2.3194,-2.3245,-2.3055,-2.2976,-2.2696,-2.2252,-2.1744,-2.07,-1.9284,-1.8695,-1.7624,-1.6005,-1.4487,-1.3715,-1.3016,-1.2243,-1.1706,-1.0883,-1.0215,-1.0138,-1.0528,-1.1352,-1.2666,-1.4311,-1.5425,-1.6526,-1.7427,-1.7853,-1.8203,-1.8446,-1.9038,-1.9597,-2.0206,-2.0962,-2.1757,-2.2709,-2.3441,-2.3669,-2.3825,-2.4203,-2.4289,-2.4452,-2.4176,-2.4266,-2.3748,-2.3263,-2.3005,-2.2689,-2.2068,-2.0967,-2.0392,-1.9693,-1.997,-2.0306,-2.0394,-2.056,-2.0477,-2.0508,-2.0432,-2.0345,-2.0147,-1.983,-1.9527,-1.919,-1.8874,-1.8572,-1.834,-1.8638,-1.9089,-1.9592,-2.0372,-2.0854,-2.0947,-2.0908,-2.1175,-2.1181,-2.1093,-2.0771,-2.0635,-2.0723,-2.0723,-2.0998,-2.1492,-2.1389,-2.2241,-2.3388,-2.4221,-2.4544,-2.4243,-2.4416,-2.4174,-2.342,-2.3354,-2.3256,-2.2836,-2.2261,-2.1444,-2.073,-2.0009,-1.9243,-1.8395,-1.8008,-1.8008,-1.8047,-1.8291,-1.8964,-2.0267,-2.0648,-2.1818,-2.4227,-2.4216,-2.491,-2.6616,-2.6053,-2.5104,-2.5025,-2.4769,-2.4507,-2.4495,-2.4253,-2.3879,-2.3388,-2.2854,-2.1534,-2.0488,-1.9268,-1.7213,-1.4705,-1.4298,-1.3426,-1.252,-1.2136,-1.1364,-1.0901,-1.0883,-1.1546,-1.2424,-1.3775,-1.5333,-1.6732,-1.7972,-1.8705,-1.9062,-1.9295,-1.9563,-1.9968,-2.0557,-2.1228,-2.2043,-2.2893,-2.3945,-2.4915,-2.499,-2.5019,-2.5053,-2.512,-2.4851,-2.4509,-2.3974,-2.3457,-2.3216,-2.311,-2.287,-2.2586,-2.1896,-2.1776,-2.1248,-2.1058,-2.1255,-2.1177,-2.1144,-2.1121,-2.0628,-2.0348,-2.0323,-2.0332,-2.024,-2.0013,-1.9552,-1.919,-1.9303,-1.9643,-2.0192,-2.057,-2.0654,-2.0983,-2.1539,-2.1602,-2.1561,-2.1941,-2.0207,-1.9648,-1.9145,-1.8999,-1.8939,-1.9113,-1.939,-1.9748,-1.9815,-2.0403,-2.1345,-2.2719,-2.3516,-2.343,-2.3553,-2.3238,-2.2258,-2.2106,-2.1847,-2.1518,-2.1132,-2.0561,-2.0094,-1.9727,-1.8911,-1.8144,-1.8008,-1.8008,-1.8008,-1.861,-1.9431,-2.0677,-2.1236,-2.2689,-2.5192,-2.5611,-2.6282,-2.8256,-2.8017,-2.7601,-2.6931,-2.6685,-2.6407,-2.6304,-2.614,-2.5834,-2.5607,-2.5177,-2.4019,-2.2328,-2.0841,-1.9068,-1.7096,-1.6231,-1.5057,-1.3827,-1.2982,-1.2214,-1.1759,-1.199,-1.2882,-1.3841,-1.5385,-1.7102,-1.8881,-1.9957,-1.979,-2.0001,-2.0012,-2.0231,-2.0841,-2.1448,-2.2284,-2.3122,-2.4027,-2.5039,-2.5592,-2.5802,-2.5852,-2.5844,-2.5687,-2.5175,-2.473,-2.397,-2.3428,-2.2756,-2.2736,-2.2752,-2.2552,-2.2627,-2.259,-2.2506,-2.216,-2.186,-2.168,-2.1727,-2.1802,-2.121,-2.0475,-2.0496,-2.0698,-2.0678,-2.0566,-2.0156,-2.0219,-2.0746,-2.1126,-2.1383,-2.1349,-2.1282,-2.1732,-2.2287,-2.2217,-2.2161,-2.2498,-1.9448,-1.8136,-1.7252,-1.6888,-1.6954,-1.7133,-1.738,-1.768,-1.8394,-1.8863,-1.9417,-2.0801,-2.1894,-2.2201,-2.1982,-2.1614,-2.1249,-2.0711,-2.0325,-2.002,-1.9441,-1.9553,-1.9316,-1.8639,-1.8315,-1.8094,-1.8008,-1.8008,-1.8008,-1.86,-1.939,-2.0764,-2.2169,-2.3592,-2.5834,-2.6947,-2.7688,-2.8969,-2.9297,-2.9514,-2.9188,-2.8787,-2.8237,-2.8086,-2.8134,-2.8122,-2.7766,-2.72,-2.6177,-2.4149,-2.186,-2.016,-1.8994,-1.7931,-1.6412,-1.5131,-1.4059,-1.3142,-1.2524,-1.3023,-1.4124,-1.5463,-1.726,-1.8994,-2.0796,-2.1259,-2.1099,-2.1043,-2.1054,-2.1158,-2.1774,-2.2429,-2.3321,-2.4199,-2.5117,-2.5922,-2.6255,-2.6505,-2.6428,-2.6404,-2.5946,-2.5439,-2.4901,-2.4173,-2.3284,-2.2604,-2.2359,-2.2347,-2.2435,-2.2689,-2.2857,-2.2884,-2.2718,-2.2468,-2.2212,-2.2238,-2.2315,-2.1856,-2.1241,-2.1144,-2.1029,-2.0987,-2.0952,-2.0901,-2.1042,-2.1616,-2.1921,-2.2072,-2.2035,-2.1935,-2.2402,-2.2797,-2.2296,-2.2346,-2.2846,-1.7796,-1.6784,-1.6556,-1.6638,-1.6785,-1.6619,-1.6572,-1.6573,-1.7178,-1.776,-1.8247,-1.8858,-1.9736,-2.0519,-2.0033,-1.9663,-1.9421,-1.9044,-1.9029,-1.885,-1.876,-1.9062,-1.9015,-1.8507,-1.8288,-1.8073,-1.793,-1.794,-1.7998,-1.8299,-1.9567,-2.1647,-2.192,-2.398,-2.7138,-2.7903,-2.8189,-2.9252,-2.9528,-2.9465,-2.9139,-2.8825,-2.885,-2.8624,-2.8348,-2.821,-2.8024,-2.7938,-2.6438,-2.4511,-2.2429,-2.0933,-2.0098,-1.9462,-1.8091,-1.6332,-1.5298,-1.467,-1.433,-1.4767,-1.588,-1.7562,-1.9295,-2.08,-2.2085,-2.275,-2.2652,-2.274,-2.2645,-2.2421,-2.287,-2.3416,-2.4213,-2.5037,-2.5934,-2.646,-2.6894,-2.6692,-2.6496,-2.6162,-2.5714,-2.5439,-2.5245,-2.4276,-2.311,-2.2644,-2.2648,-2.2611,-2.2385,-2.2736,-2.3125,-2.3125,-2.3125,-2.3065,-2.2871,-2.2738,-2.272,-2.2332,-2.1895,-2.1519,-2.1231,-2.1234,-2.1198,-2.1312,-2.1828,-2.2399,-2.2601,-2.262,-2.268,-2.2649,-2.3098,-2.3231,-2.2665,-2.2186,-2.2405]},{"header":{"parameterUnit":"m.s-1","parameterCategory":1,"la1":31.0,"la2":29.5877,"lo1":-88.7671,"lo2":-86.6584,"dy":0.0162,"dx":0.0185,"nx":115,"ny":88,"refTime":"2023-07-04T06:00:00:Z","depth":0,"parameterNumber":3,"parameterNumberName":"V-component_of_WINDS"},"data":[0.0,0.0,0.0,0.0,0.0,0.0,0.0,0.0,0.0,0.0,0.0,0.0,0.0,0.0,0.0,0.0,0.0,0.0,0.0,0.0,0.0,0.0,0.0,0.0,0.0,0.0,0.0,0.0,0.0,0.0,0.0,0.0,0.0,0.0,0.0,0.0,0.0,0.0,0.0,0.0,0.0,0.0,0.0,0.0,0.0,0.0,0.0,0.0,0.0,0.0,0.0,0.0,0.0,0.0,0.0,0.0,0.0,0.0,0.0,0.0,0.0,0.0,0.0,0.0,0.0,0.0,0.0,0.0,0.0,0.0,0.0,0.0,0.0,0.0,0.0,0.0,0.0,0.0,0.0,0.0,0.0,0.0,0.0,0.0,0.0,0.0,0.0,0.0,0.0,0.0,0.0,0.0,0.0,0.0,0.0,0.0,0.0,0.0,0.0,0.0,0.0,0.0,0.0,0.0,0.0,0.0,0.0,0.0,0.0,0.0,0.0,0.0,0.0,0.0,0.0,0.0,0.0,0.0,0.0,0.0,0.0,0.0,0.0,0.0,0.0,0.0,0.0,0.0,0.0,0.0,0.0,0.0,0.0,0.0,0.0,0.0,0.0,0.0,0.0,0.0,0.0,0.0,0.0,0.0,0.0,0.0,0.0,0.0,0.0,0.0,0.0,0.0,0.0,0.0,0.0,0.0,0.0,0.0,0.0,0.0,0.0,0.0,0.0,0.0,0.0,0.0,0.0,0.0,0.0,0.0,0.0,0.0,0.0,0.0,0.0,0.0,0.0,0.0,0.0,0.0,0.0,0.0,0.0,0.0,0.0,0.0,0.0,0.0,0.0,0.0,0.0,0.0,0.0,0.0,0.0,0.0,0.0,0.0,0.0,0.0,0.0,0.0,0.0,0.0,0.0,0.0,0.0,0.0,0.0,0.0,0.0,0.0,0.0,0.0,0.0,0.0,0.0,0.0,0.0,0.0,0.0,0.0,0.0,0.0,0.0,0.0,0.0,0.0,0.0,0.0,0.0,0.0,0.0,0.0,0.0,0.0,0.0,0.0,0.0,0.0,0.0,0.0,0.0,0.0,0.0,0.0,0.0,0.0,0.0,0.0,0.0,0.0,0.0,0.0,0.0,0.0,0.0,0.0,0.0,0.0,0.0,0.0,0.0,0.0,0.0,0.0,0.0,0.0,0.0,0.0,0.0,0.0,0.0,0.0,0.0,0.0,0.0,0.0,0.0,0.0,0.0,0.0,0.0,0.0,0.0,0.0,0.0,0.0,0.0,0.0,0.0,0.0,0.0,0.0,0.0,0.0,0.0,0.0,0.0,0.0,0.0,0.0,0.0,0.0,0.0,0.0,0.0,0.0,0.0,0.0,0.0,0.0,0.0,0.0,0.0,0.0,0.0,0.0,0.0,0.0,0.0,0.0,0.0,0.0,0.0,0.0,0.0,0.0,0.0,0.0,0.0,0.0,0.0,0.0,0.0,0.0,0.0,0.0,0.0,0.0,0.0,0.0,0.0,0.0,0.0,0.0,0.0,0.0,0.0,0.0,0.0,0.0,0.0,0.0,0.0,0.0,0.0,0.0,0.0,0.0,0.0,0.0,0.0,0.0,0.0,0.0,0.0,0.0,0.0,0.0,0.0,0.0,0.0,0.0,0.0,0.0,0.0,0.0,0.0,0.0,0.0,0.0,0.0,0.0,0.0,0.0,0.0,0.0,0.0,0.0,0.0,0.0,0.0,0.0,0.0,0.0,0.0,0.0,0.0,0.0,0.0,0.0,0.0,0.0,0.0,0.0,0.0,0.0,0.0,0.0,0.0,0.0,0.0,0.0,0.0,0.0,0.0,0.0,0.0,0.0,0.0,0.0,0.0,0.0,0.0,0.0,0.0,0.0,0.0,0.0,0.0,0.0,0.0,0.0,0.0,0.0,0.0,0.0,0.0,0.0,0.0,0.0,0.0,0.0,0.0,0.0,0.0,0.0,0.0,0.0,0.0,0.0,0.0,0.0,0.0,0.0,0.0,0.0,0.0,0.0,0.0,0.0,0.0,0.0,0.0,0.0,0.0,0.0,0.0,0.0,0.0,0.0,0.0,0.0,0.0,0.0,0.0,0.0,0.0,0.0,0.0,0.0,0.0,0.0,0.0,0.0,0.0,0.0,0.0,0.0,0.0,0.0,0.0,0.0,0.0,0.0,0.0,0.0,0.0,0.0,0.0,0.0,0.0,0.0,0.0,0.0,0.0,0.0,0.0,0.0,0.0,0.0,0.0,0.0,0.0,0.0,0.0,0.0,0.0,0.0,0.0,0.0,0.0,0.0,0.0,0.0,0.0,0.0,0.0,0.0,0.0,0.0,0.0,0.0,0.0,0.0,0.0,0.0,0.0,0.0,0.0,0.0,0.0,0.0,0.0,0.0,0.0,0.0,0.0,0.0,0.0,0.0,0.0,0.0,0.0,0.0,0.0,0.0,0.0,0.0,0.0,0.0,0.0,0.0,0.0,0.0,0.0,0.0,0.0,0.0,0.0,0.0,0.0,0.0,0.0,0.0,0.0,0.0,0.0,0.0,0.0,0.0,0.0,0.0,0.0,0.0,0.0,0.0,0.0,0.0,0.0,0.0,0.0,0.0,0.0,0.0,0.0,0.0,0.0,0.0,0.0,0.0,0.0,0.0,0.0,0.0,0.0,0.0,0.0,0.0,0.0,0.0,0.0,0.0,0.0,0.0,0.0,0.0,0.0,0.0,0.0,0.0,0.0,0.0,0.0,0.0,0.0,0.0,0.0,0.0,0.0,0.0,0.0,0.0,0.0,0.0,0.0,0.0,0.0,0.0,0.0,0.0,0.0,0.0,0.0,0.0,0.0,0.0,0.0,0.0,0.0,0.0,0.0,0.0,0.0,0.0,0.0,0.0,0.0,0.0,0.0,0.0,0.0,0.0,0.0,0.0,0.0,0.0,0.0,0.0,0.0,0.0,0.0,0.0,0.0,0.0,0.0,0.0,0.0,0.0,0.0,0.0,0.0,0.0,0.0,0.0,0.0,0.0,0.0,0.0,0.0,0.0,0.0,0.0,0.0,0.0,0.0,0.0,0.0,0.0,0.0,0.0,0.0,0.0,0.0,0.0,0.0,0.0,0.0,0.0,0.0,0.0,0.0,0.0,0.0,0.0,0.0,0.0,0.0,0.0,0.0,0.0,0.0,0.0,0.0,0.0,0.0,0.0,0.0,0.0,0.0,0.0,0.0,0.0,0.0,0.0,0.0,0.0,0.0,0.0,0.0,0.0,0.0,0.0,0.0,0.0,0.0,0.0,0.0,0.0,0.0,0.0,0.0,0.0,0.0,0.0,0.0,0.0,0.0,0.0,0.0,0.0,0.0,0.0,0.0,0.0,0.0,0.0,0.0,0.0,0.0,0.0,0.0,0.0,0.0,0.0,0.0,0.0,0.0,0.0,0.0,0.0,0.0,0.0,0.0,0.0,0.0,0.0,0.0,0.0,0.0,0.0,0.0,0.0,0.0,0.0,0.0,0.0,0.0,0.0,0.0,0.0,0.0,0.0,0.0,0.0,0.0,0.0,0.0,0.0,0.0,0.0,0.0,0.0,0.0,0.0,0.0,0.0,0.0,0.0,0.0,0.0,0.0,0.0,0.0,0.0,0.0,0.0,0.0,0.0,0.0,0.0,0.0,0.0,0.0,0.0,0.0,0.0,0.0,0.0,0.0,0.0,0.0,0.0,0.0,0.0,0.0,0.0,0.0,0.0,0.0,0.0,0.0,0.0,0.0,0.0,0.0,0.0,0.0,0.0,0.0,0.0,0.0,0.0,0.0,0.0,0.0,0.0,0.0,0.0,0.0,0.0,0.0,0.0,0.0,0.0,0.0,0.0,0.0,0.0,0.0,0.0,0.0,0.0,0.0,0.0,0.0,0.0,0.0,0.0,0.0,0.0,0.0,0.0,0.0,0.0,0.0,0.0,0.0,0.0,0.0,0.0,0.0,0.0,0.0,0.0,0.0,0.0,0.0,0.0,0.0,0.0,0.0,0.0,0.0,0.0,0.0,0.0,0.0,0.0,0.0,0.0,0.0,0.0,0.0,0.0,0.0,0.0,0.0,0.0,0.0,0.0,0.0,0.0,0.0,0.0,0.0,0.0,0.0,0.0,0.0,0.0,0.0,0.0,0.0,0.0,0.0,0.0,0.0,0.0,0.0,0.0,0.0,0.0,0.0,0.0,0.0,0.0,0.0,0.0,0.0,0.0,-2.6281,0.0,0.0,0.0,-2.3264,0.0,0.0,0.0,0.0,0.0,0.0,0.0,0.0,0.0,0.0,0.0,0.0,0.0,0.0,0.0,0.0,0.0,0.0,0.0,0.0,0.0,0.0,0.0,0.0,0.0,0.0,0.0,0.0,0.0,0.0,0.0,0.0,0.0,0.0,0.0,0.0,0.0,0.0,0.0,0.0,0.0,0.0,0.0,0.0,0.0,0.0,0.0,0.0,0.0,0.0,0.0,0.0,0.0,0.0,0.0,0.0,0.0,0.0,0.0,0.0,0.0,0.0,0.0,0.0,0.0,0.0,0.0,0.0,0.0,0.0,0.0,0.0,0.0,0.0,0.0,0.0,0.0,0.0,0.0,0.0,0.0,0.0,0.0,0.0,0.0,0.0,0.0,0.0,0.0,0.0,0.0,0.0,0.0,0.0,0.0,0.0,0.0,0.0,0.0,0.0,0.0,0.0,0.0,0.0,0.0,0.0,0.0,0.0,0.0,0.0,-2.5691,-2.4333,-2.5237,-2.4746,-2.2755,0.0,0.0,0.0,0.0,0.0,0.0,0.0,0.0,0.0,0.0,0.0,0.0,0.0,0.0,0.0,0.0,0.0,0.0,0.0,0.0,0.0,0.0,0.0,0.0,0.0,0.0,0.0,0.0,0.0,0.0,0.0,0.0,0.0,0.0,0.0,0.0,0.0,0.0,0.0,0.0,0.0,0.0,0.0,0.0,0.0,0.0,0.0,0.0,0.0,0.0,0.0,0.0,0.0,0.0,0.0,0.0,0.0,0.0,0.0,0.0,0.0,0.0,0.0,0.0,0.0,0.0,0.0,0.0,0.0,0.0,0.0,0.0,0.0,0.0,0.0,0.0,0.0,0.0,0.0,0.0,0.0,0.0,0.0,0.0,0.0,0.0,0.0,0.0,0.0,0.0,0.0,0.0,0.0,0.0,0.0,0.0,0.0,0.0,0.0,0.0,0.0,0.0,0.0,0.0,0.0,0.0,0.0,0.0,0.0,0.0,0.0,0.0,-2.3618,-2.3308,-2.1738,0.0,0.0,0.0,0.0,0.0,0.0,0.0,0.0,0.0,0.0,0.0,0.0,0.0,0.0,0.0,0.0,0.0,0.0,0.0,0.0,0.0,0.0,0.0,0.0,0.0,0.0,0.0,0.0,0.0,0.0,0.0,0.0,0.0,0.0,0.0,0.0,0.0,0.0,0.0,0.0,0.0,0.0,0.0,0.0,0.0,0.0,0.0,0.0,0.0,0.0,0.0,0.0,0.0,0.0,0.0,0.0,0.0,0.0,0.0,0.0,0.0,0.0,0.0,0.0,0.0,0.0,0.0,0.0,0.0,0.0,0.0,0.0,0.0,0.0,0.0,0.0,0.0,0.0,0.0,0.0,0.0,0.0,0.0,0.0,0.0,0.0,0.0,0.0,0.0,0.0,0.0,0.0,0.0,0.0,0.0,0.0,0.0,0.0,0.0,0.0,0.0,0.0,0.0,0.0,0.0,0.0,0.0,0.0,0.0,0.0,-2.1153,-2.0517,-2.004,0.0,-1.9808,0.0,0.0,0.0,0.0,0.0,0.0,0.0,0.0,0.0,0.0,0.0,0.0,0.0,0.0,0.0,0.0,0.0,0.0,0.0,0.0,0.0,0.0,0.0,0.0,0.0,0.0,0.0,0.0,0.0,0.0,0.0,0.0,0.0,0.0,0.0,0.0,0.0,0.0,0.0,0.0,0.0,0.0,0.0,0.0,0.0,0.0,0.0,0.0,0.0,0.0,0.0,0.0,0.0,0.0,0.0,0.0,0.0,0.0,0.0,0.0,0.0,0.0,0.0,0.0,0.0,0.0,0.0,0.0,0.0,0.0,0.0,0.0,0.0,0.0,0.0,0.0,0.0,0.0,0.0,0.0,0.0,0.0,0.0,0.0,0.0,0.0,0.0,0.0,0.0,0.0,0.0,0.0,0.0,0.0,0.0,0.0,0.0,0.0,0.0,0.0,0.0,0.0,0.0,0.0,0.0,0.0,0.0,0.0,0.0,0.0,-1.7316,-1.6674,-1.6544,-1.6515,0.0,0.0,0.0,0.0,0.0,0.0,0.0,0.0,0.0,0.0,0.0,0.0,0.0,0.0,0.0,0.0,0.0,0.0,0.0,0.0,0.0,0.0,0.0,0.0,0.0,0.0,0.0,0.0,0.0,0.0,0.0,0.0,0.0,0.0,0.0,0.0,0.0,0.0,0.0,0.0,0.0,0.0,0.0,0.0,0.0,0.0,0.0,0.0,0.0,0.0,0.0,0.0,0.0,0.0,0.0,0.0,0.0,0.0,0.0,0.0,0.0,0.0,0.0,0.0,0.0,0.0,0.0,0.0,0.0,0.0,0.0,0.0,0.0,0.0,0.0,0.0,0.0,0.0,0.0,0.0,0.0,0.0,0.0,0.0,0.0,0.0,0.0,0.0,0.0,0.0,0.0,0.0,0.0,0.0,0.0,0.0,0.0,0.0,0.0,0.0,0.0,0.0,0.0,0.0,0.0,0.0,0.0,0.0,0.0,0.0,-1.3555,-1.2917,-1.2527,-1.2596,-1.3074,-1.4032,0.0,0.0,0.0,0.0,0.0,0.0,0.0,0.0,0.0,0.0,0.0,0.0,0.0,0.0,0.0,0.0,0.0,0.0,0.0,0.0,0.0,0.0,0.0,0.0,0.0,0.0,0.0,0.0,0.0,0.0,0.0,0.0,0.0,0.0,0.0,0.0,0.0,0.0,0.0,0.0,0.0,0.0,0.0,0.0,0.0,0.0,0.0,0.0,0.0,0.0,0.0,0.0,0.0,0.0,0.0,0.0,0.0,0.0,0.0,0.0,0.0,0.0,0.0,0.0,0.0,0.0,0.0,0.0,0.0,0.0,0.0,0.0,0.0,0.0,0.0,0.0,0.0,0.0,0.0,0.0,0.0,0.0,0.0,0.0,0.0,0.0,0.0,0.0,0.0,0.0,0.0,0.0,0.0,0.0,0.0,0.0,0.0,0.0,0.0,0.0,0.0,0.0,0.0,0.0,0.0,0.0,0.0,0.0,-1.0115,-0.8709,-0.8042,-0.823,-0.7936,-0.9427,0.0,0.0,0.0,0.0,0.0,0.0,0.0,0.0,0.0,0.0,0.0,0.0,0.0,0.0,0.0,0.0,0.0,0.0,0.0,0.0,0.0,0.0,0.0,0.0,0.0,0.0,0.0,0.0,0.0,0.0,0.0,0.0,0.0,0.0,0.0,0.0,0.0,0.0,0.0,0.0,0.0,0.0,0.0,0.0,0.0,0.0,0.0,0.0,0.0,0.0,0.0,0.0,0.0,0.0,0.0,0.0,0.0,0.0,0.0,0.0,0.0,0.0,0.0,0.0,0.0,0.0,0.0,0.0,0.0,0.0,0.0,0.0,0.0,0.0,0.0,0.0,0.0,0.0,0.0,0.0,0.0,0.0,0.0,0.0,0.0,0.0,0.0,0.0,0.0,0.0,0.0,0.0,0.0,0.0,0.0,0.0,0.0,0.0,0.0,0.0,0.0,0.0,0.0,0.0,0.0,0.0,0.0,0.0,0.0,-0.5339,-0.4983,-0.4916,-0.5175,-0.6603,-0.8851,0.0,0.0,0.0,0.0,0.0,0.0,0.0,0.0,0.0,0.0,0.0,0.0,0.0,0.0,0.0,0.0,0.0,0.0,0.0,0.0,0.0,0.0,0.0,0.0,0.0,0.0,0.0,0.0,0.0,0.0,0.0,0.0,0.0,0.0,0.0,0.0,0.0,0.0,0.0,0.0,0.0,0.0,0.0,0.0,0.0,0.0,0.0,0.0,0.0,0.0,0.0,0.0,0.0,0.0,0.0,0.0,0.0,0.0,0.0,0.0,0.0,0.0,0.0,0.0,0.0,0.0,0.0,0.0,0.0,0.0,0.0,0.0,0.0,0.0,0.0,0.0,0.0,0.0,0.0,0.0,0.0,0.0,0.0,0.0,0.0,0.0,0.0,0.0,0.0,0.0,0.0,0.0,0.0,0.0,0.0,0.0,0.0,0.0,0.0,0.0,0.0,0.0,0.0,0.0,0.0,0.0,0.0,0.0,0.0,-0.1399,0.0,-0.2591,-0.3432,-0.5997,-0.882,0.0,0.0,0.0,0.0,0.0,0.0,0.0,0.0,0.0,0.0,0.0,0.0,0.0,0.0,0.0,0.0,0.0,0.0,0.0,0.0,0.0,0.0,0.0,0.0,0.0,0.0,0.0,0.0,0.0,0.0,0.0,0.0,0.0,0.0,0.0,0.0,0.0,0.0,0.0,0.0,0.0,0.0,0.0,0.0,0.0,0.0,0.0,0.0,0.0,0.0,0.0,0.0,0.0,0.0,0.0,0.0,0.0,0.0,0.0,0.0,0.0,0.0,0.0,0.0,0.0,0.0,0.0,0.0,0.0,0.0,0.0,0.0,0.0,0.0,0.0,0.0,0.0,0.0,0.0,0.0,0.0,0.0,0.0,0.0,0.0,0.0,0.0,0.0,0.0,0.0,0.0,0.0,0.0,0.0,0.0,0.0,0.0,0.0,0.0,0.0,0.0,0.0,0.0,0.0,0.0,0.0,0.0,0.0,0.1481,0.1167,0.0272,-0.119,-0.295,-0.6096,-0.935,0.0,0.0,0.0,0.0,0.0,0.0,0.0,0.0,0.0,0.0,0.0,0.0,0.0,0.0,0.0,0.0,0.0,0.0,0.0,0.0,0.0,0.0,0.0,0.0,0.0,0.0,0.0,0.0,0.0,0.0,0.0,0.0,0.0,0.0,0.0,0.0,0.0,0.0,0.0,0.0,0.0,0.0,0.0,0.0,0.0,0.0,0.0,0.0,0.0,0.0,0.0,0.0,0.0,0.0,0.0,0.0,0.0,0.0,0.0,0.0,0.0,0.0,0.0,0.0,0.0,0.0,0.0,0.0,0.0,0.0,0.0,0.0,0.0,0.0,0.0,0.0,0.0,0.0,0.0,0.0,0.0,0.0,0.0,0.0,0.0,0.0,0.0,0.0,0.0,0.0,0.0,0.0,0.0,0.0,0.0,0.0,0.0,0.0,0.0,0.0,0.0,0.0,0.0,0.0,0.0,0.0,0.0,0.0,0.0,0.0319,-0.1735,-0.3429,-0.4837,-0.7946,-1.1261,0.0,0.0,0.0,0.0,0.0,0.0,0.0,0.0,0.0,0.0,0.0,0.0,0.0,0.0,0.0,0.0,0.0,0.0,0.0,0.0,0.0,0.0,0.0,0.0,0.0,0.0,0.0,0.0,0.0,0.0,0.0,0.0,0.0,0.0,0.0,0.0,0.0,0.0,0.0,0.0,0.0,0.0,0.0,0.0,0.0,0.0,0.0,0.0,0.0,0.0,0.0,0.0,0.0,0.0,0.0,0.0,0.0,0.0,0.0,0.0,0.0,0.0,0.0,0.0,0.0,0.0,0.0,0.0,0.0,0.0,0.0,0.0,0.0,0.0,0.0,0.0,0.0,0.0,0.0,0.0,0.0,0.0,0.0,0.0,0.0,0.0,0.0,0.0,0.0,0.0,0.0,0.0,0.0,0.0,0.0,0.0,0.0,0.0,0.0,0.0,0.0,0.0,0.0,0.0,0.0,0.0,0.0,0.0,0.0,0.0494,-0.1958,-0.4262,-0.6374,-0.9529,-1.2594,-1.5521,0.0,0.0,0.0,0.0,0.0,0.0,0.0,0.0,0.0,0.0,0.0,0.0,0.0,0.0,0.0,0.0,0.0,0.0,0.0,0.0,0.0,0.0,0.0,0.0,0.0,0.0,0.0,0.0,0.0,0.0,0.0,0.0,0.0,0.0,0.0,0.0,0.0,0.0,0.0,0.0,0.0,0.0,0.0,0.0,0.0,0.0,0.0,0.0,0.0,0.0,0.0,0.0,0.0,0.0,0.0,0.0,0.0,0.0,0.0,0.0,0.0,0.0,0.0,0.0,0.0,0.0,0.0,0.0,0.0,0.0,0.0,0.0,0.0,0.0,0.0,0.0,0.0,0.0,0.0,0.0,0.0,0.0,0.0,0.0,0.0,0.0,0.0,0.0,0.0,0.0,0.0,0.0,0.0,0.0,0.0,0.0,0.0,0.0,0.0,0.0,0.0,0.0,0.0,0.0,0.0,0.0,0.0,0.0,0.1335,-0.0961,-0.3821,-0.7449,-1.0686,-1.3368,0.0,0.0,0.0,0.0,0.0,0.0,0.0,0.0,0.0,0.0,0.0,0.0,0.0,0.0,0.0,0.0,0.0,0.0,0.0,0.0,0.0,0.0,0.0,0.0,0.0,0.0,0.0,0.0,0.0,0.0,0.0,0.0,0.0,0.0,0.0,0.0,0.0,0.0,0.0,0.0,0.0,0.0,0.0,0.0,0.0,0.0,0.0,0.0,0.0,0.0,0.0,0.0,0.0,0.0,0.0,0.0,0.0,0.0,0.0,0.0,0.0,0.0,0.0,0.0,0.0,0.0,0.0,0.0,0.0,0.0,0.0,0.0,0.0,0.0,0.0,0.0,0.0,0.0,0.0,0.0,0.0,0.0,0.0,0.0,0.0,0.0,0.0,0.0,0.0,0.0,0.0,0.0,0.0,0.0,0.0,0.0,0.0,0.0,0.0,0.0,0.0,0.0,0.0,0.0,0.0,0.0,0.0,0.0,0.0,-0.1457,-0.2814,-0.4847,-0.7692,-1.0977,-1.3856,0.0,0.0,0.0,0.0,0.0,0.0,0.0,0.0,0.0,0.0,0.0,0.0,0.0,0.0,0.0,0.0,0.0,0.0,0.0,0.0,0.0,0.0,0.0,0.0,0.0,0.0,0.0,0.0,0.0,0.0,0.0,0.0,0.0,0.0,0.0,0.0,0.0,0.0,0.0,0.0,0.0,0.0,0.0,0.0,0.0,0.0,0.0,0.0,0.0,0.0,0.0,0.0,0.0,0.0,0.0,0.0,0.0,0.0,0.0,0.0,0.0,0.0,0.0,0.0,0.0,0.0,0.0,0.0,0.0,0.0,0.0,0.0,0.0,0.0,0.0,0.0,0.0,0.0,0.0,0.0,0.0,0.0,0.0,0.0,0.0,0.0,0.0,0.0,0.0,0.0,0.0,0.0,0.0,0.0,0.0,0.0,0.0,0.0,0.0,0.0,0.0,0.0,0.0,0.0,0.0,0.0,0.0,0.0,-0.2163,-0.232,-0.4009,-0.5586,-0.6994,-1.0731,-1.3572,0.0,0.0,0.0,0.0,0.0,0.0,0.0,0.0,0.0,0.0,0.0,0.0,0.0,0.0,0.0,0.0,0.0,0.0,0.0,0.0,0.0,0.0,0.0,0.0,0.0,0.0,0.0,0.0,0.0,0.0,0.0,0.0,0.0,0.0,0.0,0.0,0.0,0.0,0.0,0.0,0.0,0.0,0.0,0.0,0.0,0.0,0.0,0.0,0.0,0.0,0.0,0.0,0.0,0.0,0.0,0.0,0.0,0.0,0.0,0.0,0.0,0.0,0.0,0.0,0.0,0.0,0.0,0.0,0.0,0.0,0.0,0.0,0.0,0.0,0.0,0.0,0.0,0.0,0.0,0.0,0.0,0.0,0.0,0.0,0.0,0.0,0.0,0.0,0.0,0.0,0.0,0.0,0.0,0.0,0.0,0.0,0.0,0.0,0.0,0.0,0.0,0.0,0.0,0.0,0.0,0.0,0.0,0.0,-0.4332,-0.245,-0.471,-0.6116,-0.6517,-1.0327,-1.2937,0.0,0.0,0.0,0.0,0.0,0.0,0.0,0.0,0.0,0.0,0.0,0.0,0.0,0.0,0.0,0.0,0.0,0.0,0.0,0.0,0.0,0.0,0.0,0.0,0.0,0.0,0.0,0.0,0.0,0.0,0.0,0.0,0.0,0.0,0.0,0.0,0.0,0.0,0.0,0.0,0.0,0.0,0.0,0.0,0.0,0.0,0.0,0.0,0.0,0.0,0.0,0.0,0.0,0.0,0.0,0.0,0.0,0.0,0.0,0.0,0.0,0.0,0.0,0.0,0.0,0.0,0.0,0.0,0.0,0.0,0.0,0.0,0.0,0.0,0.0,0.0,0.0,0.0,0.0,0.0,0.0,0.0,0.0,0.0,0.0,0.0,0.0,0.0,0.0,0.0,0.0,0.0,0.0,0.0,0.0,0.0,0.0,0.0,0.0,0.0,0.0,0.0,0.0,0.0,0.0,0.0,0.0,0.0,-0.5789,-0.5009,-0.5528,-0.6917,-0.9099,-1.0651,-1.1976,0.0,0.0,0.0,0.0,0.0,0.0,0.0,0.0,0.0,0.0,0.0,0.0,0.0,0.0,0.0,0.0,0.0,0.0,0.0,0.0,0.0,0.0,0.0,0.0,0.0,0.0,0.0,0.0,0.0,0.0,0.0,0.0,0.0,0.0,0.0,0.0,0.0,0.0,0.0,0.0,0.0,0.0,0.0,0.0,0.0,0.0,0.0,0.0,-2.083,0.0,0.0,0.0,0.0,0.0,0.0,0.0,0.0,0.0,0.0,0.0,0.0,0.0,0.0,0.0,0.0,0.0,0.0,0.0,0.0,0.0,0.0,0.0,0.0,0.0,0.0,0.0,0.0,0.0,0.0,0.0,0.0,0.0,0.0,0.0,0.0,0.0,0.0,0.0,0.0,0.0,0.0,0.0,0.0,0.0,0.0,0.0,0.0,0.0,0.0,0.0,0.0,0.0,0.0,0.0,0.0,0.0,0.0,0.0,-0.7632,-0.6723,-0.7334,-0.8445,-0.9981,-1.1517,-1.2881,0.0,0.0,0.0,0.0,0.0,0.0,0.0,0.0,0.0,0.0,0.0,0.0,0.0,0.0,0.0,0.0,0.0,0.0,0.0,0.0,0.0,0.0,0.0,0.0,0.0,0.0,0.0,0.0,0.0,0.0,0.0,0.0,0.0,0.0,0.0,0.0,0.0,0.0,0.0,0.0,0.0,0.0,0.0,0.0,0.0,0.0,0.0,0.0,0.0,0.0,0.0,0.0,0.0,0.0,0.0,0.0,0.0,0.0,0.0,0.0,0.0,0.0,0.0,0.0,0.0,0.0,0.0,0.0,0.0,0.0,0.0,0.0,0.0,0.0,0.0,0.0,0.0,0.0,0.0,0.0,0.0,0.0,0.0,0.0,0.0,0.0,0.0,0.0,0.0,0.0,0.0,0.0,0.0,0.0,0.0,0.0,0.0,0.0,0.0,0.0,0.0,0.0,0.0,0.0,0.0,0.0,0.0,-0.9995,-0.9274,-0.7912,-0.9111,-0.9953,-1.0334,-1.2785,-1.4571,-1.5333,0.0,0.0,0.0,0.0,0.0,0.0,0.0,0.0,0.0,0.0,0.0,0.0,0.0,0.0,0.0,0.0,0.0,0.0,0.0,0.0,0.0,0.0,0.0,0.0,0.0,0.0,0.0,0.0,0.0,0.0,0.0,0.0,0.0,0.0,0.0,0.0,0.0,0.0,-1.6281,-1.2563,0.0,0.0,0.0,0.0,0.0,0.0,0.0,0.0,-2.172,0.0,0.0,0.0,0.0,0.0,0.0,0.0,0.0,0.0,0.0,0.0,0.0,0.0,0.0,0.0,0.0,0.0,0.0,0.0,0.0,0.0,0.0,0.0,0.0,0.0,0.0,0.0,0.0,0.0,0.0,0.0,0.0,0.0,0.0,0.0,0.0,0.0,0.0,0.0,0.0,0.0,0.0,0.0,0.0,0.0,0.0,0.0,0.0,0.0,0.0,0.0,0.0,0.0,0.0,0.0,0.0,-1.1541,-1.0326,-0.9484,-0.8919,-0.9288,-1.0126,-1.1467,-1.4004,-1.5937,-1.7091,0.0,0.0,0.0,0.0,0.0,0.0,0.0,0.0,0.0,0.0,0.0,0.0,0.0,0.0,0.0,0.0,0.0,0.0,0.0,0.0,0.0,0.0,0.0,0.0,0.0,0.0,0.0,0.0,0.0,0.0,0.0,0.0,0.0,0.0,0.0,0.0,0.0,0.0,0.0,-1.1657,-1.0304,0.0,0.0,0.0,0.0,0.0,0.0,0.0,0.0,-2.2482,0.0,0.0,0.0,0.0,0.0,0.0,0.0,0.0,0.0,0.0,0.0,0.0,0.0,0.0,0.0,0.0,0.0,0.0,0.0,0.0,0.0,0.0,0.0,0.0,0.0,0.0,0.0,0.0,0.0,0.0,0.0,0.0,0.0,0.0,0.0,0.0,0.0,0.0,0.0,0.0,0.0,0.0,0.0,0.0,0.0,0.0,0.0,0.0,0.0,0.0,0.0,0.0,0.0,0.0,0.0,-1.2046,-1.1642,-1.1245,-1.0523,-1.1296,-1.202,-1.2819,-1.4615,-1.628,0.0,0.0,0.0,0.0,0.0,0.0,0.0,0.0,0.0,0.0,0.0,0.0,0.0,0.0,0.0,0.0,0.0,0.0,0.0,0.0,0.0,0.0,0.0,0.0,0.0,0.0,0.0,0.0,0.0,0.0,0.0,0.0,0.0,0.0,0.0,0.0,0.0,0.0,0.0,0.0,-1.238,-1.0872,-1.2662,0.0,0.0,0.0,0.0,0.0,0.0,-2.0922,-2.2069,0.0,0.0,0.0,0.0,0.0,0.0,0.0,0.0,0.0,0.0,0.0,0.0,0.0,0.0,0.0,0.0,0.0,0.0,0.0,0.0,0.0,0.0,0.0,0.0,0.0,0.0,0.0,0.0,0.0,0.0,0.0,0.0,0.0,0.0,0.0,0.0,0.0,0.0,0.0,0.0,0.0,0.0,0.0,0.0,0.0,0.0,0.0,0.0,0.0,0.0,0.0,0.0,0.0,0.0,0.0,-1.2638,-1.3123,-1.2961,-1.2061,-1.3105,-1.3884,-1.4248,-1.5531,-1.7004,0.0,0.0,0.0,0.0,0.0,0.0,0.0,0.0,0.0,0.0,0.0,0.0,0.0,0.0,0.0,0.0,0.0,0.0,0.0,0.0,0.0,0.0,0.0,0.0,0.0,0.0,0.0,0.0,0.0,0.0,0.0,0.0,0.0,0.0,0.0,0.0,0.0,0.0,0.0,0.0,0.0,-1.2416,-1.4015,-1.3975,0.0,0.0,0.0,0.0,-2.0657,-2.0683,0.0,0.0,0.0,0.0,0.0,0.0,0.0,0.0,0.0,0.0,0.0,0.0,0.0,0.0,0.0,0.0,0.0,0.0,0.0,0.0,0.0,0.0,0.0,0.0,0.0,0.0,0.0,0.0,0.0,0.0,0.0,0.0,0.0,0.0,0.0,0.0,0.0,0.0,0.0,0.0,0.0,0.0,0.0,0.0,0.0,0.0,0.0,0.0,0.0,0.0,0.0,0.0,0.0,0.0,0.0,0.0,-1.4787,-1.4145,-1.3668,-1.3047,-1.3483,-1.4248,-1.5344,-1.7705,-1.9287,0.0,0.0,0.0,0.0,0.0,0.0,0.0,0.0,0.0,0.0,0.0,0.0,0.0,0.0,0.0,0.0,0.0,0.0,0.0,0.0,0.0,0.0,0.0,0.0,0.0,0.0,0.0,0.0,0.0,0.0,0.0,0.0,0.0,0.0,0.0,0.0,0.0,0.0,0.0,0.0,0.0,-1.57,-1.4122,-1.4306,-1.5005,0.0,0.0,-1.8319,-1.967,-2.1194,0.0,0.0,0.0,0.0,0.0,0.0,0.0,0.0,0.0,0.0,0.0,0.0,0.0,0.0,0.0,0.0,0.0,0.0,0.0,0.0,0.0,0.0,0.0,0.0,0.0,0.0,0.0,0.0,0.0,0.0,0.0,0.0,0.0,0.0,0.0,0.0,0.0,0.0,0.0,0.0,0.0,0.0,0.0,0.0,0.0,0.0,0.0,0.0,0.0,0.0,0.0,0.0,0.0,0.0,0.0,-1.7471,-1.5741,-1.6147,-1.6199,-1.5759,-1.591,-1.6508,-1.7766,-1.8749,-1.9474,0.0,0.0,0.0,0.0,0.0,0.0,0.0,0.0,0.0,0.0,0.0,0.0,0.0,0.0,0.0,0.0,0.0,0.0,0.0,0.0,0.0,0.0,0.0,0.0,0.0,0.0,0.0,0.0,0.0,0.0,0.0,0.0,0.0,0.0,0.0,0.0,0.0,0.0,0.0,0.0,0.0,0.0,-1.5553,-1.5865,0.0,0.0,0.0,-1.976,-2.0859,0.0,0.0,0.0,0.0,0.0,0.0,0.0,0.0,0.0,0.0,0.0,0.0,0.0,0.0,0.0,0.0,0.0,0.0,0.0,0.0,0.0,0.0,0.0,0.0,0.0,0.0,0.0,0.0,0.0,0.0,0.0,0.0,0.0,0.0,0.0,0.0,0.0,0.0,0.0,0.0,0.0,0.0,0.0,0.0,0.0,0.0,0.0,0.0,0.0,0.0,0.0,0.0,0.0,0.0,0.0,0.0,0.0,-1.7117,-1.837,-1.8734,-1.8326,-1.8264,-1.8851,-1.9943,-1.9686,0.0,0.0,0.0,0.0,0.0,0.0,0.0,0.0,0.0,0.0,0.0,0.0,0.0,0.0,0.0,0.0,0.0,0.0,0.0,0.0,0.0,0.0,0.0,0.0,0.0,0.0,0.0,-2.4329,0.0,0.0,0.0,0.0,0.0,0.0,0.0,0.0,0.0,0.0,0.0,0.0,0.0,0.0,-1.6819,-1.7062,-1.7631,-1.8416,0.0,0.0,-2.1208,-2.1886,-2.3496,-2.4873,0.0,0.0,0.0,0.0,0.0,0.0,0.0,0.0,0.0,0.0,0.0,0.0,0.0,0.0,0.0,0.0,0.0,0.0,0.0,0.0,0.0,0.0,0.0,0.0,0.0,0.0,0.0,0.0,0.0,0.0,0.0,0.0,0.0,0.0,0.0,0.0,0.0,0.0,0.0,0.0,0.0,0.0,0.0,0.0,0.0,0.0,0.0,0.0,0.0,0.0,0.0,0.0,0.0,0.0,-1.9788,-1.9796,-2.0588,-2.0706,-1.9975,-1.9898,-2.0289,-2.1123,-2.0826,-2.0983,0.0,0.0,0.0,0.0,0.0,0.0,0.0,0.0,0.0,0.0,0.0,0.0,0.0,0.0,0.0,0.0,0.0,0.0,0.0,0.0,0.0,0.0,0.0,0.0,0.0,0.0,0.0,0.0,0.0,0.0,0.0,0.0,0.0,0.0,0.0,0.0,0.0,0.0,0.0,0.0,0.0,-2.0011,-1.8371,-1.9615,-2.0826,0.0,-2.1579,-2.196,-2.2034,-2.4264,-2.6024,-2.6335,0.0,0.0,0.0,0.0,0.0,0.0,0.0,0.0,0.0,0.0,0.0,0.0,0.0,0.0,0.0,0.0,0.0,0.0,0.0,0.0,0.0,0.0,0.0,0.0,0.0,0.0,0.0,0.0,0.0,0.0,0.0,0.0,0.0,0.0,0.0,0.0,0.0,0.0,0.0,0.0,0.0,0.0,0.0,0.0,0.0,0.0,0.0,0.0,0.0,0.0,0.0,0.0,0.0,-2.0638,-2.0481,-2.1284,-2.1588,-2.1252,-2.1261,-2.1634,-2.2413,-2.2006,-2.1748,0.0,0.0,0.0,0.0,0.0,0.0,0.0,0.0,0.0,0.0,0.0,0.0,0.0,0.0,0.0,0.0,0.0,0.0,0.0,0.0,0.0,0.0,0.0,0.0,0.0,0.0,0.0,0.0,-2.2499,-2.2128,-2.2924,0.0,0.0,0.0,0.0,0.0,0.0,0.0,0.0,0.0,0.0,-2.0401,-1.9447,-2.0942,0.0,0.0,-2.3006,-2.3518,-2.3518,-2.5519,-2.6628,-2.5174,-2.6575,0.0,0.0,0.0,0.0,0.0,0.0,0.0,0.0,0.0,0.0,0.0,0.0,0.0,0.0,0.0,0.0,0.0,0.0,0.0,0.0,0.0,0.0,0.0,0.0,0.0,0.0,0.0,0.0,0.0,0.0,0.0,0.0,0.0,0.0,0.0,0.0,0.0,0.0,0.0,0.0,0.0,0.0,0.0,0.0,0.0,0.0,0.0,0.0,0.0,0.0,0.0,0.0,-2.1345,-2.1604,-2.274,-2.3281,-2.3189,-2.3534,-2.39,-2.4059,-2.3584,-2.292,0.0,0.0,0.0,0.0,0.0,0.0,0.0,0.0,0.0,0.0,0.0,0.0,0.0,0.0,0.0,0.0,0.0,0.0,0.0,0.0,0.0,0.0,0.0,0.0,0.0,0.0,0.0,0.0,-2.232,-2.2213,-2.3429,0.0,0.0,0.0,0.0,0.0,0.0,0.0,0.0,0.0,0.0,-2.0891,-2.0636,-2.2008,-2.3162,-2.3376,-2.3718,-2.4072,-2.4209,-2.6024,-2.6708,-2.4984,0.0,0.0,0.0,0.0,0.0,0.0,0.0,0.0,0.0,0.0,0.0,0.0,0.0,0.0,0.0,0.0,0.0,0.0,0.0,0.0,0.0,0.0,0.0,0.0,0.0,0.0,0.0,-2.1252,0.0,0.0,-2.1532,0.0,0.0,0.0,0.0,0.0,0.0,0.0,0.0,0.0,0.0,0.0,0.0,0.0,0.0,0.0,0.0,0.0,0.0,0.0,0.0,0.0,0.0,-2.206,-2.3721,-2.5265,-2.6051,-2.5982,-2.7118,-2.7264,-2.6423,-2.5451,-2.4692,-2.4091,0.0,0.0,0.0,0.0,0.0,0.0,0.0,0.0,0.0,0.0,0.0,0.0,0.0,0.0,0.0,0.0,0.0,0.0,0.0,0.0,0.0,0.0,0.0,0.0,0.0,0.0,-2.3125,-2.1795,-2.1461,0.0,0.0,0.0,0.0,0.0,0.0,0.0,0.0,0.0,-1.9314,-2.0788,-2.1951,-2.1924,-2.2975,-2.3894,-2.4273,-2.3721,-2.332,-2.384,-2.5412,-2.6494,0.0,0.0,0.0,0.0,0.0,0.0,0.0,0.0,0.0,0.0,0.0,0.0,0.0,0.0,0.0,0.0,0.0,0.0,0.0,0.0,0.0,0.0,0.0,0.0,0.0,0.0,0.0,-2.4199,-2.3888,0.0,0.0,0.0,0.0,0.0,0.0,0.0,0.0,0.0,0.0,0.0,-2.5341,-2.5886,0.0,0.0,0.0,0.0,0.0,0.0,0.0,0.0,0.0,0.0,0.0,0.0,-2.332,-2.4481,-2.6001,-2.6834,-2.6758,-2.7189,-2.7048,-2.6494,-2.5508,-2.4536,-2.3607,0.0,0.0,0.0,0.0,0.0,0.0,0.0,0.0,0.0,0.0,0.0,0.0,0.0,0.0,0.0,0.0,0.0,0.0,0.0,0.0,0.0,0.0,0.0,0.0,0.0,-2.508,0.0,0.0,0.0,0.0,0.0,0.0,0.0,0.0,0.0,0.0,-2.1749,-2.1933,-2.0749,-2.2362,-2.3347,-2.2786,-2.393,-2.4958,0.0,0.0,0.0,0.0,0.0,0.0,0.0,0.0,0.0,0.0,0.0,0.0,0.0,-3.3307,-3.3433,-3.1162,-2.9364,-2.7856,-2.6725,0.0,0.0,0.0,0.0,0.0,0.0,0.0,0.0,0.0,0.0,0.0,0.0,0.0,0.0,-2.5481,-2.5723,-2.6154,0.0,0.0,0.0,0.0,0.0,0.0,0.0,0.0,-2.5599,-2.6631,-2.7128,-2.7531,-2.752,-2.7046,-2.6222,-2.4673,0.0,0.0,0.0,0.0,0.0,0.0,0.0,0.0,-2.4114,-2.4851,-2.6763,-2.7706,-2.7706,-2.8124,-2.7976,-2.7357,-2.6188,-2.4897,-2.3562,-2.3147,-2.2886,0.0,0.0,0.0,0.0,0.0,0.0,0.0,0.0,0.0,0.0,0.0,0.0,0.0,0.0,0.0,0.0,0.0,0.0,0.0,0.0,0.0,0.0,0.0,-2.5037,0.0,0.0,0.0,0.0,0.0,0.0,0.0,0.0,0.0,-2.3013,-2.3675,-2.3927,-2.289,-2.3831,-2.4365,-2.3794,0.0,0.0,0.0,0.0,0.0,0.0,0.0,-2.8244,-2.7255,-2.8219,-2.8955,-2.8292,-3.0097,-3.1835,-3.2193,0.0,0.0,-3.1467,-2.9293,-2.7629,-2.6702,-2.4931,-2.3485,-2.3364,-2.3425,-2.3477,0.0,0.0,0.0,0.0,-2.3164,0.0,0.0,0.0,-2.4999,-2.5652,0.0,-2.7258,0.0,0.0,0.0,0.0,-2.5094,-2.4999,0.0,0.0,-2.6395,-2.7527,-2.8143,-2.8247,-2.8155,-2.8167,-2.8549,-2.7409,-2.4935,-2.4059,0.0,0.0,0.0,0.0,0.0,0.0,-2.4502,-2.5031,-2.7647,-2.8927,-2.8927,-3.0041,-3.0121,-2.89,-2.7377,-2.5686,-2.4155,-2.4405,-2.4004,-2.2485,-2.3879,0.0,0.0,0.0,0.0,0.0,0.0,0.0,0.0,0.0,0.0,0.0,0.0,0.0,0.0,0.0,0.0,0.0,0.0,0.0,0.0,-2.4677,0.0,0.0,0.0,0.0,0.0,0.0,0.0,0.0,0.0,-2.6187,-2.6591,-2.6577,-2.6318,-2.5635,0.0,0.0,0.0,0.0,-2.5294,-2.64,-2.6565,-2.6648,-2.6648,-2.7533,-2.8187,-2.8176,0.0,0.0,-2.9854,-3.1148,-3.178,-3.0859,-3.1574,-3.2528,-3.3508,-3.0902,-2.8722,-2.8411,-2.5586,-2.3456,-2.3594,-2.3409,-2.3213,-2.5693,0.0,0.0,0.0,0.0,-2.4105,-2.5423,-2.7148,-2.7542,-2.8398,-2.9419,-2.9209,0.0,0.0,0.0,0.0,0.0,0.0,-2.7105,-2.7094,-2.8757,-2.967,-2.988,-3.0239,-2.998,-2.9213,-2.8976,-2.8043,-2.6532,-2.6653,-2.5694,-2.3619,0.0,0.0,0.0,0.0,-2.6771,-2.7244,-2.9378,-3.0573,-3.0496,-3.1479,-3.1169,-2.9386,-2.7704,-2.6078,-2.4607,-2.3966,-2.359,-2.3514,-2.4111,0.0,0.0,0.0,0.0,0.0,0.0,0.0,0.0,0.0,0.0,0.0,0.0,0.0,0.0,0.0,0.0,0.0,0.0,0.0,-2.816,-2.6346,-2.5575,0.0,0.0,0.0,0.0,0.0,0.0,0.0,0.0,0.0,-2.937,-2.7998,-2.6741,0.0,0.0,-2.6348,-2.6019,-2.6696,-2.7267,-2.7602,-2.8359,0.0,-2.887,-2.9118,-2.9275,-2.9275,-2.9936,-3.0495,-3.0871,-3.1323,-3.1524,-3.1198,-3.1411,-3.1625,-3.143,-2.9486,-2.7551,-2.6464,-2.487,-2.3574,-2.3376,-2.3456,-2.3506,-2.7703,-2.6857,-2.4904,-2.3935,-2.384,-2.4492,-2.5786,-2.7516,-2.8292,-2.9375,-3.057,-3.0043,-2.9541,-2.9013,-2.7726,0.0,0.0,0.0,-2.8084,-2.8187,-2.9609,-3.0294,-3.0306,-3.062,-3.0412,-2.9715,-2.9399,-2.8664,-2.7552,-2.8354,-2.7782,-2.585,0.0,-2.6405,-2.5824,-2.6843,-2.7591,-2.805,-2.9661,-3.0626,-3.0985,-3.1307,-3.0911,-2.9645,-2.8101,-2.6854,-2.5785,-2.4823,-2.4393,-2.4583,-2.4864,-2.5252,0.0,0.0,0.0,0.0,0.0,0.0,0.0,0.0,0.0,0.0,0.0,-3.0704,-2.9938,0.0,0.0,0.0,-2.742,-2.7888,-2.8258,-2.7346,0.0,0.0,0.0,0.0,0.0,0.0,0.0,-2.814,-2.9106,-2.9905,-3.0244,-2.9024,-2.7964,-2.752,-2.7506,-2.7298,-2.6898,0.0,-2.7873,-2.807,-2.8696,-2.9202,-2.9415,-2.9453,-2.9528,-2.9754,-3.0055,-3.0369,-3.0683,-3.0934,-3.0997,-3.0846,-3.0934,-3.0909,-3.0382,-2.8805,-2.7288,-2.6064,-2.4985,-2.4018,-2.3291,-2.3359,-2.3447,-3.0019,-2.9709,-2.6115,-2.4463,-2.4227,-2.475,-2.5652,-2.6775,-2.7799,-2.9151,-3.057,-3.003,-3.008,-3.0428,-2.8906,0.0,-2.8255,-2.8267,-2.8255,-2.8255,-2.9365,-2.9779,-2.9779,-2.9754,-2.9729,-2.9729,-2.9679,-2.9139,-2.8203,-2.9139,-2.9139,-2.8136,-2.8136,-2.7422,-2.6155,-2.7018,-2.7663,-2.8031,-2.9073,-3.0008,-3.0784,-3.027,-2.9965,-2.9886,-2.8685,-2.7759,-2.7221,-2.6514,-2.5907,-2.5467,-2.5923,-2.6288,-2.6428,0.0,0.0,0.0,0.0,0.0,0.0,0.0,0.0,0.0,0.0,0.0,0.0,0.0,0.0,-2.6918,-2.6678,0.0,-2.7549,-2.8041,0.0,0.0,0.0,-2.88,-2.7758,-2.8941,-2.9509,-2.8335,0.0,0.0,-2.9729,-2.9793,-2.9633,-2.9096,-2.8611,-2.8064,-2.746,-2.7555,-2.7682,-2.8235,-2.8341,-2.8505,-2.9134,-2.9211,-2.9363,-2.9821,-2.9884,-2.9923,-2.9897,-3.0161,-3.0209,-2.9741,-3.0105,-3.0294,-2.9754,-2.8767,-2.7777,-2.6676,-2.5689,-2.461,-2.357,-2.324,-2.3231,-3.0019,-2.9802,-2.7918,-2.6986,-2.6988,-2.7224,-2.7731,-2.841,-2.912,-2.9845,-3.0583,-3.003,-2.9867,-2.998,-2.9596,-2.9378,-2.9365,-2.9365,-2.9365,-2.9456,-2.9714,-2.9779,-2.9767,-2.934,-2.9139,-2.9114,-2.8712,-2.8338,-2.8102,-2.835,-2.835,-2.8102,-2.8102,-2.8087,-2.8182,-2.8644,-2.8931,-2.9073,-3.0649,-3.1882,-3.2727,-3.2188,-3.1529,-3.0897,-2.9166,-2.7979,-2.7193,-2.6171,-2.555,-2.5412,-2.6046,-2.6212,-2.579,-2.6704,0.0,0.0,0.0,0.0,0.0,0.0,0.0,0.0,0.0,-3.0826,-2.8915,0.0,-2.8368,0.0,-2.6956,-2.799,-3.0064,-3.0045,0.0,0.0,-3.1663,-3.1309,-3.0348,-3.0654,-3.0456,-2.9521,-3.0254,-3.0452,-2.9252,-2.9776,-3.0173,-3.0067,-2.9694,-2.9155,-2.8622,-2.9074,-2.9374,-2.9145,-2.9552,-3.0035,-3.01,-3.0196,-3.0194,-3.0398,-3.0425,-3.0214,-2.9614,-2.9561,-2.9409,-2.8684,-2.895,-2.9076,-2.8649,-2.8583,-2.8142,-2.6884,-2.6253,-2.5689,-2.4284,-2.396,-2.3617,-3.1227,-3.092,-2.9848,-2.9366,-2.9094,-2.836,-2.8009,-2.7918,-2.9253,-2.9967,-3.0218,-2.9917,-2.9779,-2.9779,-2.9779,-2.9654,-2.9428,-2.9679,-2.9528,-2.9063,-2.9289,-2.9277,-2.9038,-2.8712,-2.8436,-2.8197,-2.8122,-2.7984,-2.7758,-2.7984,-2.8109,-2.8097,-2.8239,-2.8408,-2.8677,-2.8643,-2.9078,-3.0131,-3.1579,-3.2899,-3.3948,-3.3316,-3.2802,-3.2302,-3.0391,-2.9064,-2.8254,-2.7035,-2.6375,-2.6375,-2.6759,-2.6806,-2.6454,-2.6881,-2.6946,0.0,0.0,0.0,0.0,0.0,0.0,0.0,0.0,0.0,0.0,0.0,-2.9013,-2.8542,-2.8491,-2.9432,-3.1653,-3.1532,-3.1694,-3.2494,-3.2593,-3.2379,-3.1888,-3.1815,-3.1609,-3.1132,-3.1249,-3.1029,-3.0217,-3.0326,-3.0505,-3.0505,-3.0302,-3.0045,-2.9862,-2.9927,-2.9818,-2.9322,-2.9602,-2.9976,-3.0209,-3.0431,-3.0609,-3.0609,-3.0609,-3.0242,-2.9247,-2.9223,-2.9034,-2.8037,-2.8185,-2.8473,-2.8197,-2.8325,-2.8201,-2.7533,-2.7218,-2.6317,-2.4309,-2.3798,-2.3391,-3.2742,-3.2164,-3.1625,-3.1004,-3.0306,-2.8846,-2.7716,-2.7058,-2.8961,-2.9779,-2.9779,-2.9716,-2.9691,-2.9679,-2.9679,-2.9365,-2.8875,-2.9352,-2.9051,-2.8147,-2.8599,-2.8574,-2.8109,-2.7959,-2.7645,-2.7218,-2.7519,-2.7469,-2.708,-2.7687,-2.7965,-2.8062,-2.8382,-2.8638,-2.8678,-2.8198,-2.9027,-3.1232,-3.2235,-3.3338,-3.4494,-3.3918,-3.3572,-3.3497,-3.1638,-3.0283,-2.9604,-2.8368,-2.7745,-2.776,-2.7835,-2.7835,-2.7709,-2.7156,-2.7066,0.0,-2.756,0.0,0.0,0.0,0.0,0.0,0.0,0.0,0.0,-2.9135,-2.9582,-3.0715,-3.0397,-3.0904,-3.2499,-3.2778,-3.282,-3.2961,-3.2961,-3.2862,-3.2722,-3.2624,-3.261,-3.2386,-3.1903,-3.1626,-3.1282,-3.0923,-3.0673,-3.066,-3.0414,-3.0439,-3.0787,-3.0415,-2.9841,-2.9212,-2.9254,-2.9813,-3.0079,-3.0383,-3.062,-3.0582,-3.048,-2.9951,-2.8572,-2.8703,-2.8625,-2.7462,-2.7482,-2.7821,-2.7808,-2.7798,-2.7823,-2.7612,-2.757,-2.6776,-2.4551,-2.3827,-2.3265,-3.2729,-3.2164,-3.1625,-3.056,-2.9229,-2.886,-2.8957,-2.9209,-2.9624,-2.9779,-2.9754,-2.9302,-2.9101,-2.9089,-2.9089,-2.8787,-2.8273,-2.836,-2.831,-2.8109,-2.821,-2.821,-2.8047,-2.7193,-2.6716,-2.6565,-2.5812,-2.5611,-2.5912,-2.6736,-2.734,-2.7798,-2.8514,-2.9218,-2.9955,0.0,0.0,0.0,-3.3033,-3.3559,-3.3774,-3.3662,-3.3351,-3.2796,-3.1368,0.0,-2.9604,-2.8816,-2.8412,-2.8412,-2.8906,0.0,0.0,0.0,0.0,0.0,0.0,0.0,0.0,0.0,0.0,0.0,-3.1351,-3.0955,-3.0162,-2.9827,-2.9893,-3.0608,-3.0993,-3.1776,-3.2915,-3.3454,-3.4041,-3.4854,-3.492,-3.4434,-3.3178,-3.3025,-3.2489,-3.113,-3.1583,-3.1528,-3.046,-3.0642,-3.1082,-3.0968,-3.0164,-3.0125,-3.1204,-3.0964,-3.062,-3.0215,-3.0451,-3.0984,-3.1191,-3.0749,-3.0499,-3.044,-3.0057,-2.9247,-2.7889,-2.7537,-2.726,-2.6146,-2.6377,-2.6615,-2.6201,-2.6445,-2.6695,-2.6145,-2.6095,-2.5931,-2.5444,-2.5339,-2.474,-3.3366,-3.2555,-3.2791,-3.1759,0.0,-2.9742,-2.9527,-2.9352,-2.9076,-2.8963,-2.8925,-2.9142,-2.9134,-2.9134,-2.9134,-2.8826,-2.8299,-2.8176,-2.7808,-2.7293,-2.7293,-2.713,-2.6841,-2.6391,-2.6051,-2.5846,-2.584,-2.587,-2.5972,-2.6952,-2.7584,-2.788,-2.9039,-3.0029,-3.0778,-3.152,-3.2269,-3.3054,-3.3759,-3.4415,-3.5119,-3.4806,-3.4282,-3.3656,-3.2309,0.0,0.0,0.0,0.0,0.0,0.0,0.0,0.0,-2.8278,0.0,-2.8068,-2.8083,-2.8233,-2.8592,-2.9205,-2.9729,-3.0058,-3.0387,-3.0651,-3.0852,-3.0373,-3.0488,-3.1418,-3.184,-3.2364,-3.3226,-3.3548,-3.3932,-3.4439,-3.4517,-3.4163,-3.3471,-3.327,-3.2995,-3.2263,-3.2198,-3.1839,-3.0769,-3.0988,-3.1057,-3.0529,-3.0162,-3.0026,-3.0455,-3.0465,-3.0221,-3.0044,-3.0878,-3.1228,-3.0717,-3.0627,-3.0357,-3.0103,-2.9789,-2.8869,-2.7083,-2.7,-2.6681,-2.5243,-2.5272,-2.5536,-2.5347,-2.548,-2.5543,-2.5278,-2.5215,-2.519,-2.5283,-2.5163,-2.4578,-3.3727,-3.275,-3.3786,-3.303,-3.0982,-3.0441,-2.9593,-2.8461,-2.8122,0.0,0.0,-2.9021,-2.9293,-2.9432,-2.9432,-2.9045,-2.8368,-2.8023,-2.7309,-2.6382,-2.6214,-2.598,-2.5686,-2.5725,-2.5585,-2.5342,-2.6258,-2.6538,-2.6235,-2.7377,-2.7963,-2.8163,-2.96,-3.0807,-3.1723,-3.2752,-3.3502,-3.3951,-3.4352,-3.5218,-3.6518,-3.596,-3.5305,-3.4707,-3.3303,-3.2013,-3.0739,-2.9478,-2.8756,-2.8757,-2.8218,-2.8128,-2.8547,-2.8053,-2.7949,-2.8382,-2.8412,-2.8218,-2.785,-2.8786,-2.922,-2.8801,-2.9357,-3.0183,-3.1255,-3.072,-3.0865,-3.2228,-3.2452,-3.2796,-3.3427,-3.3607,-3.3653,-3.3653,-3.3774,-3.3804,-3.3396,-3.3487,-3.3351,-3.3186,-3.2572,-3.2078,-3.1334,-3.123,-3.0941,-2.9953,-2.9854,-2.9939,-2.943,-2.9465,-2.9704,-2.9734,-3.0421,-3.0746,-2.9983,-2.9819,-2.9953,-2.949,-2.928,-2.8552,-2.706,-2.6775,-2.6272,-2.4677,-2.4583,-2.476,-2.4682,-2.4693,-2.4682,-2.4682,-2.4695,-2.4732,-2.4768,-2.448,-2.3922,-3.2685,-3.2233,-3.3125,-3.2372,-3.0428,-2.9905,-2.8555,-2.6924,-2.7231,-2.8061,-2.9227,-2.8759,-2.9013,-2.9761,-2.9761,-2.9052,-2.7828,-2.7289,-2.6568,-2.5686,-2.5259,-2.5358,-2.5811,-2.5398,-2.5514,-2.598,-2.574,-2.5825,-2.6282,-2.7103,-2.7796,-2.8412,-2.9736,-3.1424,-3.3097,-3.2788,-3.347,-3.5268,-3.4779,-3.4925,-3.5757,-3.5673,-3.5304,-3.4626,-3.3264,-3.2176,-3.1464,-3.0109,-2.9424,-2.9454,-2.9355,-2.9086,-2.8637,-2.8472,-2.8248,-2.7769,-2.7724,-2.7919,-2.8412,-2.8637,-2.8951,-2.9454,-3.0007,-3.0479,-3.0623,-3.0514,-3.0812,-3.1614,-3.2182,-3.2808,-3.3464,-3.3967,-3.426,-3.4364,-3.4914,-3.4613,-3.2945,-3.3175,-3.3077,-3.2075,-3.1749,-3.142,-3.0791,-3.0657,-3.0372,-2.9669,-2.9146,-2.8667,-2.8323,-2.8861,-2.9505,-2.9594,-2.9714,-2.9774,-2.9475,-2.9131,-2.8951,-2.8757,-2.8293,-2.7691,-2.6687,-2.6557,-2.6176,-2.513,-2.5022,-2.4858,-2.4354,-2.4129,-2.418,-2.4267,-2.4192,-2.4243,-2.4519,-2.424,-2.3901,-3.3608,-3.3706,-3.4626,-3.355,-3.1026,-2.9104,-2.7674,-2.6696,-2.7237,-2.7884,-2.8543,-2.9176,-2.9722,-3.0066,-3.0051,-2.9708,-2.9038,-2.8007,-2.7296,-2.685,-2.5942,-2.5714,-2.6026,-2.5574,-2.5466,-2.5805,-2.5606,-2.5842,-2.6448,-2.7193,-2.788,-2.8596,-3.0586,-3.2143,-3.296,-3.2978,-3.3611,-3.4962,-3.4675,-3.4861,-3.5605,-3.5639,-3.5069,-3.4016,-3.334,-3.2559,-3.1536,-3.0541,-2.9855,-2.9556,-2.9236,-2.8682,-2.8105,-2.7709,-2.753,-2.7595,-2.728,-2.7335,-2.7993,-2.8379,-2.8702,-2.8992,-2.9539,-3.0049,-3.0437,-3.0758,-3.1269,-3.1935,-3.2323,-3.2796,-3.3486,-3.3817,-3.4006,-3.4006,-3.4345,-3.4111,-3.3357,-3.3333,-3.3154,-3.2231,-3.1784,-3.1146,-3.0143,-3.0013,-2.9579,-2.8697,-2.8188,-2.7904,-2.7619,-2.812,-2.8554,-2.8599,-2.9086,-2.9175,-2.8719,-2.8607,-2.8427,-2.8128,-2.7784,-2.7321,-2.6669,-2.6496,-2.6127,-2.5447,-2.5256,-2.5141,-2.4747,-2.4774,-2.4622,-2.418,-2.3852,-2.3734,-2.3495,-2.3238,-2.3213,-3.4482,-3.479,-3.5821,-3.4476,-3.1378,-2.8283,-2.6854,-2.6763,-2.7311,-2.7795,-2.8238,-2.9633,-3.0317,-3.038,-3.0511,-3.0377,-2.9935,-2.8862,-2.8144,-2.7726,-2.6734,-2.624,-2.6217,-2.5773,-2.5568,-2.5712,-2.566,-2.5869,-2.6393,-2.7036,-2.7784,-2.8748,-3.0804,-3.2111,-3.2609,-3.2813,-3.3423,-3.4404,-3.4167,-3.437,-3.5036,-3.5115,-3.4589,-3.3587,-3.3309,-3.2692,-3.1677,-3.081,-3.0147,-2.9701,-2.8776,-2.804,-2.7588,-2.6804,-2.6602,-2.7021,-2.6647,-2.6744,-2.7542,-2.8136,-2.8529,-2.8685,-2.9271,-2.9826,-3.0357,-3.0981,-3.1597,-3.2158,-3.2185,-3.2572,-3.3365,-3.3577,-3.3561,-3.3561,-3.3711,-3.358,-3.3201,-3.3219,-3.2965,-3.2273,-3.1672,-3.0852,-2.975,-2.937,-2.8906,-2.7919,-2.756,-2.756,-2.7625,-2.7675,-2.7765,-2.779,-2.8471,-2.8771,-2.7906,-2.8096,-2.8135,-2.7619,-2.7575,-2.7357,-2.693,-2.6774,-2.6328,-2.5711,-2.5563,-2.5453,-2.5246,-2.5093,-2.4854,-2.434,-2.3874,-2.3243,-2.2603,-2.2311,-2.2334,-3.4034,-3.4196,-3.5185,-3.3835,-3.0756,-2.731,-2.6138,-2.6709,-2.7108,-2.7977,-2.9123,-2.9949,-3.0382,-3.0547,-3.1083,-3.0661,-2.9521,-2.9318,-2.855,-2.7367,-2.6671,-2.6414,-2.6422,-2.5796,-2.585,-2.6336,-2.5866,-2.5659,-2.5794,-2.6422,-2.735,-2.8523,-2.9375,-3.0781,-3.2305,-3.1838,-3.2459,-3.4404,-3.3169,-3.2848,-3.3558,-3.3609,-3.3533,-3.3406,-3.2765,-3.2369,-3.2183,-3.1002,-3.0298,-3.0177,-2.856,-2.7612,-2.7396,-2.6349,-2.5734,-2.5794,-2.5749,-2.6195,-2.7381,-2.7989,-2.8586,-2.9281,-2.9876,-3.0225,-3.0349,-3.0883,-3.1272,-3.1514,-3.1534,-3.2128,-3.3334,-3.3526,-3.3526,-3.3526,-3.396,-3.3711,-3.2256,-3.2124,-3.2045,-3.0829,-3.0794,-3.0094,-2.9049,-2.8727,-2.8397,-2.7694,-2.756,-2.761,-2.771,-2.8042,-2.823,-2.7718,-2.778,-2.8046,-2.8158,-2.7925,-2.7735,-2.7545,-2.7545,-2.7479,-2.7363,-2.7297,-2.7092,-2.5972,-2.606,-2.603,-2.5043,-2.4529,-2.4611,-2.4339,-2.3794,-2.3134,-2.2549,-2.192,-2.1813,-3.4327,-3.4854,-3.4691,-3.289,-2.9888,-2.6873,-2.6078,-2.6918,-2.7495,-2.8406,-2.9516,-3.0572,-3.1056,-3.1078,-3.142,-3.0921,-3.0026,-2.9658,-2.8961,-2.8042,-2.7389,-2.7112,-2.7093,-2.6474,-2.6135,-2.5971,-2.5734,-2.56,-2.5779,-2.6662,-2.764,-2.8633,-2.9959,-3.1322,-3.2457,-3.2954,-3.3406,-3.3778,-3.2814,-3.2239,-3.2205,-3.2966,-3.3203,-3.2763,-3.2442,-3.209,-3.1692,-3.1122,-3.051,-2.9723,-2.8898,-2.7822,-2.6339,-2.5753,-2.5319,-2.5092,-2.5697,-2.6456,-2.7296,-2.8265,-2.8753,-2.8656,-2.9996,-3.0687,-3.0269,-3.0819,-3.1221,-3.1314,-3.1692,-3.237,-3.3245,-3.3422,-3.3439,-3.3466,-3.37,-3.348,-3.2741,-3.2779,-3.2496,-3.1325,-3.0733,-3.0042,-2.8888,-2.8233,-2.7904,-2.7655,-2.761,-2.771,-2.8057,-2.8383,-2.867,-2.8997,-2.8884,-2.8358,-2.8046,-2.7367,-2.7255,-2.7445,-2.723,-2.7051,-2.7475,-2.7171,-2.6758,-2.6164,-2.6585,-2.644,-2.5427,-2.5466,-2.5546,-2.4739,-2.3128,-2.2177,-2.1587,-2.1234,-2.1188,-3.4839,-3.5219,-3.3816,-3.2024,-2.9997,-2.731,-2.6746,-2.7617,-2.826,-2.9001,-2.9899,-3.0836,-3.1302,-3.1452,-3.1467,-3.1165,-3.0492,-3.0043,-2.9475,-2.8846,-2.8158,-2.7769,-2.7565,-2.6707,-2.6078,-2.5644,-2.542,-2.551,-2.5961,-2.6995,-2.7893,-2.8698,-3.0528,-3.1857,-3.2512,-3.3487,-3.3744,-3.3372,-3.2493,-3.1715,-3.1427,-3.2239,-3.2544,-3.2036,-3.2026,-3.1732,-3.1224,-3.119,-3.0662,-2.9513,-2.9161,-2.8013,-2.6024,-2.5566,-2.5164,-2.4897,-2.5699,-2.6582,-2.713,-2.8197,-2.8694,-2.8517,-2.9799,-3.0463,-3.0277,-3.0615,-3.097,-3.1202,-3.1681,-3.2249,-3.2949,-3.3102,-3.3102,-3.3102,-3.3085,-3.3051,-3.2773,-3.2797,-3.2233,-3.1142,-3.0352,-2.9832,-2.8813,-2.8193,-2.794,-2.791,-2.786,-2.7944,-2.8463,-2.8779,-2.9297,-2.9861,-2.9583,-2.905,-2.8059,-2.7641,-2.7455,-2.725,-2.7081,-2.6811,-2.722,-2.6707,-2.6123,-2.5678,-2.6568,-2.6568,-2.5393,-2.553,-2.5697,-2.4413,-2.2902,-2.1613,-2.1354,-2.0823,-2.0623,-3.5439,-3.5035,-3.2336,-3.1561,-3.1833,-2.8781,-2.8148,-2.9027,-2.9186,-2.971,-3.0362,-3.0567,-3.0941,-3.1467,-3.1495,-3.115,-3.0537,-3.0402,-2.9983,-2.934,-2.8757,-2.8188,-2.755,-2.6273,-2.5689,-2.5674,-2.5285,-2.5525,-2.6609,-2.7178,-2.7845,-2.8622,-3.0493,-3.1775,-3.2415,-3.2547,-3.2763,-3.3136,-3.2053,-3.1275,-3.1207,-3.1292,-3.136,-3.1241,-3.1258,-3.1258,-3.119,-3.119,-3.0796,-3.0087,-2.891,-2.7877,-2.6951,-2.5863,-2.5201,-2.524,-2.5707,-2.6348,-2.7036,-2.7654,-2.8159,-2.8752,-2.9039,-2.9397,-2.9837,-3.0057,-3.0429,-3.1106,-3.1173,-3.1546,-3.2205,-3.2341,-3.2364,-3.2324,-3.2341,-3.2036,-3.1444,-3.1529,-3.0792,-2.9911,-2.9643,-2.9293,-2.8652,-2.8479,-2.8463,-2.8463,-2.8463,-2.8559,-2.8795,-2.9496,-2.9835,-2.9617,-2.9453,-2.9337,-2.9227,-2.8357,-2.7913,-2.7713,-2.7154,-2.6572,-2.6363,-2.6093,-2.5495,-2.5181,-2.5689,-2.5644,-2.4925,-2.4552,-2.4433,-2.364,-2.2668,-2.1704,-2.1452,-2.0534,-2.0206,-3.5133,-3.4359,-3.2542,-3.1593,-3.1096,-2.8908,-2.8483,-2.926,-2.9362,-2.9783,-3.047,-3.0971,-3.13,-3.1467,-3.1061,-3.0522,-2.9953,-2.9924,-2.934,-2.8368,-2.8038,-2.7814,-2.7595,-2.7051,-2.6632,-2.6303,-2.6408,-2.6965,-2.7684,-2.7643,-2.8257,-2.9629,-3.0811,-3.1729,-3.2353,-3.2799,-3.2933,-3.2645,-3.2104,-3.1681,-3.1224,-3.119,-3.0987,-3.0548,-3.0954,-3.119,-3.119,-3.119,-3.0649,-2.9448,-2.8928,-2.8002,-2.6541,-2.5648,-2.5373,-2.5689,-2.5888,-2.6236,-2.682,-2.7449,-2.7706,-2.7588,-2.8503,-2.8822,-2.8772,-2.911,-2.9702,-3.0294,-3.0497,-3.0818,-3.1393,-3.1579,-3.1596,-3.1596,-3.1596,-3.1529,-3.1275,-3.119,-3.0878,-3.0123,-2.9673,-2.9316,-2.9132,-2.9088,-2.9104,-2.9088,-2.9042,-2.921,-2.9585,-3.0081,-3.0303,-3.048,-3.0493,-3.0399,-2.9966,-2.8674,-2.7767,-2.7653,-2.7246,-2.6594,-2.6228,-2.5465,-2.4822,-2.4777,-2.5076,-2.4971,-2.4448,-2.4103,-2.3849,-2.3614,-2.2591,-2.1838,-2.1697,-2.0657,-2.0131,-3.5133,-3.4301,-3.31,-3.2198,-3.1503,-2.9862,-2.9494,-3.0017,-3.0046,-3.035,-3.0869,-3.133,-3.1467,-3.1465,-3.1031,-3.0357,-2.9609,-2.937,-2.8757,-2.7934,-2.7679,-2.756,-2.758,-2.7415,-2.7036,-2.6741,-2.7252,-2.7896,-2.8449,-2.8432,-2.9074,-3.0284,-3.1231,-3.1867,-3.2334,-3.2797,-3.2763,-3.2324,-3.2053,-3.1664,-3.1241,-3.119,-3.0835,-3.0294,-3.0598,-3.0852,-3.0835,-3.0615,-3.0057,-2.911,-2.8738,-2.7868,-2.6393,-2.5872,-2.5835,-2.6191,-2.621,-2.6383,-2.6657,-2.7182,-2.7232,-2.6793,-2.7588,-2.8044,-2.7823,-2.8315,-2.8941,-2.955,-3.0023,-3.0362,-3.0751,-3.1055,-3.119,-3.119,-3.119,-3.119,-3.119,-3.119,-3.0918,-3.0344,-2.9691,-2.9378,-2.9318,-2.9318,-2.9302,-2.9334,-2.9334,-2.9583,-3.0143,-3.0518,-3.0699,-3.1112,-3.11,-3.0948,-3.0518,-2.9383,-2.831,-2.8014,-2.6862,-2.6291,-2.5779,-2.4956,-2.4448,-2.4433,-2.4373,-2.4283,-2.4059,-2.3699,-2.3551,-2.3508,-2.2696,-2.1744,-2.128,-2.067,-2.022,-3.5504,-3.5305,-3.3908,-3.3427,-3.3317,-3.1831,-3.132,-3.1422,-3.1347,-3.1228,-3.115,-3.1347,-3.13,-3.1405,-3.1195,-3.0687,-2.9564,-2.8936,-2.8592,-2.8353,-2.7829,-2.7575,-2.758,-2.7051,-2.6797,-2.6741,-2.7241,-2.786,-2.8622,-2.944,-3.0103,-3.0534,-3.1573,-3.208,-3.2263,-3.2239,-3.2273,-3.2053,-3.1529,-3.119,-3.1173,-3.1072,-3.0666,-3.0091,-3.0023,-2.9989,-3.0061,-2.9519,-2.9197,-2.889,-2.8315,-2.752,-2.6826,-2.659,-2.6657,-2.6624,-2.6657,-2.6674,-2.6691,-2.6759,-2.6843,-2.6775,-2.6809,-2.7199,-2.7657,-2.7774,-2.8163,-2.9025,-2.9634,-3.0108,-3.0311,-3.0857,-3.1213,-3.119,-3.119,-3.119,-3.1145,-3.1162,-3.0948,-3.0335,-2.9674,-2.9263,-2.923,-2.9254,-2.9287,-2.9362,-2.9419,-2.9731,-3.0434,-3.0925,-3.119,-3.1213,-3.1213,-3.1095,-3.0699,-3.0192,-2.9342,-2.842,-2.6773,-2.5682,-2.5284,-2.4627,-2.4073,-2.3954,-2.3969,-2.3879,-2.3894,-2.3595,-2.3595,-2.3406,-2.2455,-2.1744,-2.1328,-2.0805,-2.0144,-3.6275,-3.6245,-3.5825,-3.5716,-3.5519,-3.3741,-3.2741,-3.2226,-3.1298,-3.0597,-3.0238,-3.0193,-3.0193,-3.0208,-3.0178,-2.9744,-2.8921,-2.8667,-2.8353,-2.7934,-2.773,-2.756,-2.758,-2.735,-2.731,-2.7285,-2.7407,-2.8077,-2.8989,-2.9463,-2.9987,-3.0885,-3.1331,-3.1529,-3.1579,-3.1529,-3.1546,-3.1461,-3.0801,-3.0683,-3.1021,-3.0209,-2.9567,-2.9313,-2.8822,-2.8625,-2.8922,-2.9442,-2.9211,-2.8281,-2.845,-2.8044,-2.6996,-2.6708,-2.6708,-2.6708,-2.6708,-2.6708,-2.6691,-2.6725,-2.6858,-2.7004,-2.6873,-2.6976,-2.7328,-2.7283,-2.7672,-2.8738,-2.9228,-2.9651,-3.0671,-3.1316,-3.1507,-3.123,-3.119,-3.1147,-3.0893,-3.0364,-3.0126,-3.0127,-2.9711,-2.9448,-2.9396,-2.936,-2.9454,-2.9703,-2.9942,-3.0421,-3.1124,-3.1401,-3.1603,-3.1603,-3.1449,-3.1157,-3.0845,-3.0079,-2.8957,-2.8104,-2.6688,-2.5416,-2.494,-2.4403,-2.3849,-2.3595,-2.3595,-2.3595,-2.3595,-2.3595,-2.3595,-2.326,-2.2469,-2.1993,-2.1649,-2.0939,-2.0131,-3.66,-3.6614,-3.7023,-3.6998,-3.6622,-3.4798,-3.369,-3.285,-3.1258,-3.0283,-2.9953,-2.9684,-2.9594,-2.9639,-2.9819,-2.9564,-2.9011,-2.8966,-2.8607,-2.7979,-2.77,-2.7575,-2.756,-2.756,-2.756,-2.77,-2.8029,-2.8588,-2.9374,-2.9839,-3.0442,-3.1083,-3.119,-3.1207,-3.119,-3.119,-3.119,-3.1123,-3.0768,-3.0734,-3.092,-3.0277,-2.957,-2.9062,-2.8609,-2.8322,-2.8157,-2.8939,-2.9021,-2.822,-2.815,-2.7656,-2.6776,-2.6708,-2.6708,-2.6725,-2.6858,-2.6939,-2.6939,-2.71,-2.7379,-2.7739,-2.756,-2.7465,-2.7678,-2.7554,-2.8046,-2.8383,-2.9276,-2.9997,-3.0891,-3.1685,-3.188,-3.1731,-3.1731,-3.1579,-3.1185,-3.0086,-2.9837,-3.0106,-2.9849,-2.9358,-2.914,-2.9271,-2.9313,-2.9557,-3.0093,-3.0798,-3.1394,-3.167,-3.1757,-3.1595,-3.109,-3.0946,-3.1033,-2.9971,-2.8537,-2.7617,-2.6622,-2.5546,-2.4807,-2.4178,-2.3595,-2.3595,-2.3595,-2.3595,-2.3595,-2.3595,-2.3551,-2.298,-2.2423,-2.1852,-2.128,-2.057,-1.985,-3.6661,-3.6798,-3.7616,-3.7689,-3.7005,-3.5631,-3.4626,-3.3599,-3.1536,-3.0539,-3.0258,-2.9574,-2.934,-2.9535,-2.9819,-2.9744,-2.952,-2.949,-2.9041,-2.8412,-2.7949,-2.7679,-2.759,-2.756,-2.766,-2.7879,-2.8779,-2.9342,-2.9629,-3.0493,-3.119,-3.119,-3.119,-3.119,-3.119,-3.119,-3.119,-3.1173,-3.1089,-3.1021,-3.114,-3.092,-3.0311,-2.9079,-2.9213,-2.8795,-2.7816,-2.8149,-2.8434,-2.8213,-2.7385,-2.6877,-2.6708,-2.6708,-2.6691,-2.6791,-2.7115,-2.7341,-2.743,-2.7782,-2.8346,-2.9042,-2.8798,-2.8548,-2.8633,-2.8817,-2.8817,-2.8577,-2.9748,-3.0734,-3.1098,-3.186,-3.2464,-3.2565,-3.2376,-3.2272,-3.2216,-3.0393,-2.9869,-3.0503,-2.9928,-2.884,-2.8551,-2.878,-2.8789,-2.8882,-2.9562,-3.0397,-3.125,-3.1651,-3.1759,-3.1509,-3.1133,-3.0709,-3.0757,-2.9585,-2.8217,-2.7095,-2.6212,-2.5288,-2.4552,-2.3954,-2.3595,-2.3595,-2.3595,-2.3595,-2.3595,-2.3595,-2.3377,-2.2875,-2.2253,-2.1547,-2.0917,-2.0245,-1.985,-3.744,-3.7632,-3.8924,-3.9373,-3.9054,-3.7744,-3.6381,-3.5026,-3.2494,-3.0806,-2.9833,-2.861,-2.8255,-2.8203,-2.8816,-2.8742,-2.8547,-2.9175,-2.8906,-2.809,-2.8233,-2.7993,-2.7649,-2.7625,-2.786,-2.8288,-2.9051,-2.9594,-3.0107,-3.0821,-3.119,-3.119,-3.119,-3.119,-3.119,-3.119,-3.119,-3.1106,-3.0632,-3.0717,-3.097,-3.0159,-2.9414,-2.9149,-2.9369,-2.8958,-2.7871,-2.79,-2.7987,-2.7913,-2.7165,-2.6708,-2.6708,-2.6725,-2.6841,-2.7083,-2.7307,-2.7749,-2.844,-2.8758,-2.9323,-3.0237,-3.0036,-2.9775,-2.9744,-2.9874,-2.9929,-2.997,-3.0798,-3.1467,-3.1976,-3.2602,-3.3105,-3.327,-3.2715,-3.2211,-3.1942,-3.0643,-2.9737,-3.0223,-2.9376,-2.8676,-2.8459,-2.8522,-2.8655,-2.8841,-2.9443,-3.0184,-3.1023,-3.1349,-3.1373,-3.1795,-3.1562,-3.0916,-3.0197,-2.905,-2.7859,-2.6659,-2.5664,-2.4715,-2.4148,-2.3744,-2.3595,-2.3595,-2.3595,-2.3595,-2.3595,-2.3595,-2.3187,-2.283,-2.2146,-2.152,-2.0917,-2.0295,-2.0003,-3.7822,-3.7937,-3.9454,-4.0087,-3.9935,-3.8583,-3.7347,-3.5908,-3.3339,-3.1311,-2.9948,-2.8622,-2.7895,-2.77,-2.8278,-2.8412,-2.8188,-2.9101,-2.9116,-2.8607,-2.8547,-2.8203,-2.781,-2.7795,-2.8189,-2.8528,-2.938,-2.9933,-3.0318,-3.0918,-3.1151,-3.119,-3.119,-3.119,-3.119,-3.119,-3.119,-3.1123,-3.0768,-3.0801,-3.1055,-3.0378,-2.9803,-2.9644,-2.9781,-2.9445,-2.8307,-2.7812,-2.756,-2.7317,-2.6928,-2.6708,-2.6725,-2.6873,-2.7068,-2.7303,-2.7882,-2.8628,-2.9219,-2.9745,-3.0568,-3.1302,-3.1222,-3.085,-3.0707,-3.0866,-3.122,-3.0527,-3.1483,-3.2277,-3.2746,-3.3214,-3.3522,-3.3588,-3.2885,-3.2401,-3.2674,-3.1056,-3.0305,-3.0204,-2.9545,-2.8489,-2.829,-2.8438,-2.855,-2.8737,-2.9332,-3.0035,-3.0684,-3.0784,-3.0885,-3.1148,-3.0872,-2.9941,-2.9252,-2.8273,-2.7535,-2.6375,-2.5336,-2.4349,-2.3894,-2.3595,-2.3595,-2.3595,-2.3595,-2.3595,-2.3595,-2.3508,-2.3231,-2.2801,-2.2132,-2.1649,-2.1099,-2.0446,-2.0105,-3.7822,-3.7921,-3.9454,-4.0087,-3.9919,-3.8787,-3.7899,-3.6684,-3.4302,-3.2311,-3.0818,-2.9331,-2.8297,-2.767,-2.8113,-2.8487,-2.8577,-2.9101,-2.9325,-2.9041,-2.8712,-2.8135,-2.792,-2.8189,-2.8559,-2.895,-2.9848,-3.0234,-3.0559,-3.1015,-3.119,-3.119,-3.119,-3.119,-3.119,-3.119,-3.119,-3.119,-3.1123,-3.1089,-3.119,-3.097,-3.0598,-3.0065,-3.0089,-2.9747,-2.8704,-2.791,-2.7304,-2.6742,-2.6708,-2.6708,-2.6758,-2.7068,-2.7286,-2.7609,-2.8539,-2.9431,-2.997,-3.087,-3.181,-3.2436,-3.2365,-3.1913,-3.1585,-3.19,-3.1889,-3.1036,-3.2188,-3.2871,-3.3284,-3.3597,-3.3625,-3.3513,-3.2918,-3.2973,-3.2944,-3.1568,-3.0503,-3.1102,-2.9923,-2.8814,-2.8334,-2.8404,-2.8712,-2.8269,-2.8874,-2.9359,-2.9769,-2.9857,-2.9916,-3.0019,-2.9455,-2.8556,-2.7984,-2.7481,-2.6902,-2.616,-2.5154,-2.4269,-2.3846,-2.3595,-2.3595,-2.3595,-2.3595,-2.3595,-2.3595,-2.3465,-2.3275,-2.2905,-2.2346,-2.1946,-2.1554,-2.072,-2.0207,-3.7822,-3.7937,-3.9454,-4.0087,-4.0054,-3.9784,-3.9194,-3.832,-3.6141,-3.3935,-3.2106,-3.0261,-2.8763,-2.7655,-2.7814,-2.8068,-2.8502,-2.8757,-2.8801,-2.8697,-2.8098,-2.8106,-2.8238,-2.8559,-2.9058,-2.9673,-3.0107,-3.0518,-3.0918,-3.1055,-3.119,-3.119,-3.119,-3.119,-3.119,-3.119,-3.119,-3.119,-3.119,-3.119,-3.119,-3.1173,-3.0869,-3.0251,-2.9969,-2.9729,-2.9296,-2.8603,-2.7719,-2.6995,-2.6759,-2.6843,-2.6742,-2.6808,-2.7178,-2.7824,-2.8699,-2.979,-3.087,-3.1792,-3.2669,-3.3303,-3.3314,-3.3194,-3.2773,-3.2536,-3.2632,-3.2401,-3.2728,-3.3095,-3.3561,-3.3734,-3.3568,-3.3164,-3.2742,-3.2394,-3.1898,-3.0944,-3.0552,-3.0527,-2.9837,-2.87,-2.8037,-2.8264,-2.8308,-2.8027,-2.8223,-2.861,-2.8776,-2.8925,-2.8952,-2.8969,-2.8648,-2.796,-2.7636,-2.7155,-2.67,-2.6162,-2.5242,-2.4552,-2.4074,-2.3595,-2.3595,-2.3595,-2.3595,-2.3595,-2.3595,-2.3551,-2.3421,-2.2965,-2.2589,-2.2331,-2.1899,-2.1064,-2.0683,-3.7822,-3.7994,-3.9454,-4.0087,-4.0087,-4.007,-3.9665,-3.8688,-3.6768,-3.485,-3.2926,-3.0674,-2.9052,-2.809,-2.7739,-2.7814,-2.8128,-2.8472,-2.88,-2.8915,-2.8652,-2.8821,-2.9241,-2.9361,-2.9761,-3.0335,-3.0601,-3.0918,-3.1134,-3.119,-3.119,-3.119,-3.119,-3.119,-3.119,-3.1207,-3.119,-3.119,-3.119,-3.119,-3.119,-3.1173,-3.121,-3.08,-3.0403,-3.0075,-3.004,-2.961,-2.8587,-2.764,-2.7402,-2.7265,-2.6842,-2.6873,-2.7303,-2.7924,-2.9262,-3.0233,-3.1367,-3.2467,-3.333,-3.3752,-3.3807,-3.3195,-3.2912,-3.2729,-3.2783,-3.2666,-3.2811,-3.3385,-3.3752,-3.3807,-3.3513,-3.3164,-3.2467,-3.2027,-3.1751,-3.0944,-3.0179,-3.0158,-2.9539,-2.8593,-2.8112,-2.8112,-2.7956,-2.7678,-2.784,-2.8191,-2.7924,-2.7983,-2.7898,-2.7893,-2.7845,-2.7588,-2.7299,-2.6958,-2.6649,-2.6158,-2.553,-2.5012,-2.4672,-2.4116,-2.3595,-2.3595,-2.3595,-2.3595,-2.3595,-2.3566,-2.3566,-2.3275,-2.2995,-2.2756,-2.2377,-2.1805,-2.1677,-3.7822,-3.7921,-3.9454,-4.0087,-4.0087,-4.007,-3.9749,-3.8958,-3.6888,-3.515,-3.3419,-3.0883,-2.9275,-2.8434,-2.7814,-2.764,-2.7769,-2.8299,-2.8792,-2.8808,-2.9012,-2.9344,-2.9798,-3.0038,-3.0251,-3.0477,-3.0878,-3.1173,-3.119,-3.119,-3.119,-3.119,-3.119,-3.1309,-3.1343,-3.1376,-3.1562,-3.1732,-3.1579,-3.1461,-3.1376,-3.1326,-3.1317,-3.1322,-3.1165,-3.0663,-3.0473,-3.0125,-2.9499,-2.8132,-2.8373,-2.7996,-2.7418,-2.7135,-2.7574,-2.8063,-2.9769,-3.0839,-3.1547,-3.2742,-3.3752,-3.3807,-3.3807,-3.3128,-3.2368,-3.2625,-3.2588,-3.2423,-3.2522,-3.3495,-3.377,-3.3807,-3.3642,-3.3164,-3.2082,-3.1751,-3.1641,-3.0815,-2.999,-2.9671,-2.9181,-2.8406,-2.7918,-2.7747,-2.7572,-2.7452,-2.7619,-2.7648,-2.7378,-2.7195,-2.7209,-2.7196,-2.7233,-2.7284,-2.7012,-2.6876,-2.6535,-2.599,-2.5524,-2.5128,-2.4831,-2.4199,-2.3595,-2.3595,-2.3595,-2.3625,-2.3625,-2.3595,-2.3551,-2.3493,-2.3363,-2.3128,-2.2846,-2.25,-2.2483,-3.7822,-3.7921,-3.9437,-4.0087,-4.0087,-4.0087,-4.0003,-3.9547,-3.7516,-3.554,-3.3639,-3.1393,-2.9367,-2.8162,-2.7679,-2.756,-2.7724,-2.8225,-2.8402,-2.8362,-2.8629,-2.9153,-2.9826,-3.0267,-3.0559,-3.0958,-3.1134,-3.1095,-3.1134,-3.119,-3.115,-3.1185,-3.119,-3.1409,-3.1888,-3.2121,-3.2334,-3.2611,-3.2341,-3.2104,-3.1901,-3.1495,-3.1336,-3.15,-3.1524,-3.1126,-3.0472,-3.0216,-2.9697,-2.8926,-2.8897,-2.8795,-2.8456,-2.7823,-2.7944,-2.8817,-3.0098,-3.1111,-3.1605,-3.2889,-3.3678,-3.3807,-3.3733,-3.3403,-3.2706,-3.2614,-3.2449,-3.2118,-3.2284,-3.3073,-3.3752,-3.377,-3.3109,-3.2284,-3.1659,-3.1054,-3.0173,-2.9617,-2.9406,-2.9365,-2.8861,-2.829,-2.7833,-2.747,-2.7317,-2.7161,-2.7115,-2.7178,-2.7019,-2.6906,-2.6876,-2.6843,-2.6809,-2.6793,-2.6759,-2.6657,-2.6435,-2.5758,-2.5259,-2.4736,-2.4389,-2.3921,-2.361,-2.3789,-2.3789,-2.3759,-2.3714,-2.3714,-2.3625,-2.3596,-2.3523,-2.345,-2.3216,-2.2935,-2.277,-3.7397,-3.7921,-3.9032,-3.9714,-4.007,-4.0087,-4.0087,-3.9733,-3.7392,-3.5561,-3.377,-3.142,-2.9379,-2.8306,-2.773,-2.7625,-2.7694,-2.791,-2.8247,-2.8463,-2.8857,-2.9496,-3.0166,-3.0617,-3.0895,-3.1055,-3.0918,-3.0757,-3.079,-3.1116,-3.1058,-3.0925,-3.1095,-3.1654,-3.2164,-3.2324,-3.2798,-3.3161,-3.3051,-3.2645,-3.2297,-3.1579,-3.1494,-3.1974,-3.1849,-3.1507,-3.1227,-3.1251,-3.0762,-2.9887,-2.9756,-2.9736,-2.943,-2.9025,-2.8702,-2.9379,-3.0432,-3.1301,-3.1829,-3.3013,-3.377,-3.3733,-3.3495,-3.3054,-3.2742,-3.2559,-3.2339,-3.2247,-3.221,-3.2742,-3.3146,-3.3513,-3.3366,-3.2742,-3.1916,-3.1017,-3.0265,-2.9494,-2.9193,-2.9094,-2.8673,-2.8139,-2.756,-2.7272,-2.7083,-2.6906,-2.6725,-2.6708,-2.6708,-2.6708,-2.6708,-2.6708,-2.6708,-2.6708,-2.6624,-2.647,-2.628,-2.5689,-2.5059,-2.4583,-2.4342,-2.4066,-2.4073,-2.4223,-2.4148,-2.4238,-2.4148,-2.4238,-2.3969,-2.3684,-2.3596,-2.3508,-2.3508,-2.3363,-2.3157,-3.6964,-3.7632,-3.8358,-3.9049,-3.9558,-3.9627,-3.9679,-3.9257,-3.6778,-3.5166,-3.419,-3.1228,-2.9184,-2.8397,-2.7874,-2.756,-2.756,-2.764,-2.8107,-2.8748,-2.9225,-2.9951,-3.0576,-3.1112,-3.1112,-3.0838,-3.0601,-3.0375,-3.0622,-3.0674,-3.0697,-3.0884,-3.1214,-3.1851,-3.2492,-3.2923,-3.3178,-3.3607,-3.3626,-3.3203,-3.2381,-3.1885,-3.1803,-3.2559,-3.2081,-3.1735,-3.1554,-3.1756,-3.1386,-3.0731,-3.0523,-3.0653,-3.0343,-3.0016,-2.985,-3.0007,-3.0828,-3.1453,-3.2008,-3.2946,-3.3625,-3.3588,-3.3185,-3.2863,-3.243,-3.2265,-3.21,-3.2441,-3.2137,-3.2284,-3.2632,-3.2981,-3.3146,-3.2871,-3.1861,-3.0962,-3.0375,-2.9667,-2.8907,-2.8674,-2.842,-2.8002,-2.7409,-2.7083,-2.6906,-2.6841,-2.6708,-2.6708,-2.6708,-2.6708,-2.6708,-2.6708,-2.6708,-2.6708,-2.6556,-2.6297,-2.6033,-2.5615,-2.4997,-2.4482,-2.4456,-2.4443,-2.4582,-2.4881,-2.5136,-2.5211,-2.5016,-2.4657,-2.4327,-2.4071,-2.3788,-2.361,-2.3551,-2.3551,-2.3421,-3.6676,-3.6843,-3.7632,-3.7978,-3.8149,-3.8165,-3.8486,-3.8673,-3.6094,-3.451,-3.3815,-3.0944,-2.8891,-2.7949,-2.7715,-2.756,-2.761,-2.771,-2.7894,-2.84,-2.9088,-2.9629,-2.9908,-3.0781,-3.0838,-3.0576,-3.0335,-3.0688,-3.0631,-3.008,-3.0332,-3.0991,-3.1336,-3.2077,-3.3294,-3.3744,-3.4638,-3.5053,-3.4675,-3.3728,-3.2727,-3.262,-3.2244,-3.1859,-3.1685,-3.164,-3.1389,-3.1504,-3.1244,-3.1223,-3.106,-3.1099,-3.1077,-3.1043,-3.0997,-3.1042,-3.122,-3.1367,-3.1639,-3.2643,-3.3332,-3.3419,-3.3351,-3.3203,-3.2596,-3.1568,-3.1366,-3.2485,-3.1476,-3.1219,-3.1953,-3.2008,-3.1825,-3.1568,-3.1146,-3.0228,-2.9599,-2.9479,-2.8748,-2.8342,-2.8112,-2.7747,-2.7286,-2.6987,-2.6758,-2.6725,-2.6708,-2.6708,-2.6708,-2.6708,-2.6708,-2.6708,-2.6657,-2.6657,-2.6367,-2.6104,-2.5672,-2.5373,-2.4925,-2.4434,-2.4618,-2.4807,-2.5438,-2.5704,-2.5974,-2.6078,-2.5839,-2.5422,-2.4837,-2.4371,-2.4071,-2.3803,-2.3595,-2.3595,-2.3595,-3.6228,-3.6615,-3.6964,-3.7381,-3.7748,-3.7822,-3.8189,-3.8215,-3.5925,-3.4368,-3.3316,-3.0814,-2.8831,-2.7769,-2.756,-2.756,-2.766,-2.7944,-2.8319,-2.8622,-2.9451,-3.0081,-3.0518,-3.0878,-3.0878,-3.0309,-2.9973,-2.9836,-2.9972,-2.9911,-3.0019,-3.0856,-3.1436,-3.245,-3.3871,-3.4396,-3.4952,-3.5166,-3.4895,-3.4438,-3.3982,-3.3206,-3.2548,-3.2381,-3.1815,-3.1419,-3.1252,-3.119,-3.1444,-3.1579,-3.1495,-3.1427,-3.1562,-3.1444,-3.1173,-3.1162,-3.1196,-3.1339,-3.1689,-3.2599,-3.3021,-3.3128,-3.3158,-3.29,-3.2412,-3.1678,-3.1054,-3.1788,-3.0889,-3.0723,-3.1256,-3.1329,-3.1421,-3.1164,-3.0516,-3.0088,-2.9436,-2.8864,-2.8489,-2.8156,-2.7776,-2.7344,-2.6987,-2.6843,-2.6674,-2.6691,-2.6708,-2.6708,-2.6708,-2.6708,-2.6708,-2.6708,-2.6657,-2.659,-2.6175,-2.5799,-2.5297,-2.495,-2.4863,-2.4548,-2.4777,-2.5151,-2.5685,-2.6314,-2.6707,-2.6722,-2.6587,-2.6156,-2.5558,-2.4957,-2.4369,-2.4115,-2.3818,-2.3595,-2.3595,-3.5831,-3.6337,-3.6337,-3.6692,-3.7175,-3.7251,-3.7616,-3.7939,-3.5524,-3.4051,-3.2856,-3.0455,-2.8442,-2.782,-2.756,-2.761,-2.7675,-2.8238,-2.8701,-2.9271,-2.9935,-3.0493,-3.0658,-3.0878,-3.0617,-3.0081,-2.9406,-2.9171,-2.9038,-2.9218,-2.9741,-3.0814,-3.1895,-3.2964,-3.4153,-3.4828,-3.5237,-3.5493,-3.5115,-3.4945,-3.4759,-3.3457,-3.3008,-3.2577,-3.1985,-3.119,-3.119,-3.119,-3.1529,-3.1664,-3.1478,-3.1427,-3.1681,-3.1427,-3.1207,-3.1173,-3.121,-3.1367,-3.1811,-3.2464,-3.2921,-3.3003,-3.3093,-3.3109,-3.2908,-3.2173,-3.1771,-3.201,-3.0904,-3.0554,-3.0586,-3.0941,-3.0722,-3.0582,-3.0167,-2.9966,-2.9594,-2.8745,-2.7994,-2.7455,-2.7106,-2.6771,-2.6539,-2.6532,-2.6567,-2.6674,-2.6708,-2.6725,-2.6708,-2.6674,-2.6708,-2.6708,-2.6657,-2.6556,-2.6068,-2.5577,-2.5028,-2.4554,-2.4455,-2.4552,-2.4712,-2.5136,-2.5644,-2.6367,-2.6991,-2.7225,-2.6981,-2.6662,-2.6324,-2.5679,-2.5063,-2.446,-2.4085,-2.3788,-2.3595,-3.5504,-3.5554,-3.5604,-3.5683,-3.5748,-3.5668,-3.6117,-3.6779,-3.4562,-3.3295,-3.216,-2.9514,-2.7889,-2.7655,-2.756,-2.756,-2.761,-2.8238,-2.8606,-2.9058,-2.9673,-3.0393,-3.0559,-3.0477,-3.0123,-2.9556,-2.9012,-2.8398,-2.821,-2.9053,-3.0002,-3.1394,-3.2352,-3.3614,-3.4535,-3.5078,-3.5362,-3.5622,-3.5419,-3.5047,-3.4658,-3.3711,-3.3051,-3.2341,-3.1681,-3.119,-3.119,-3.119,-3.1343,-3.1529,-3.1326,-3.1343,-3.1562,-3.1343,-3.1207,-3.119,-3.1291,-3.147,-3.1861,-3.2264,-3.2533,-3.2791,-3.3146,-3.3495,-3.3238,-3.2852,-3.2668,-3.2376,-3.1108,-3.0861,-3.0757,-3.0618,-3.0079,-2.9813,-2.9464,-2.8995,-2.8658,-2.8233,-2.7472,-2.6833,-2.6455,-2.6193,-2.6261,-2.6286,-2.6414,-2.6538,-2.6738,-2.6738,-2.664,-2.659,-2.6674,-2.6708,-2.6708,-2.647,-2.5997,-2.5486,-2.495,-2.44,-2.4115,-2.4279,-2.4495,-2.5014,-2.5442,-2.6,-2.6568,-2.7009,-2.7303,-2.6758,-2.6411,-2.6206,-2.5696,-2.4717,-2.4146,-2.3831,-2.3683,-3.5489,-3.5489,-3.5489,-3.5489,-3.5489,-3.5489,-3.5894,-3.6153,-3.4394,-3.2419,-3.076,-2.9004,-2.7964,-2.7679,-2.756,-2.756,-2.776,-2.8685,-2.8919,-2.9451,-3.0166,-3.074,-3.074,-3.0393,-2.9978,-2.9361,-2.8779,-2.8174,-2.7806,-2.9197,-3.0496,-3.1742,-3.2681,-3.3508,-3.4354,-3.5296,-3.5633,-3.5667,-3.5554,-3.5233,-3.4506,-3.3795,-3.3051,-3.2307,-3.1579,-3.1224,-3.119,-3.119,-3.1444,-3.1636,-3.1416,-3.1484,-3.1642,-3.1438,-3.1325,-3.1295,-3.1414,-3.1625,-3.1897,-3.2298,-3.2713,-3.3284,-3.357,-3.3623,-3.3311,-3.2797,-3.2353,-3.1826,-3.1177,-3.0882,-3.0526,-2.9857,-2.9205,-2.9016,-2.8655,-2.8112,-2.7717,-2.7335,-2.6833,-2.6114,-2.5908,-2.574,-2.5905,-2.6134,-2.6228,-2.6379,-2.6582,-2.6759,-2.6668,-2.664,-2.6776,-2.6725,-2.6708,-2.6245,-2.5762,-2.5297,-2.491,-2.4307,-2.3747,-2.3904,-2.4158,-2.4626,-2.5067,-2.5637,-2.6012,-2.6321,-2.6542,-2.6534,-2.6404,-2.6204,-2.551,-2.4534,-2.4104,-2.3803,-2.3698,-3.5385,-3.5235,-3.5415,-3.5489,-3.5489,-3.5489,-3.5782,-3.5904,-3.4512,-3.2452,-3.0103,-2.9146,-2.8368,-2.7934,-2.7685,-2.7575,-2.7845,-2.8543,-2.9088,-2.9585,-3.0107,-3.0838,-3.0781,-3.0309,-2.9496,-2.918,-2.8591,-2.7944,-2.8039,-3.0227,-3.1085,-3.173,-3.279,-3.4107,-3.5027,-3.5668,-3.6054,-3.6054,-3.583,-3.5462,-3.4789,-3.3863,-3.3051,-3.2307,-3.1579,-3.1224,-3.119,-3.1207,-3.1393,-3.1608,-3.1652,-3.1679,-3.1842,-3.1846,-3.1614,-3.1625,-3.1633,-3.1777,-3.2246,-3.2533,-3.3045,-3.3578,-3.3734,-3.3495,-3.3128,-3.2944,-3.2886,-3.2539,-3.1556,-3.0717,-3.0534,-2.9813,-2.8876,-2.8622,-2.7876,-2.733,-2.6926,-2.6555,-2.5974,-2.5389,-2.5358,-2.548,-2.5608,-2.5901,-2.6546,-2.6791,-2.7185,-2.7135,-2.6783,-2.6835,-2.6978,-2.6877,-2.6708,-2.6087,-2.5411,-2.5166,-2.4816,-2.3964,-2.3541,-2.3472,-2.3684,-2.412,-2.4382,-2.4655,-2.5081,-2.5568,-2.5955,-2.6153,-2.6225,-2.6234,-2.539,-2.4567,-2.3971,-2.3698,-2.364,-3.513,-3.4607,-3.522,-3.5459,-3.5494,-3.5504,-3.5554,-3.5563,-3.467,-3.3155,-3.118,-2.9549,-2.8652,-2.8412,-2.7934,-2.7709,-2.776,-2.8271,-2.8873,-2.9406,-2.9657,-3.0251,-3.0225,-2.9777,-2.9012,-2.9058,-2.8511,-2.814,-2.8431,-3.0115,-3.0956,-3.2183,-3.3744,-3.5363,-3.6295,-3.6829,-3.7097,-3.702,-3.6481,-3.5883,-3.5022,-3.3972,-3.3076,-3.2307,-3.1579,-3.1207,-3.0987,-3.107,-3.1142,-3.1045,-3.1502,-3.1649,-3.1702,-3.2162,-3.2282,-3.2332,-3.1767,-3.2076,-3.3033,-3.3166,-3.3458,-3.3823,-3.3979,-3.371,-3.3713,-3.3687,-3.3466,-3.29,-3.2456,-3.1774,-3.1075,-3.0111,-2.9107,-2.8076,-2.7376,-2.6656,-2.6266,-2.576,-2.5217,-2.4997,-2.5181,-2.5349,-2.5409,-2.5742,-2.6641,-2.7217,-2.7721,-2.7623,-2.7059,-2.7045,-2.7214,-2.6843,-2.659,-2.6016,-2.5449,-2.5205,-2.4776,-2.3864,-2.3304,-2.3267,-2.3145,-2.3245,-2.3497,-2.3772,-2.438,-2.5108,-2.5523,-2.5905,-2.5988,-2.6008,-2.5482,-2.4711,-2.4053,-2.3595,-2.3595,-3.51,-3.4502,-3.4726,-3.5102,-3.5554,-3.6044,-3.6006,-3.5374,-3.4292,-3.2961,-3.1569,-3.0268,-2.931,-2.8742,-2.8382,-2.8053,-2.7816,-2.8238,-2.8826,-2.9332,-2.9316,-2.9892,-2.9951,-2.9406,-2.8685,-2.8638,-2.8334,-2.8286,-2.8511,-3.0186,-3.1377,-3.264,-3.4525,-3.5987,-3.6347,-3.6603,-3.6522,-3.6249,-3.6113,-3.5887,-3.4831,-3.3905,-3.3051,-3.229,-3.1562,-3.1021,-3.0688,-3.0789,-3.072,-3.0553,-3.1098,-3.1581,-3.1737,-3.2196,-3.255,-3.2616,-3.2321,-3.3259,-3.4064,-3.4356,-3.4049,-3.4232,-3.4147,-3.3821,-3.3395,-3.3674,-3.3421,-3.2985,-3.251,-3.1833,-3.1213,-3.0404,-2.9404,-2.809,-2.7198,-2.6264,-2.5686,-2.5098,-2.463,-2.471,-2.4806,-2.5591,-2.5963,-2.6291,-2.7052,-2.7504,-2.7973,-2.7689,-2.7175,-2.7311,-2.7468,-2.6859,-2.6418,-2.5872,-2.5449,-2.5089,-2.4617,-2.3794,-2.329,-2.3067,-2.2908,-2.2786,-2.3123,-2.358,-2.4104,-2.4658,-2.5295,-2.5791,-2.5871,-2.5743,-2.5098,-2.4526,-2.3919,-2.3595,-2.3595,-3.509,-3.4546,-3.4759,-3.5149,-3.5638,-3.6084,-3.5922,-3.5288,-3.3862,-3.2647,-3.1809,-3.0926,-3.0103,-2.94,-2.8996,-2.8786,-2.8351,-2.8384,-2.8867,-2.9265,-2.8889,-2.9467,-2.9629,-2.918,-2.8996,-2.8873,-2.8904,-2.8904,-2.9257,-3.0635,-3.2164,-3.3676,-3.5198,-3.5993,-3.6374,-3.6522,-3.6643,-3.644,-3.6388,-3.5928,-3.4898,-3.393,-3.3034,-3.229,-3.1596,-3.0987,-3.0645,-3.0514,-3.0508,-3.049,-3.0961,-3.1667,-3.2014,-3.2465,-3.2903,-3.3057,-3.3291,-3.4026,-3.4591,-3.4716,-3.462,-3.5228,-3.4633,-3.3863,-3.3278,-3.3424,-3.3042,-3.2571,-3.2072,-3.1572,-3.11,-3.039,-2.942,-2.8106,-2.6924,-2.6002,-2.4907,-2.4307,-2.4374,-2.4448,-2.5178,-2.5941,-2.6587,-2.7075,-2.7569,-2.7867,-2.8171,-2.7747,-2.7371,-2.7616,-2.7614,-2.6991,-2.631,-2.5795,-2.5275,-2.4816,-2.4307,-2.3709,-2.3319,-2.3009,-2.2904,-2.279,-2.3112,-2.3478,-2.4031,-2.4653,-2.5301,-2.5717,-2.567,-2.525,-2.4502,-2.4003,-2.3653,-2.3595,-2.3595,-3.5115,-3.4627,-3.5292,-3.5584,-3.5664,-3.5713,-3.5692,-3.5468,-3.3485,-3.2556,-3.2347,-3.1061,-3.0387,-3.0268,-2.9804,-2.9445,-2.9175,-2.8749,-2.8926,-2.8882,-2.8373,-2.9059,-2.9345,-2.9088,-2.9088,-2.9585,-2.9761,-2.9629,-3.029,-3.1146,-3.2791,-3.4445,-3.5155,-3.5917,-3.6444,-3.665,-3.6759,-3.6498,-3.6422,-3.5963,-3.5162,-3.3939,-3.301,-3.2202,-3.1422,-3.0868,-3.0572,-3.0523,-3.0798,-3.1132,-3.1746,-3.2355,-3.2929,-3.356,-3.3707,-3.3762,-3.3734,-3.4185,-3.4792,-3.4821,-3.5111,-3.5552,-3.4767,-3.3979,-3.3378,-3.3078,-3.2683,-3.2299,-3.1843,-3.1323,-3.0751,-3.0048,-2.9332,-2.8009,-2.6726,-2.5513,-2.4255,-2.3911,-2.4133,-2.4629,-2.5686,-2.648,-2.7076,-2.7595,-2.7494,-2.7932,-2.8073,-2.7907,-2.7651,-2.7886,-2.7753,-2.7136,-2.6449,-2.5696,-2.5208,-2.4708,-2.4142,-2.3595,-2.3334,-2.3009,-2.2889,-2.2934,-2.3231,-2.3593,-2.4059,-2.4744,-2.5691,-2.5762,-2.5317,-2.4773,-2.4346,-2.3943,-2.3698,-2.361,-2.3595,-3.5157,-3.4634,-3.4781,-3.5207,-3.5654,-3.5678,-3.5921,-3.6124,-3.4151,-3.2737,-3.1779,-3.1435,-3.0627,-2.9894,-3.0088,-2.9639,-2.9131,-2.8741,-2.8677,-2.8438,-2.8111,-2.8685,-2.8996,-2.9042,-2.915,-2.9585,-2.9935,-3.0166,-3.0542,-3.1374,-3.271,-3.4266,-3.4798,-3.566,-3.6337,-3.6457,-3.6294,-3.6191,-3.6242,-3.5865,-3.5052,-3.3728,-3.2907,-3.2193,-3.0991,-3.0415,-3.0111,-3.0217,-3.0387,-3.0421,-3.1489,-3.2198,-3.2311,-3.3204,-3.3807,-3.3807,-3.3897,-3.424,-3.5152,-3.4808,-3.4849,-3.5428,-3.4577,-3.3561,-3.2976,-3.2511,-3.2216,-3.1882,-3.1688,-3.1248,-3.066,-2.995,-2.9055,-2.7793,-2.6504,-2.5238,-2.4131,-2.3973,-2.4239,-2.499,-2.6044,-2.6585,-2.7261,-2.7086,-2.7071,-2.768,-2.7969,-2.7854,-2.7859,-2.8072,-2.7896,-2.7245,-2.6466,-2.5735,-2.5183,-2.4706,-2.4119,-2.358,-2.3451,-2.3334,-2.329,-2.3319,-2.3406,-2.3721,-2.4225,-2.5227,-2.6417,-2.5999,-2.5056,-2.5045,-2.4686,-2.4154,-2.3728,-2.3538,-2.3377,-3.5356,-3.5004,-3.5002,-3.5416,-3.6056,-3.6137,-3.6158,-3.5619,-3.3646,-3.2084,-3.112,-3.0836,-3.0328,-2.9759,-2.9894,-2.9714,-2.9101,-2.8742,-2.8589,-2.8516,-2.8115,-2.8716,-2.8996,-2.9316,-2.9717,-3.0081,-3.0393,-3.0658,-3.0924,-3.1681,-3.2906,-3.3819,-3.4202,-3.5338,-3.6062,-3.6034,-3.5754,-3.5682,-3.5592,-3.5321,-3.4509,-3.3397,-3.2798,-3.2171,-3.0796,-3.0226,-3.0006,-3.0261,-3.0509,-3.0844,-3.2191,-3.2898,-3.316,-3.4097,-3.4009,-3.3981,-3.3972,-3.4641,-3.5402,-3.4967,-3.5093,-3.4992,-3.4146,-3.2581,-3.1954,-3.1505,-3.1429,-3.1332,-3.1376,-3.124,-3.0578,-2.9847,-2.8728,-2.7592,-2.6304,-2.5038,-2.4615,-2.4293,-2.4768,-2.5409,-2.6031,-2.6556,-2.6774,-2.6563,-2.6707,-2.7444,-2.7894,-2.7984,-2.7984,-2.8104,-2.7895,-2.7365,-2.6516,-2.5733,-2.5287,-2.504,-2.4652,-2.4354,-2.4147,-2.3999,-2.3789,-2.3638,-2.3623,-2.3975,-2.443,-2.5306,-2.6018,-2.547,-2.476,-2.4724,-2.4442,-2.3659,-2.3216,-2.3172,-2.2965,-3.563,-3.5597,-3.5618,-3.5937,-3.6637,-3.6574,-3.5827,-3.4396,-3.2644,-3.1228,-3.0428,-2.9888,-2.9639,-2.943,-2.9594,-2.9672,-2.9222,-2.8862,-2.8598,-2.8561,-2.8267,-2.8654,-2.9316,-2.9892,-3.0166,-3.0797,-3.1134,-3.1015,-3.132,-3.1799,-3.2425,-3.333,-3.3818,-3.4739,-3.5679,-3.5547,-3.5424,-3.5556,-3.514,-3.4675,-3.4064,-3.3198,-3.2472,-3.236,-3.1672,-3.1053,-3.1198,-3.1573,-3.2093,-3.271,-3.3321,-3.3935,-3.4546,-3.4818,-3.4355,-3.4099,-3.3998,-3.4516,-3.5045,-3.4783,-3.4708,-3.4427,-3.3652,-3.1769,-3.0938,-3.0919,-3.0959,-3.0308,-3.0145,-3.0249,-2.9741,-2.9329,-2.8459,-2.7195,-2.5929,-2.4782,-2.4063,-2.4086,-2.4671,-2.5283,-2.582,-2.6336,-2.6616,-2.6481,-2.6607,-2.7238,-2.766,-2.7894,-2.7867,-2.7951,-2.7939,-2.7481,-2.6502,-2.5874,-2.6103,-2.5847,-2.5514,-2.5213,-2.4896,-2.4462,-2.4118,-2.3949,-2.3794,-2.4017,-2.4266,-2.4645,-2.5012,-2.4399,-2.3998,-2.4195,-2.3748,-2.2958,-2.2661,-2.2618,-2.2314,-3.5602,-3.5631,-3.5616,-3.574,-3.5893,-3.5893,-3.5119,-3.3736,-3.2779,-3.1325,-2.9935,-2.9645,-2.925,-2.8891,-2.9357,-2.9456,-2.9312,-2.8839,-2.8591,-2.8454,-2.8238,-2.8717,-2.9332,-2.9805,-3.0351,-3.0918,-3.119,-3.119,-3.1258,-3.1523,-3.1875,-3.2591,-3.3044,-3.3758,-3.5416,-3.5235,-3.5084,-3.5482,-3.5049,-3.4872,-3.4761,-3.3473,-3.2522,-3.2066,-3.1464,-3.084,-3.0896,-3.1027,-3.1627,-3.2314,-3.2875,-3.3601,-3.4433,-3.4519,-3.4302,-3.3936,-3.4034,-3.4464,-3.4572,-3.4516,-3.4259,-3.3451,-3.2451,-3.1093,-3.0341,-3.051,-3.0227,-2.9353,-2.9014,-2.914,-2.9054,-2.8688,-2.8171,-2.6859,-2.5537,-2.4473,-2.3541,-2.4028,-2.4587,-2.5053,-2.5563,-2.596,-2.6283,-2.6509,-2.663,-2.6944,-2.7419,-2.762,-2.7399,-2.7405,-2.7997,-2.7566,-2.6474,-2.6015,-2.6504,-2.6581,-2.6199,-2.5818,-2.5467,-2.4985,-2.4447,-2.4014,-2.3746,-2.3824,-2.4017,-2.4051,-2.3724,-2.3025,-2.2846,-2.3243,-2.2999,-2.2208,-2.1983,-2.1941,-2.1561,-3.5535,-3.5446,-3.5631,-3.5732,-3.5808,-3.6136,-3.5343,-3.3862,-3.3141,-3.172,-2.9925,-2.9342,-2.8783,-2.8297,-2.8828,-2.9083,-2.9007,-2.868,-2.8731,-2.8686,-2.8559,-2.9093,-2.9512,-2.9946,-3.0559,-3.1112,-3.119,-3.119,-3.119,-3.0972,-3.1248,-3.2147,-3.239,-3.3013,-3.4833,-3.4769,-3.4878,-3.5523,-3.5065,-3.5169,-3.5416,-3.4002,-3.305,-3.2482,-3.2137,-3.1479,-3.1764,-3.2081,-3.2909,-3.4056,-3.5031,-3.5118,-3.5643,-3.5616,-3.5259,-3.4879,-3.4723,-3.4731,-3.4641,-3.4334,-3.3779,-3.2805,-3.172,-3.0537,-2.8936,-2.9038,-2.934,-2.8698,-2.9118,-2.9299,-2.8555,-2.8078,-2.7519,-2.6482,-2.5099,-2.3865,-2.3761,-2.4166,-2.4426,-2.4633,-2.5133,-2.5618,-2.5833,-2.5931,-2.6134,-2.6644,-2.7096,-2.7235,-2.6995,-2.7085,-2.7648,-2.7792,-2.6763,-2.6756,-2.7501,-2.7315,-2.6803,-2.6428,-2.6089,-2.5423,-2.4777,-2.4104,-2.3658,-2.3496,-2.3157,-2.274,-2.236,-2.1951,-2.2011,-2.2427,-2.2019,-2.1429,-2.1361,-2.1307,-2.0979,-3.5266,-3.5213,-3.5568,-3.5807,-3.5948,-3.6534,-3.5832,-3.4328,-3.3528,-3.2184,-3.0333,-2.9162,-2.8276,-2.8036,-2.801,-2.8295,-2.8326,-2.8117,-2.8494,-2.8994,-2.8822,-2.9264,-2.9887,-3.0566,-3.0784,-3.1027,-3.119,-3.119,-3.119,-3.0955,-3.1182,-3.1974,-3.2257,-3.2471,-3.382,-3.4491,-3.4653,-3.5299,-3.5383,-3.5329,-3.494,-3.4307,-3.38,-3.3621,-3.3529,-3.3514,-3.3683,-3.4042,-3.4737,-3.5635,-3.6561,-3.6747,-3.6683,-3.6562,-3.6221,-3.5864,-3.569,-3.5622,-3.5367,-3.4832,-3.3682,-3.2419,-3.1298,-2.9815,-2.8104,-2.7705,-2.7999,-2.8309,-2.8714,-2.8856,-2.8122,-2.7452,-2.6828,-2.6064,-2.4682,-2.3546,-2.3848,-2.4182,-2.4323,-2.4408,-2.4838,-2.5329,-2.545,-2.5473,-2.5974,-2.6466,-2.6647,-2.6632,-2.6737,-2.716,-2.7605,-2.776,-2.7315,-2.7622,-2.8176,-2.7832,-2.7191,-2.7111,-2.6703,-2.5879,-2.5061,-2.425,-2.3475,-2.2809,-2.2466,-2.1996,-2.1636,-2.1315,-2.1465,-2.165,-2.1166,-2.0799,-2.1251,-2.1113,-2.057,-3.4554,-3.4796,-3.4906,-3.5277,-3.5791,-3.5437,-3.4941,-3.4551,-3.3532,-3.2205,-3.0824,-2.9601,-2.8716,-2.8113,-2.7573,-2.7694,-2.8126,-2.784,-2.8345,-2.9026,-2.8478,-2.9074,-2.9848,-3.0349,-3.0436,-3.0836,-3.1213,-3.123,-3.1173,-3.1066,-3.1163,-3.1644,-3.1598,-3.2113,-3.3364,-3.3849,-3.4196,-3.4861,-3.519,-3.5115,-3.4726,-3.4352,-3.4382,-3.4113,-3.3784,-3.3619,-3.3546,-3.3592,-3.4145,-3.5006,-3.6421,-3.7189,-3.7403,-3.7386,-3.7093,-3.6899,-3.6705,-3.6309,-3.5919,-3.5001,-3.367,-3.1846,-3.0434,-2.8367,-2.7152,-2.652,-2.6758,-2.6862,-2.7349,-2.8061,-2.762,-2.7056,-2.6424,-2.559,-2.4396,-2.3825,-2.369,-2.4034,-2.4279,-2.461,-2.505,-2.5329,-2.5467,-2.5806,-2.6468,-2.6867,-2.6991,-2.6946,-2.6677,-2.7096,-2.756,-2.756,-2.756,-2.761,-2.7745,-2.783,-2.744,-2.7455,-2.7281,-2.6455,-2.5528,-2.432,-2.3543,-2.2855,-2.1924,-2.1256,-2.0983,-2.0818,-2.0782,-2.0845,-2.0346,-2.0194,-2.0769,-2.1054,-2.062]}]]